[[{"header":{"parameterUnit":"m.s-1","parameterCategory":1,"la1":31.0,"la2":29.5877,"lo1":-88.7671,"lo2":-86.6584,"dy":0.0162,"dx":0.0185,"nx":115,"ny":88,"refTime":"2023-06-05T06:00:00:Z","depth":0,"parameterNumber":2,"parameterNumberName":"U-component_of_WINDS"},"data":[0.0,0.0,0.0,0.0,0.0,0.0,0.0,0.0,0.0,0.0,0.0,0.0,0.0,0.0,0.0,0.0,0.0,0.0,0.0,0.0,0.0,0.0,0.0,0.0,0.0,0.0,0.0,0.0,0.0,0.0,0.0,0.0,0.0,0.0,0.0,0.0,0.0,0.0,0.0,0.0,0.0,0.0,0.0,0.0,0.0,0.0,0.0,0.0,0.0,0.0,0.0,0.0,0.0,0.0,0.0,0.0,0.0,0.0,0.0,0.0,0.0,0.0,0.0,0.0,0.0,0.0,0.0,0.0,0.0,0.0,0.0,0.0,0.0,0.0,0.0,0.0,0.0,0.0,0.0,0.0,0.0,0.0,0.0,0.0,0.0,0.0,0.0,0.0,0.0,0.0,0.0,0.0,0.0,0.0,0.0,0.0,0.0,0.0,0.0,0.0,0.0,0.0,0.0,0.0,0.0,0.0,0.0,0.0,0.0,0.0,0.0,0.0,0.0,0.0,0.0,0.0,0.0,0.0,0.0,0.0,0.0,0.0,0.0,0.0,0.0,0.0,0.0,0.0,0.0,0.0,0.0,0.0,0.0,0.0,0.0,0.0,0.0,0.0,0.0,0.0,0.0,0.0,0.0,0.0,0.0,0.0,0.0,0.0,0.0,0.0,0.0,0.0,0.0,0.0,0.0,0.0,0.0,0.0,0.0,0.0,0.0,0.0,0.0,0.0,0.0,0.0,0.0,0.0,0.0,0.0,0.0,0.0,0.0,0.0,0.0,0.0,0.0,0.0,0.0,0.0,0.0,0.0,0.0,0.0,0.0,0.0,0.0,0.0,0.0,0.0,0.0,0.0,0.0,0.0,0.0,0.0,0.0,0.0,0.0,0.0,0.0,0.0,0.0,0.0,0.0,0.0,0.0,0.0,0.0,0.0,0.0,0.0,0.0,0.0,0.0,0.0,0.0,0.0,0.0,0.0,0.0,0.0,0.0,0.0,0.0,0.0,0.0,0.0,0.0,0.0,0.0,0.0,0.0,0.0,0.0,0.0,0.0,0.0,0.0,0.0,0.0,0.0,0.0,0.0,0.0,0.0,0.0,0.0,0.0,0.0,0.0,0.0,0.0,0.0,0.0,0.0,0.0,0.0,0.0,0.0,0.0,0.0,0.0,0.0,0.0,0.0,0.0,0.0,0.0,0.0,0.0,0.0,0.0,0.0,0.0,0.0,0.0,0.0,0.0,0.0,0.0,0.0,0.0,0.0,0.0,0.0,0.0,0.0,0.0,0.0,0.0,0.0,0.0,0.0,0.0,0.0,0.0,0.0,0.0,0.0,0.0,0.0,0.0,0.0,0.0,0.0,0.0,0.0,0.0,0.0,0.0,0.0,0.0,0.0,0.0,0.0,0.0,0.0,0.0,0.0,0.0,0.0,0.0,0.0,0.0,0.0,0.0,0.0,0.0,0.0,0.0,0.0,0.0,0.0,0.0,0.0,0.0,0.0,0.0,0.0,0.0,0.0,0.0,0.0,0.0,0.0,0.0,0.0,0.0,0.0,0.0,0.0,0.0,0.0,0.0,0.0,0.0,0.0,0.0,0.0,0.0,0.0,0.0,0.0,0.0,0.0,0.0,0.0,0.0,0.0,0.0,0.0,0.0,0.0,0.0,0.0,0.0,0.0,0.0,0.0,0.0,0.0,0.0,0.0,0.0,0.0,0.0,0.0,0.0,0.0,0.0,0.0,0.0,0.0,0.0,0.0,0.0,0.0,0.0,0.0,0.0,0.0,0.0,0.0,0.0,0.0,0.0,0.0,0.0,0.0,0.0,0.0,0.0,0.0,0.0,0.0,0.0,0.0,0.0,0.0,0.0,0.0,0.0,0.0,0.0,0.0,0.0,0.0,0.0,0.0,0.0,0.0,0.0,0.0,0.0,0.0,0.0,0.0,0.0,0.0,0.0,0.0,0.0,0.0,0.0,0.0,0.0,0.0,0.0,0.0,0.0,0.0,0.0,0.0,0.0,0.0,0.0,0.0,0.0,0.0,0.0,0.0,0.0,0.0,0.0,0.0,0.0,0.0,0.0,0.0,0.0,0.0,0.0,0.0,0.0,0.0,0.0,0.0,0.0,0.0,0.0,0.0,0.0,0.0,0.0,0.0,0.0,0.0,0.0,0.0,0.0,0.0,0.0,0.0,0.0,0.0,0.0,0.0,0.0,0.0,0.0,0.0,0.0,0.0,0.0,0.0,0.0,0.0,0.0,0.0,0.0,0.0,0.0,0.0,0.0,0.0,0.0,0.0,0.0,0.0,0.0,0.0,0.0,0.0,0.0,0.0,0.0,0.0,0.0,0.0,0.0,0.0,0.0,0.0,0.0,0.0,0.0,0.0,0.0,0.0,0.0,0.0,0.0,0.0,0.0,0.0,0.0,0.0,0.0,0.0,0.0,0.0,0.0,0.0,0.0,0.0,0.0,0.0,0.0,0.0,0.0,0.0,0.0,0.0,0.0,0.0,0.0,0.0,0.0,0.0,0.0,0.0,0.0,0.0,0.0,0.0,0.0,0.0,0.0,0.0,0.0,0.0,0.0,0.0,0.0,0.0,0.0,0.0,0.0,0.0,0.0,0.0,0.0,0.0,0.0,0.0,0.0,0.0,0.0,0.0,0.0,0.0,0.0,0.0,0.0,0.0,0.0,0.0,0.0,0.0,0.0,0.0,0.0,0.0,0.0,0.0,0.0,0.0,0.0,0.0,0.0,0.0,0.0,0.0,0.0,0.0,0.0,0.0,0.0,0.0,0.0,0.0,0.0,0.0,0.0,0.0,0.0,0.0,0.0,0.0,0.0,0.0,0.0,0.0,0.0,0.0,0.0,0.0,0.0,0.0,0.0,0.0,0.0,0.0,0.0,0.0,0.0,0.0,0.0,0.0,0.0,0.0,0.0,0.0,0.0,0.0,0.0,0.0,0.0,0.0,0.0,0.0,0.0,0.0,0.0,0.0,0.0,0.0,0.0,0.0,0.0,0.0,0.0,0.0,0.0,0.0,0.0,0.0,0.0,0.0,0.0,0.0,0.0,0.0,0.0,0.0,0.0,0.0,0.0,0.0,0.0,0.0,0.0,0.0,0.0,0.0,0.0,0.0,0.0,0.0,0.0,0.0,0.0,0.0,0.0,0.0,0.0,0.0,0.0,0.0,0.0,0.0,0.0,0.0,0.0,0.0,0.0,0.0,0.0,0.0,0.0,0.0,0.0,0.0,0.0,0.0,0.0,0.0,0.0,0.0,0.0,0.0,0.0,0.0,0.0,0.0,0.0,0.0,0.0,0.0,0.0,0.0,0.0,0.0,0.0,0.0,0.0,0.0,0.0,0.0,0.0,0.0,0.0,0.0,0.0,0.0,0.0,0.0,0.0,0.0,0.0,0.0,0.0,0.0,0.0,0.0,0.0,0.0,0.0,0.0,0.0,0.0,0.0,0.0,0.0,0.0,0.0,0.0,0.0,0.0,0.0,0.0,0.0,0.0,0.0,0.0,0.0,0.0,0.0,0.0,0.0,0.0,0.0,0.0,0.0,0.0,0.0,0.0,0.0,0.0,0.0,0.0,0.0,0.0,0.0,0.0,0.0,0.0,0.0,0.0,0.0,0.0,0.0,0.0,0.0,0.0,0.0,0.0,0.0,0.0,0.0,0.0,0.0,0.0,0.0,0.0,0.0,0.0,0.0,0.0,0.0,0.0,0.0,0.0,0.0,0.0,0.0,0.0,0.0,0.0,0.0,0.0,0.0,0.0,0.0,0.0,0.0,0.0,0.0,0.0,0.0,0.0,0.0,0.0,0.0,0.0,0.0,0.0,0.0,0.0,0.0,0.0,0.0,0.0,0.0,0.0,0.0,0.0,0.0,0.0,0.0,0.0,0.0,0.0,0.0,0.0,0.0,0.0,0.0,0.0,0.0,0.0,0.0,0.0,0.0,0.0,0.0,0.0,0.0,0.0,0.0,0.0,0.0,0.0,0.0,0.0,0.0,0.0,0.0,0.0,0.0,0.0,0.0,0.0,0.0,0.0,0.0,0.0,0.0,0.0,0.0,0.0,0.0,0.0,0.0,0.0,0.0,0.0,0.0,0.0,0.0,0.0,0.0,0.0,0.0,0.0,0.0,0.0,0.0,0.0,0.0,0.0,0.0,0.0,0.0,0.0,0.0,0.0,0.0,0.0,0.0,0.0,0.0,0.0,0.0,0.0,0.0,0.0,0.0,0.0,0.0,0.0,0.0,0.0,0.0,0.0,-0.1422,0.0,0.0,0.0,0.0,0.0,0.0,0.0,0.0,0.0,0.0,0.0,0.0,0.0,0.0,0.0,0.0,0.0,0.0,0.0,0.0,0.0,0.0,0.0,0.0,0.0,0.0,0.0,0.0,0.0,0.0,0.0,0.0,0.0,0.0,0.0,0.0,0.0,0.0,0.0,0.0,0.0,0.0,0.0,0.0,0.0,0.0,0.0,0.0,0.0,0.0,0.0,0.0,0.0,0.0,0.0,0.0,0.0,0.0,0.0,0.0,0.0,0.0,0.0,0.0,0.0,0.0,0.0,0.0,0.0,0.0,0.0,0.0,0.0,0.0,0.0,0.0,0.0,0.0,0.0,0.0,0.0,0.0,0.0,0.0,0.0,0.0,0.0,0.0,0.0,0.0,0.0,0.0,0.0,0.0,0.0,0.0,0.0,0.0,0.0,0.0,0.0,0.0,0.0,0.0,0.0,0.0,0.0,0.0,0.0,0.0,-0.065,-0.1009,-0.1298,-0.1571,-0.187,0.0,0.0,0.0,0.0,0.0,0.0,0.0,0.0,0.0,0.0,0.0,0.0,0.0,0.0,0.0,0.0,0.0,0.0,0.0,0.0,0.0,0.0,0.0,0.0,0.0,0.0,0.0,0.0,0.0,0.0,0.0,0.0,0.0,0.0,0.0,0.0,0.0,0.0,0.0,0.0,0.0,0.0,0.0,0.0,0.0,0.0,0.0,0.0,0.0,0.0,0.0,0.0,0.0,0.0,0.0,0.0,0.0,0.0,0.0,0.0,0.0,0.0,0.0,0.0,0.0,0.0,0.0,0.0,0.0,0.0,0.0,0.0,0.0,0.0,0.0,0.0,0.0,0.0,0.0,0.0,0.0,0.0,0.0,0.0,0.0,0.0,0.0,0.0,0.0,0.0,0.0,0.0,0.0,0.0,0.0,0.0,0.0,0.0,0.0,0.0,0.0,0.0,0.0,0.0,0.0,0.0,0.0,0.0,0.0,0.0,0.0,0.0,-0.1746,-0.2119,-0.2437,0.0,0.0,0.0,0.0,0.0,0.0,0.0,0.0,0.0,0.0,0.0,0.0,0.0,0.0,0.0,0.0,0.0,0.0,0.0,0.0,0.0,0.0,0.0,0.0,0.0,0.0,0.0,0.0,0.0,0.0,0.0,0.0,0.0,0.0,0.0,0.0,0.0,0.0,0.0,0.0,0.0,0.0,0.0,0.0,0.0,0.0,0.0,0.0,0.0,0.0,0.0,0.0,0.0,0.0,0.0,0.0,0.0,0.0,0.0,0.0,0.0,0.0,0.0,0.0,0.0,0.0,0.0,0.0,0.0,0.0,0.0,0.0,0.0,0.0,0.0,0.0,0.0,0.0,0.0,0.0,0.0,0.0,0.0,0.0,0.0,0.0,0.0,0.0,0.0,0.0,0.0,0.0,0.0,0.0,0.0,0.0,0.0,0.0,0.0,0.0,0.0,0.0,0.0,0.0,0.0,0.0,0.0,0.0,0.0,0.0,-0.1366,-0.1569,-0.2125,0.0,-0.3086,0.0,0.0,0.0,0.0,0.0,0.0,0.0,0.0,0.0,0.0,0.0,0.0,0.0,0.0,0.0,0.0,0.0,0.0,0.0,0.0,0.0,0.0,0.0,0.0,0.0,0.0,0.0,0.0,0.0,0.0,0.0,0.0,0.0,0.0,0.0,0.0,0.0,0.0,0.0,0.0,0.0,0.0,0.0,0.0,0.0,0.0,0.0,0.0,0.0,0.0,0.0,0.0,0.0,0.0,0.0,0.0,0.0,0.0,0.0,0.0,0.0,0.0,0.0,0.0,0.0,0.0,0.0,0.0,0.0,0.0,0.0,0.0,0.0,0.0,0.0,0.0,0.0,0.0,0.0,0.0,0.0,0.0,0.0,0.0,0.0,0.0,0.0,0.0,0.0,0.0,0.0,0.0,0.0,0.0,0.0,0.0,0.0,0.0,0.0,0.0,0.0,0.0,0.0,0.0,0.0,0.0,0.0,0.0,0.0,0.0,-0.1746,-0.2014,-0.266,-0.3217,0.0,0.0,0.0,0.0,0.0,0.0,0.0,0.0,0.0,0.0,0.0,0.0,0.0,0.0,0.0,0.0,0.0,0.0,0.0,0.0,0.0,0.0,0.0,0.0,0.0,0.0,0.0,0.0,0.0,0.0,0.0,0.0,0.0,0.0,0.0,0.0,0.0,0.0,0.0,0.0,0.0,0.0,0.0,0.0,0.0,0.0,0.0,0.0,0.0,0.0,0.0,0.0,0.0,0.0,0.0,0.0,0.0,0.0,0.0,0.0,0.0,0.0,0.0,0.0,0.0,0.0,0.0,0.0,0.0,0.0,0.0,0.0,0.0,0.0,0.0,0.0,0.0,0.0,0.0,0.0,0.0,0.0,0.0,0.0,0.0,0.0,0.0,0.0,0.0,0.0,0.0,0.0,0.0,0.0,0.0,0.0,0.0,0.0,0.0,0.0,0.0,0.0,0.0,0.0,0.0,0.0,0.0,0.0,0.0,0.0,-0.1634,-0.2127,-0.2637,-0.3217,-0.3704,-0.406,0.0,0.0,0.0,0.0,0.0,0.0,0.0,0.0,0.0,0.0,0.0,0.0,0.0,0.0,0.0,0.0,0.0,0.0,0.0,0.0,0.0,0.0,0.0,0.0,0.0,0.0,0.0,0.0,0.0,0.0,0.0,0.0,0.0,0.0,0.0,0.0,0.0,0.0,0.0,0.0,0.0,0.0,0.0,0.0,0.0,0.0,0.0,0.0,0.0,0.0,0.0,0.0,0.0,0.0,0.0,0.0,0.0,0.0,0.0,0.0,0.0,0.0,0.0,0.0,0.0,0.0,0.0,0.0,0.0,0.0,0.0,0.0,0.0,0.0,0.0,0.0,0.0,0.0,0.0,0.0,0.0,0.0,0.0,0.0,0.0,0.0,0.0,0.0,0.0,0.0,0.0,0.0,0.0,0.0,0.0,0.0,0.0,0.0,0.0,0.0,0.0,0.0,0.0,0.0,0.0,0.0,0.0,0.0,-0.1299,-0.1811,-0.2546,-0.3486,-0.3751,-0.406,0.0,0.0,0.0,0.0,0.0,0.0,0.0,0.0,0.0,0.0,0.0,0.0,0.0,0.0,0.0,0.0,0.0,0.0,0.0,0.0,0.0,0.0,0.0,0.0,0.0,0.0,0.0,0.0,0.0,0.0,0.0,0.0,0.0,0.0,0.0,0.0,0.0,0.0,0.0,0.0,0.0,0.0,0.0,0.0,0.0,0.0,0.0,0.0,0.0,0.0,0.0,0.0,0.0,0.0,0.0,0.0,0.0,0.0,0.0,0.0,0.0,0.0,0.0,0.0,0.0,0.0,0.0,0.0,0.0,0.0,0.0,0.0,0.0,0.0,0.0,0.0,0.0,0.0,0.0,0.0,0.0,0.0,0.0,0.0,0.0,0.0,0.0,0.0,0.0,0.0,0.0,0.0,0.0,0.0,0.0,0.0,0.0,0.0,0.0,0.0,0.0,0.0,0.0,0.0,0.0,0.0,0.0,0.0,0.0,-0.1636,-0.2299,-0.2968,-0.3638,-0.3836,-0.41,0.0,0.0,0.0,0.0,0.0,0.0,0.0,0.0,0.0,0.0,0.0,0.0,0.0,0.0,0.0,0.0,0.0,0.0,0.0,0.0,0.0,0.0,0.0,0.0,0.0,0.0,0.0,0.0,0.0,0.0,0.0,0.0,0.0,0.0,0.0,0.0,0.0,0.0,0.0,0.0,0.0,0.0,0.0,0.0,0.0,0.0,0.0,0.0,0.0,0.0,0.0,0.0,0.0,0.0,0.0,0.0,0.0,0.0,0.0,0.0,0.0,0.0,0.0,0.0,0.0,0.0,0.0,0.0,0.0,0.0,0.0,0.0,0.0,0.0,0.0,0.0,0.0,0.0,0.0,0.0,0.0,0.0,0.0,0.0,0.0,0.0,0.0,0.0,0.0,0.0,0.0,0.0,0.0,0.0,0.0,0.0,0.0,0.0,0.0,0.0,0.0,0.0,0.0,0.0,0.0,0.0,0.0,0.0,0.0,-0.2152,0.0,-0.3322,-0.3744,-0.388,-0.4166,0.0,0.0,0.0,0.0,0.0,0.0,0.0,0.0,0.0,0.0,0.0,0.0,0.0,0.0,0.0,0.0,0.0,0.0,0.0,0.0,0.0,0.0,0.0,0.0,0.0,0.0,0.0,0.0,0.0,0.0,0.0,0.0,0.0,0.0,0.0,0.0,0.0,0.0,0.0,0.0,0.0,0.0,0.0,0.0,0.0,0.0,0.0,0.0,0.0,0.0,0.0,0.0,0.0,0.0,0.0,0.0,0.0,0.0,0.0,0.0,0.0,0.0,0.0,0.0,0.0,0.0,0.0,0.0,0.0,0.0,0.0,0.0,0.0,0.0,0.0,0.0,0.0,0.0,0.0,0.0,0.0,0.0,0.0,0.0,0.0,0.0,0.0,0.0,0.0,0.0,0.0,0.0,0.0,0.0,0.0,0.0,0.0,0.0,0.0,0.0,0.0,0.0,0.0,0.0,0.0,0.0,0.0,0.0,-0.2174,-0.2868,-0.322,-0.3527,-0.388,-0.402,-0.4232,0.0,0.0,0.0,0.0,0.0,0.0,0.0,0.0,0.0,0.0,0.0,0.0,0.0,0.0,0.0,0.0,0.0,0.0,0.0,0.0,0.0,0.0,0.0,0.0,0.0,0.0,0.0,0.0,0.0,0.0,0.0,0.0,0.0,0.0,0.0,0.0,0.0,0.0,0.0,0.0,0.0,0.0,0.0,0.0,0.0,0.0,0.0,0.0,0.0,0.0,0.0,0.0,0.0,0.0,0.0,0.0,0.0,0.0,0.0,0.0,0.0,0.0,0.0,0.0,0.0,0.0,0.0,0.0,0.0,0.0,0.0,0.0,0.0,0.0,0.0,0.0,0.0,0.0,0.0,0.0,0.0,0.0,0.0,0.0,0.0,0.0,0.0,0.0,0.0,0.0,0.0,0.0,0.0,0.0,0.0,0.0,0.0,0.0,0.0,0.0,0.0,0.0,0.0,0.0,0.0,0.0,0.0,0.0,0.0,-0.289,-0.3129,-0.3398,-0.3667,-0.3774,-0.4008,0.0,0.0,0.0,0.0,0.0,0.0,0.0,0.0,0.0,0.0,0.0,0.0,0.0,0.0,0.0,0.0,0.0,0.0,0.0,0.0,0.0,0.0,0.0,0.0,0.0,0.0,0.0,0.0,0.0,0.0,0.0,0.0,0.0,0.0,0.0,0.0,0.0,0.0,0.0,0.0,0.0,0.0,0.0,0.0,0.0,0.0,0.0,0.0,0.0,0.0,0.0,0.0,0.0,0.0,0.0,0.0,0.0,0.0,0.0,0.0,0.0,0.0,0.0,0.0,0.0,0.0,0.0,0.0,0.0,0.0,0.0,0.0,0.0,0.0,0.0,0.0,0.0,0.0,0.0,0.0,0.0,0.0,0.0,0.0,0.0,0.0,0.0,0.0,0.0,0.0,0.0,0.0,0.0,0.0,0.0,0.0,0.0,0.0,0.0,0.0,0.0,0.0,0.0,0.0,0.0,0.0,0.0,0.0,0.0,-0.2578,-0.2907,-0.3195,-0.3442,-0.3549,-0.3766,-0.4144,0.0,0.0,0.0,0.0,0.0,0.0,0.0,0.0,0.0,0.0,0.0,0.0,0.0,0.0,0.0,0.0,0.0,0.0,0.0,0.0,0.0,0.0,0.0,0.0,0.0,0.0,0.0,0.0,0.0,0.0,0.0,0.0,0.0,0.0,0.0,0.0,0.0,0.0,0.0,0.0,0.0,0.0,0.0,0.0,0.0,0.0,0.0,0.0,0.0,0.0,0.0,0.0,0.0,0.0,0.0,0.0,0.0,0.0,0.0,0.0,0.0,0.0,0.0,0.0,0.0,0.0,0.0,0.0,0.0,0.0,0.0,0.0,0.0,0.0,0.0,0.0,0.0,0.0,0.0,0.0,0.0,0.0,0.0,0.0,0.0,0.0,0.0,0.0,0.0,0.0,0.0,0.0,0.0,0.0,0.0,0.0,0.0,0.0,0.0,0.0,0.0,0.0,0.0,0.0,0.0,0.0,0.0,0.0,-0.1967,-0.2523,-0.2918,-0.3148,-0.3306,-0.3527,0.0,0.0,0.0,0.0,0.0,0.0,0.0,0.0,0.0,0.0,0.0,0.0,0.0,0.0,0.0,0.0,0.0,0.0,0.0,0.0,0.0,0.0,0.0,0.0,0.0,0.0,0.0,0.0,0.0,0.0,0.0,0.0,0.0,0.0,0.0,0.0,0.0,0.0,0.0,0.0,0.0,0.0,0.0,0.0,0.0,0.0,0.0,0.0,0.0,0.0,0.0,0.0,0.0,0.0,0.0,0.0,0.0,0.0,0.0,0.0,0.0,0.0,0.0,0.0,0.0,0.0,0.0,0.0,0.0,0.0,0.0,0.0,0.0,0.0,0.0,0.0,0.0,0.0,0.0,0.0,0.0,0.0,0.0,0.0,0.0,0.0,0.0,0.0,0.0,0.0,0.0,0.0,0.0,0.0,0.0,0.0,0.0,0.0,0.0,0.0,0.0,0.0,0.0,0.0,0.0,0.0,0.0,0.0,0.0,-0.137,-0.1594,-0.2031,-0.2665,-0.297,-0.3284,0.0,0.0,0.0,0.0,0.0,0.0,0.0,0.0,0.0,0.0,0.0,0.0,0.0,0.0,0.0,0.0,0.0,0.0,0.0,0.0,0.0,0.0,0.0,0.0,0.0,0.0,0.0,0.0,0.0,0.0,0.0,0.0,0.0,0.0,0.0,0.0,0.0,0.0,0.0,0.0,0.0,0.0,0.0,0.0,0.0,0.0,0.0,0.0,0.0,0.0,0.0,0.0,0.0,0.0,0.0,0.0,0.0,0.0,0.0,0.0,0.0,0.0,0.0,0.0,0.0,0.0,0.0,0.0,0.0,0.0,0.0,0.0,0.0,0.0,0.0,0.0,0.0,0.0,0.0,0.0,0.0,0.0,0.0,0.0,0.0,0.0,0.0,0.0,0.0,0.0,0.0,0.0,0.0,0.0,0.0,0.0,0.0,0.0,0.0,0.0,0.0,0.0,0.0,0.0,0.0,0.0,0.0,0.0,-0.123,-0.0857,-0.1012,-0.1388,-0.1978,-0.2456,-0.2923,0.0,0.0,0.0,0.0,0.0,0.0,0.0,0.0,0.0,0.0,0.0,0.0,0.0,0.0,0.0,0.0,0.0,0.0,0.0,0.0,0.0,0.0,0.0,0.0,0.0,0.0,0.0,0.0,0.0,0.0,0.0,0.0,0.0,0.0,0.0,0.0,0.0,0.0,0.0,0.0,0.0,0.0,0.0,0.0,0.0,0.0,0.0,0.0,0.0,0.0,0.0,0.0,0.0,0.0,0.0,0.0,0.0,0.0,0.0,0.0,0.0,0.0,0.0,0.0,0.0,0.0,0.0,0.0,0.0,0.0,0.0,0.0,0.0,0.0,0.0,0.0,0.0,0.0,0.0,0.0,0.0,0.0,0.0,0.0,0.0,0.0,0.0,0.0,0.0,0.0,0.0,0.0,0.0,0.0,0.0,0.0,0.0,0.0,0.0,0.0,0.0,0.0,0.0,0.0,0.0,0.0,0.0,0.0,-0.0817,-0.0459,-0.0657,-0.0917,-0.1271,-0.1925,-0.2546,0.0,0.0,0.0,0.0,0.0,0.0,0.0,0.0,0.0,0.0,0.0,0.0,0.0,0.0,0.0,0.0,0.0,0.0,0.0,0.0,0.0,0.0,0.0,0.0,0.0,0.0,0.0,0.0,0.0,0.0,0.0,0.0,0.0,0.0,0.0,0.0,0.0,0.0,0.0,0.0,0.0,0.0,0.0,0.0,0.0,0.0,0.0,0.0,0.0,0.0,0.0,0.0,0.0,0.0,0.0,0.0,0.0,0.0,0.0,0.0,0.0,0.0,0.0,0.0,0.0,0.0,0.0,0.0,0.0,0.0,0.0,0.0,0.0,0.0,0.0,0.0,0.0,0.0,0.0,0.0,0.0,0.0,0.0,0.0,0.0,0.0,0.0,0.0,0.0,0.0,0.0,0.0,0.0,0.0,0.0,0.0,0.0,0.0,0.0,0.0,0.0,0.0,0.0,0.0,0.0,0.0,0.0,0.0,-0.0608,-0.0274,-0.0416,-0.0653,-0.0972,-0.1743,-0.2413,0.0,0.0,0.0,0.0,0.0,0.0,0.0,0.0,0.0,0.0,0.0,0.0,0.0,0.0,0.0,0.0,0.0,0.0,0.0,0.0,0.0,0.0,0.0,0.0,0.0,0.0,0.0,0.0,0.0,0.0,0.0,0.0,0.0,0.0,0.0,0.0,0.0,0.0,0.0,0.0,0.0,0.0,0.0,0.0,0.0,0.0,0.0,0.0,-1.6148,0.0,0.0,0.0,0.0,0.0,0.0,0.0,0.0,0.0,0.0,0.0,0.0,0.0,0.0,0.0,0.0,0.0,0.0,0.0,0.0,0.0,0.0,0.0,0.0,0.0,0.0,0.0,0.0,0.0,0.0,0.0,0.0,0.0,0.0,0.0,0.0,0.0,0.0,0.0,0.0,0.0,0.0,0.0,0.0,0.0,0.0,0.0,0.0,0.0,0.0,0.0,0.0,0.0,0.0,0.0,0.0,0.0,0.0,0.0,-0.0505,-0.014,-0.0288,-0.0554,-0.0905,-0.1656,-0.2277,0.0,0.0,0.0,0.0,0.0,0.0,0.0,0.0,0.0,0.0,0.0,0.0,0.0,0.0,0.0,0.0,0.0,0.0,0.0,0.0,0.0,0.0,0.0,0.0,0.0,0.0,0.0,0.0,0.0,0.0,0.0,0.0,0.0,0.0,0.0,0.0,0.0,0.0,0.0,0.0,0.0,0.0,0.0,0.0,0.0,0.0,0.0,0.0,0.0,0.0,0.0,0.0,0.0,0.0,0.0,0.0,0.0,0.0,0.0,0.0,0.0,0.0,0.0,0.0,0.0,0.0,0.0,0.0,0.0,0.0,0.0,0.0,0.0,0.0,0.0,0.0,0.0,0.0,0.0,0.0,0.0,0.0,0.0,0.0,0.0,0.0,0.0,0.0,0.0,0.0,0.0,0.0,0.0,0.0,0.0,0.0,0.0,0.0,0.0,0.0,0.0,0.0,0.0,0.0,0.0,0.0,0.0,-0.0926,-0.0505,-0.0056,-0.0314,-0.063,-0.0957,-0.168,-0.2308,-0.28,0.0,0.0,0.0,0.0,0.0,0.0,0.0,0.0,0.0,0.0,0.0,0.0,0.0,0.0,0.0,0.0,0.0,0.0,0.0,0.0,0.0,0.0,0.0,0.0,0.0,0.0,0.0,0.0,0.0,0.0,0.0,0.0,0.0,0.0,0.0,0.0,0.0,0.0,-1.4778,-1.6039,0.0,0.0,0.0,0.0,0.0,0.0,0.0,0.0,-1.8308,0.0,0.0,0.0,0.0,0.0,0.0,0.0,0.0,0.0,0.0,0.0,0.0,0.0,0.0,0.0,0.0,0.0,0.0,0.0,0.0,0.0,0.0,0.0,0.0,0.0,0.0,0.0,0.0,0.0,0.0,0.0,0.0,0.0,0.0,0.0,0.0,0.0,0.0,0.0,0.0,0.0,0.0,0.0,0.0,0.0,0.0,0.0,0.0,0.0,0.0,0.0,0.0,0.0,0.0,0.0,0.0,-0.1318,-0.101,-0.0645,-0.0196,-0.0602,-0.0958,-0.1233,-0.2009,-0.2723,-0.3324,0.0,0.0,0.0,0.0,0.0,0.0,0.0,0.0,0.0,0.0,0.0,0.0,0.0,0.0,0.0,0.0,0.0,0.0,0.0,0.0,0.0,0.0,0.0,0.0,0.0,0.0,0.0,0.0,0.0,0.0,0.0,0.0,0.0,0.0,0.0,0.0,0.0,0.0,0.0,-1.6591,-1.7323,0.0,0.0,0.0,0.0,0.0,0.0,0.0,0.0,-1.9051,0.0,0.0,0.0,0.0,0.0,0.0,0.0,0.0,0.0,0.0,0.0,0.0,0.0,0.0,0.0,0.0,0.0,0.0,0.0,0.0,0.0,0.0,0.0,0.0,0.0,0.0,0.0,0.0,0.0,0.0,0.0,0.0,0.0,0.0,0.0,0.0,0.0,0.0,0.0,0.0,0.0,0.0,0.0,0.0,0.0,0.0,0.0,0.0,0.0,0.0,0.0,0.0,0.0,0.0,0.0,-0.1597,-0.1205,-0.0813,-0.0476,-0.0812,-0.1235,-0.1709,-0.2402,-0.314,0.0,0.0,0.0,0.0,0.0,0.0,0.0,0.0,0.0,0.0,0.0,0.0,0.0,0.0,0.0,0.0,0.0,0.0,0.0,0.0,0.0,0.0,0.0,0.0,0.0,0.0,0.0,0.0,0.0,0.0,0.0,0.0,0.0,0.0,0.0,0.0,0.0,0.0,0.0,0.0,-1.6714,-1.7503,-1.8161,0.0,0.0,0.0,0.0,0.0,0.0,-1.9929,-1.9791,0.0,0.0,0.0,0.0,0.0,0.0,0.0,0.0,0.0,0.0,0.0,0.0,0.0,0.0,0.0,0.0,0.0,0.0,0.0,0.0,0.0,0.0,0.0,0.0,0.0,0.0,0.0,0.0,0.0,0.0,0.0,0.0,0.0,0.0,0.0,0.0,0.0,0.0,0.0,0.0,0.0,0.0,0.0,0.0,0.0,0.0,0.0,0.0,0.0,0.0,0.0,0.0,0.0,0.0,0.0,-0.1846,-0.1456,-0.115,-0.0922,-0.1204,-0.1687,-0.2286,-0.2933,-0.3691,0.0,0.0,0.0,0.0,0.0,0.0,0.0,0.0,0.0,0.0,0.0,0.0,0.0,0.0,0.0,0.0,0.0,0.0,0.0,0.0,0.0,0.0,0.0,0.0,0.0,0.0,0.0,0.0,0.0,0.0,0.0,0.0,0.0,0.0,0.0,0.0,0.0,0.0,0.0,0.0,0.0,-1.7415,-1.8234,-1.8533,0.0,0.0,0.0,0.0,-2.027,-2.0375,0.0,0.0,0.0,0.0,0.0,0.0,0.0,0.0,0.0,0.0,0.0,0.0,0.0,0.0,0.0,0.0,0.0,0.0,0.0,0.0,0.0,0.0,0.0,0.0,0.0,0.0,0.0,0.0,0.0,0.0,0.0,0.0,0.0,0.0,0.0,0.0,0.0,0.0,0.0,0.0,0.0,0.0,0.0,0.0,0.0,0.0,0.0,0.0,0.0,0.0,0.0,0.0,0.0,0.0,0.0,0.0,-0.2015,-0.1903,-0.179,-0.1562,-0.204,-0.2543,-0.2963,-0.3744,-0.454,0.0,0.0,0.0,0.0,0.0,0.0,0.0,0.0,0.0,0.0,0.0,0.0,0.0,0.0,0.0,0.0,0.0,0.0,0.0,0.0,0.0,0.0,0.0,0.0,0.0,0.0,0.0,0.0,0.0,0.0,0.0,0.0,0.0,0.0,0.0,0.0,0.0,0.0,0.0,0.0,0.0,-1.6849,-1.7767,-1.8147,-1.8553,0.0,0.0,-1.9808,-2.0308,-2.0444,0.0,0.0,0.0,0.0,0.0,0.0,0.0,0.0,0.0,0.0,0.0,0.0,0.0,0.0,0.0,0.0,0.0,0.0,0.0,0.0,0.0,0.0,0.0,0.0,0.0,0.0,0.0,0.0,0.0,0.0,0.0,0.0,0.0,0.0,0.0,0.0,0.0,0.0,0.0,0.0,0.0,0.0,0.0,0.0,0.0,0.0,0.0,0.0,0.0,0.0,0.0,0.0,0.0,0.0,0.0,-0.3213,-0.2657,-0.2406,-0.2266,-0.223,-0.2637,-0.3116,-0.3711,-0.4401,-0.5223,0.0,0.0,0.0,0.0,0.0,0.0,0.0,0.0,0.0,0.0,0.0,0.0,0.0,0.0,0.0,0.0,0.0,0.0,0.0,0.0,0.0,0.0,0.0,0.0,0.0,0.0,0.0,0.0,0.0,0.0,0.0,0.0,0.0,0.0,0.0,0.0,0.0,0.0,0.0,0.0,0.0,0.0,-1.7092,-1.7463,0.0,0.0,0.0,-1.9255,-1.9704,0.0,0.0,0.0,0.0,0.0,0.0,0.0,0.0,0.0,0.0,0.0,0.0,0.0,0.0,0.0,0.0,0.0,0.0,0.0,0.0,0.0,0.0,0.0,0.0,0.0,0.0,0.0,0.0,0.0,0.0,0.0,0.0,0.0,0.0,0.0,0.0,0.0,0.0,0.0,0.0,0.0,0.0,0.0,0.0,0.0,0.0,0.0,0.0,0.0,0.0,0.0,0.0,0.0,0.0,0.0,0.0,0.0,-0.3241,-0.291,-0.2826,-0.2982,-0.3313,-0.3796,-0.4451,-0.5153,0.0,0.0,0.0,0.0,0.0,0.0,0.0,0.0,0.0,0.0,0.0,0.0,0.0,0.0,0.0,0.0,0.0,0.0,0.0,0.0,0.0,0.0,0.0,0.0,0.0,0.0,0.0,-0.9725,0.0,0.0,0.0,0.0,0.0,0.0,0.0,0.0,0.0,0.0,0.0,0.0,0.0,0.0,-1.515,-1.6142,-1.654,-1.6941,0.0,0.0,-1.8459,-1.8925,-1.9236,-1.9394,0.0,0.0,0.0,0.0,0.0,0.0,0.0,0.0,0.0,0.0,0.0,0.0,0.0,0.0,0.0,0.0,0.0,0.0,0.0,0.0,0.0,0.0,0.0,0.0,0.0,0.0,0.0,0.0,0.0,0.0,0.0,0.0,0.0,0.0,0.0,0.0,0.0,0.0,0.0,0.0,0.0,0.0,0.0,0.0,0.0,0.0,0.0,0.0,0.0,0.0,0.0,0.0,0.0,0.0,-0.3965,-0.3599,-0.3552,-0.358,-0.3735,-0.4244,-0.4711,-0.5124,-0.6138,-0.6889,0.0,0.0,0.0,0.0,0.0,0.0,0.0,0.0,0.0,0.0,0.0,0.0,0.0,0.0,0.0,0.0,0.0,0.0,0.0,0.0,0.0,0.0,0.0,0.0,0.0,0.0,0.0,0.0,0.0,0.0,0.0,0.0,0.0,0.0,0.0,0.0,0.0,0.0,0.0,0.0,0.0,-1.3914,-1.4744,-1.5342,-1.5884,0.0,-1.6907,-1.7436,-1.8072,-1.8347,-1.8496,-1.8477,0.0,0.0,0.0,0.0,0.0,0.0,0.0,0.0,0.0,0.0,0.0,0.0,0.0,0.0,0.0,0.0,0.0,0.0,0.0,0.0,0.0,0.0,0.0,0.0,0.0,0.0,0.0,0.0,0.0,0.0,0.0,0.0,0.0,0.0,0.0,0.0,0.0,0.0,0.0,0.0,0.0,0.0,0.0,0.0,0.0,0.0,0.0,0.0,0.0,0.0,0.0,0.0,0.0,-0.4328,-0.3965,-0.3913,-0.3968,-0.4236,-0.4634,-0.5164,-0.5809,-0.6683,-0.7467,0.0,0.0,0.0,0.0,0.0,0.0,0.0,0.0,0.0,0.0,0.0,0.0,0.0,0.0,0.0,0.0,0.0,0.0,0.0,0.0,0.0,0.0,0.0,0.0,0.0,0.0,0.0,0.0,-0.9536,-0.988,-1.0328,0.0,0.0,0.0,0.0,0.0,0.0,0.0,0.0,0.0,0.0,-1.2604,-1.3304,-1.389,0.0,0.0,-1.5484,-1.6022,-1.6663,-1.704,-1.7307,-1.7395,-1.7286,0.0,0.0,0.0,0.0,0.0,0.0,0.0,0.0,0.0,0.0,0.0,0.0,0.0,0.0,0.0,0.0,0.0,0.0,0.0,0.0,0.0,0.0,0.0,0.0,0.0,0.0,-0.5242,-0.5101,0.0,0.0,0.0,0.0,0.0,0.0,0.0,0.0,0.0,0.0,0.0,0.0,0.0,0.0,0.0,0.0,0.0,0.0,0.0,0.0,0.0,0.0,0.0,0.0,-0.4664,-0.4286,-0.4072,-0.4141,-0.4388,-0.4765,-0.5313,-0.6056,-0.6954,-0.7753,0.0,0.0,0.0,0.0,0.0,0.0,0.0,0.0,0.0,0.0,0.0,0.0,0.0,0.0,0.0,0.0,0.0,0.0,0.0,0.0,0.0,0.0,0.0,0.0,0.0,0.0,0.0,0.0,-0.8961,-0.9223,-0.9555,0.0,0.0,0.0,0.0,0.0,0.0,0.0,0.0,0.0,0.0,-1.1533,-1.2181,-1.2805,-1.3447,-1.4025,-1.4545,-1.5066,-1.5568,-1.6037,-1.6376,-1.6455,0.0,0.0,0.0,0.0,0.0,0.0,0.0,0.0,0.0,0.0,0.0,0.0,0.0,0.0,0.0,0.0,0.0,0.0,0.0,0.0,0.0,0.0,0.0,0.0,0.0,0.0,0.0,-0.5101,0.0,0.0,-0.4956,0.0,0.0,0.0,0.0,0.0,0.0,0.0,0.0,0.0,0.0,0.0,0.0,0.0,0.0,0.0,0.0,0.0,0.0,0.0,0.0,0.0,0.0,-0.4976,-0.4403,-0.4133,-0.4074,-0.4216,-0.4647,-0.5197,-0.5821,-0.6908,-0.7681,-0.8106,0.0,0.0,0.0,0.0,0.0,0.0,0.0,0.0,0.0,0.0,0.0,0.0,0.0,0.0,0.0,0.0,0.0,0.0,0.0,0.0,0.0,0.0,0.0,0.0,0.0,0.0,-0.8242,-0.8321,-0.8474,0.0,0.0,0.0,0.0,0.0,0.0,0.0,0.0,0.0,-0.913,-0.9967,-1.0833,-1.1416,-1.2257,-1.2969,-1.3571,-1.4192,-1.4701,-1.5012,-1.5422,-1.5709,0.0,0.0,0.0,0.0,0.0,0.0,0.0,0.0,0.0,0.0,0.0,0.0,0.0,0.0,0.0,0.0,0.0,0.0,0.0,0.0,0.0,0.0,0.0,0.0,0.0,0.0,0.0,-0.5152,-0.4956,0.0,0.0,0.0,0.0,0.0,0.0,0.0,0.0,0.0,0.0,0.0,-1.8652,-1.9973,0.0,0.0,0.0,0.0,0.0,0.0,0.0,0.0,0.0,0.0,0.0,0.0,-0.5296,-0.4235,-0.3892,-0.3711,-0.3693,-0.4225,-0.4811,-0.5453,-0.6377,-0.7298,-0.813,0.0,0.0,0.0,0.0,0.0,0.0,0.0,0.0,0.0,0.0,0.0,0.0,0.0,0.0,0.0,0.0,0.0,0.0,0.0,0.0,0.0,0.0,0.0,0.0,0.0,-0.8436,0.0,0.0,0.0,0.0,0.0,0.0,0.0,0.0,0.0,0.0,-0.8147,-0.8259,-0.8294,-0.8945,-0.9639,-1.0279,-1.0956,-1.1604,0.0,0.0,0.0,0.0,0.0,0.0,0.0,0.0,0.0,0.0,0.0,0.0,0.0,0.0,-1.4385,-1.4587,-1.4465,-1.4317,-1.4192,0.0,0.0,0.0,0.0,0.0,0.0,0.0,0.0,0.0,0.0,0.0,0.0,0.0,0.0,-0.5133,-0.4958,-0.488,0.0,0.0,0.0,0.0,0.0,0.0,0.0,0.0,-1.5884,-1.7799,-1.9601,-2.1039,-2.2439,-2.37,-2.4345,-2.3472,0.0,0.0,0.0,0.0,0.0,0.0,0.0,0.0,-0.5335,-0.393,-0.3422,-0.3077,-0.2894,-0.3416,-0.4,-0.4697,-0.5842,-0.6885,-0.7788,-0.8176,-0.8382,0.0,0.0,0.0,0.0,0.0,0.0,0.0,0.0,0.0,0.0,0.0,0.0,0.0,0.0,0.0,0.0,0.0,0.0,0.0,0.0,0.0,0.0,0.0,-0.8294,0.0,0.0,0.0,0.0,0.0,0.0,0.0,0.0,0.0,-0.6871,-0.7156,-0.7355,-0.7542,-0.8155,-0.8848,-0.9547,0.0,0.0,0.0,0.0,0.0,0.0,0.0,-1.2764,-1.268,-1.2588,-1.2489,-1.2408,-1.2397,-1.2352,-1.2051,0.0,0.0,-1.3334,-1.3334,-1.3175,-1.3053,-1.2751,-1.2417,-1.2093,-1.1738,-1.1347,0.0,0.0,0.0,0.0,-0.5101,0.0,0.0,0.0,-0.5385,-0.5279,0.0,-0.5093,0.0,0.0,0.0,0.0,-0.939,-1.0588,0.0,0.0,-1.5579,-1.7552,-1.9868,-2.1206,-2.2782,-2.4451,-2.4899,-2.5107,-2.4829,-2.2426,-1.9735,0.0,0.0,0.0,0.0,0.0,-0.516,-0.3549,-0.2714,-0.2132,-0.1914,-0.2271,-0.2832,-0.3602,-0.5273,-0.6426,-0.7025,-0.7584,-0.809,-0.854,-0.8732,0.0,0.0,0.0,0.0,0.0,0.0,0.0,0.0,0.0,0.0,0.0,0.0,0.0,0.0,0.0,0.0,0.0,0.0,0.0,0.0,-0.8751,0.0,0.0,0.0,0.0,0.0,0.0,0.0,0.0,0.0,-0.5185,-0.5853,-0.6179,-0.6467,-0.6858,0.0,0.0,0.0,0.0,-1.0659,-1.0969,-1.1551,-1.1886,-1.1886,-1.2135,-1.2114,-1.1605,0.0,0.0,-1.0541,-1.0476,-1.0382,-1.0002,-0.9991,-1.0548,-1.2318,-1.2638,-1.2608,-1.2267,-1.2004,-1.1818,-1.1478,-1.0892,-1.043,-0.3378,0.0,0.0,0.0,0.0,-0.5437,-0.5496,-0.5516,-0.529,-0.5161,-0.5095,-0.5095,0.0,0.0,0.0,0.0,0.0,0.0,-1.1839,-1.3244,-1.4553,-1.6028,-1.7688,-1.8931,-2.0242,-2.162,-2.2927,-2.3306,-2.2875,-2.213,-2.0932,-1.9245,0.0,0.0,0.0,0.0,-0.5336,-0.3305,-0.2288,-0.1638,-0.1273,-0.1697,-0.2394,-0.335,-0.4505,-0.5469,-0.6154,-0.6912,-0.7649,-0.8295,-0.8951,0.0,0.0,0.0,0.0,0.0,0.0,0.0,0.0,0.0,0.0,0.0,0.0,0.0,0.0,0.0,0.0,0.0,0.0,0.0,-0.9114,-0.8446,-0.7644,0.0,0.0,0.0,0.0,0.0,0.0,0.0,0.0,0.0,-0.4706,-0.5447,-0.6233,0.0,0.0,-0.7935,-0.8825,-0.9158,-0.9467,-0.9942,-1.007,0.0,-1.0215,-1.0272,-1.0208,-0.9936,-0.9571,-0.9113,-0.8468,-0.8538,-0.862,-0.8372,-0.8502,-0.8798,-0.9132,-1.0031,-1.0649,-1.0707,-1.056,-1.0336,-0.9997,-0.9756,-0.9438,-0.2626,-0.3714,-0.4506,-0.5099,-0.5495,-0.5669,-0.5709,-0.5752,-0.5569,-0.542,-0.5363,-0.5363,-0.5466,-0.5614,-0.6383,0.0,0.0,0.0,-1.1321,-1.2485,-1.3395,-1.4378,-1.5334,-1.6209,-1.7021,-1.7761,-1.8937,-1.9332,-1.9026,-1.9024,-1.8443,-1.7286,0.0,-1.3616,-0.9997,-0.728,-0.485,-0.2725,-0.1687,-0.1006,-0.071,-0.1207,-0.187,-0.2766,-0.3672,-0.456,-0.5418,-0.629,-0.7187,-0.8129,-0.8963,-0.9611,0.0,0.0,0.0,0.0,0.0,0.0,0.0,0.0,0.0,0.0,0.0,-0.9447,-0.9382,0.0,0.0,0.0,-0.9224,-0.907,-0.8569,-0.7951,0.0,0.0,0.0,0.0,0.0,0.0,0.0,-0.3186,-0.3232,-0.3514,-0.4225,-0.5015,-0.5837,-0.6619,-0.6908,-0.7331,-0.8035,0.0,-0.848,-0.8791,-0.8831,-0.8851,-0.8918,-0.8882,-0.8671,-0.8072,-0.7561,-0.7093,-0.6596,-0.6725,-0.6794,-0.6704,-0.6741,-0.6816,-0.6678,-0.7376,-0.8289,-0.8966,-0.9079,-0.8936,-0.8617,-0.8537,-0.8361,-0.1892,-0.2727,-0.392,-0.4809,-0.5463,-0.5761,-0.5915,-0.5988,-0.5999,-0.5952,-0.5821,-0.5854,-0.5861,-0.595,-0.6789,0.0,-0.9459,-0.9759,-1.0501,-1.1638,-1.1946,-1.2367,-1.274,-1.3054,-1.3106,-1.2936,-1.3515,-1.3764,-1.3734,-1.3807,-1.3245,-1.2126,-1.2842,-1.1739,-0.8709,-0.6175,-0.3939,-0.2049,-0.1053,-0.0478,-0.0291,-0.0857,-0.1423,-0.2006,-0.2823,-0.3777,-0.4833,-0.57,-0.674,-0.7998,-0.8854,-0.9667,-1.0374,0.0,0.0,0.0,0.0,0.0,0.0,0.0,0.0,0.0,0.0,0.0,0.0,0.0,0.0,-0.8767,-0.8654,0.0,-0.7902,-0.7328,0.0,0.0,0.0,-0.3779,-0.3058,-0.262,-0.2442,-0.2519,0.0,0.0,-0.415,-0.4726,-0.5321,-0.5897,-0.6338,-0.6729,-0.7052,-0.746,-0.764,-0.771,-0.7848,-0.7999,-0.8002,-0.7783,-0.7269,-0.6339,-0.5732,-0.5361,-0.4989,-0.4991,-0.5027,-0.4916,-0.4846,-0.4885,-0.4846,-0.5137,-0.5613,-0.7045,-0.7601,-0.7712,-0.744,-0.7386,-0.729,-0.0846,-0.2064,-0.2804,-0.3801,-0.5028,-0.558,-0.5817,-0.5859,-0.6024,-0.6074,-0.6045,-0.6237,-0.6455,-0.6725,-0.6958,-0.7494,-0.8242,-0.8138,-0.8493,-0.913,-0.9,-0.8867,-0.8737,-0.8291,-0.7773,-0.7235,-0.7435,-0.7487,-0.7352,-0.7682,-0.7569,-0.6996,-0.6861,-0.6876,-0.707,-0.5046,-0.3386,-0.2178,-0.1372,-0.099,-0.1033,-0.1271,-0.1623,-0.2135,-0.2745,-0.3535,-0.4483,-0.5405,-0.6416,-0.761,-0.8959,-0.9924,-1.0534,-1.1167,0.0,0.0,0.0,0.0,0.0,0.0,0.0,0.0,0.0,-0.9368,-0.9211,0.0,-0.8548,0.0,-0.7991,-0.7394,-0.6837,-0.6135,0.0,0.0,-0.3545,-0.2728,-0.2219,-0.1748,-0.1578,-0.1948,-0.2363,-0.2989,-0.3795,-0.4578,-0.5183,-0.5619,-0.6222,-0.6711,-0.7097,-0.7121,-0.7148,-0.7271,-0.7218,-0.7207,-0.713,-0.6588,-0.5877,-0.515,-0.4573,-0.4076,-0.3608,-0.3583,-0.3638,-0.356,-0.356,-0.356,-0.356,-0.3876,-0.429,-0.4887,-0.5983,-0.688,-0.6666,-0.673,-0.6708,-0.0196,-0.142,-0.1955,-0.2701,-0.3629,-0.4713,-0.5319,-0.5526,-0.5653,-0.5743,-0.5884,-0.6166,-0.644,-0.6672,-0.6675,-0.6917,-0.7248,-0.7156,-0.7115,-0.7166,-0.6805,-0.6133,-0.5173,-0.4138,-0.302,-0.1783,-0.1424,-0.1204,-0.1118,-0.1548,-0.1945,-0.227,-0.2418,-0.3185,-0.4525,-0.3859,-0.3145,-0.2507,-0.2172,-0.2023,-0.2138,-0.2176,-0.236,-0.2608,-0.3075,-0.3717,-0.4507,-0.5284,-0.6285,-0.7532,-0.8726,-0.9719,-1.0419,-1.1031,-1.1234,0.0,0.0,0.0,0.0,0.0,0.0,0.0,0.0,0.0,0.0,0.0,-0.7943,-0.7501,-0.6871,-0.6211,-0.5604,-0.4901,-0.4206,-0.3436,-0.2616,-0.1996,-0.1657,-0.1281,-0.1213,-0.1769,-0.2308,-0.2974,-0.3832,-0.4618,-0.5243,-0.5559,-0.6022,-0.6367,-0.6563,-0.6444,-0.6405,-0.6598,-0.6521,-0.6402,-0.6328,-0.5667,-0.4965,-0.4263,-0.3641,-0.3057,-0.2666,-0.2549,-0.2589,-0.2549,-0.2549,-0.2549,-0.2588,-0.2901,-0.3292,-0.3756,-0.473,-0.5603,-0.5828,-0.5958,-0.5971,0.0252,-0.0808,-0.1261,-0.1613,-0.2012,-0.3401,-0.4354,-0.4916,-0.5039,-0.5275,-0.5544,-0.5751,-0.5964,-0.6139,-0.6097,-0.6142,-0.6322,-0.62,-0.5857,-0.5359,-0.4817,-0.3668,-0.1957,-0.0532,0.1195,0.3092,0.406,0.45,0.4456,0.3976,0.3056,0.1777,0.0668,-0.0625,-0.2185,-0.3154,-0.3568,-0.3439,-0.3628,-0.375,-0.3772,-0.3655,-0.3597,-0.3565,-0.3906,-0.4312,-0.4826,-0.5387,-0.63,-0.7535,-0.8428,-0.9241,-1.0094,-1.0546,-1.0657,0.0,-1.0392,0.0,0.0,0.0,0.0,0.0,0.0,0.0,0.0,-0.7637,-0.712,-0.6151,-0.5623,-0.505,-0.4429,-0.378,-0.3111,-0.2356,-0.186,-0.1493,-0.1336,-0.1061,-0.1178,-0.1847,-0.2473,-0.3175,-0.4029,-0.481,-0.5362,-0.5559,-0.5712,-0.5783,-0.5747,-0.567,-0.5673,-0.5822,-0.5822,-0.5864,-0.5634,-0.509,-0.4423,-0.3563,-0.2978,-0.2354,-0.2004,-0.1926,-0.1926,-0.1926,-0.1965,-0.1926,-0.1887,-0.2238,-0.2588,-0.3015,-0.3785,-0.4523,-0.507,-0.5329,-0.5356,0.0505,-0.0455,-0.0606,-0.0909,-0.1363,-0.1703,-0.2442,-0.348,-0.4162,-0.4707,-0.5129,-0.5171,-0.5243,-0.5271,-0.4863,-0.4782,-0.4901,-0.4004,-0.3457,-0.3253,-0.2282,-0.0986,0.0713,0.2313,0.4176,0.6219,0.7193,0.7636,0.7592,0.6763,0.5479,0.3746,0.1829,-0.0312,-0.267,0.0,0.0,0.0,-0.6889,-0.7004,-0.6698,-0.6518,-0.6256,-0.5963,-0.5749,0.0,-0.5693,-0.6043,-0.6534,-0.7106,-0.8152,0.0,0.0,0.0,0.0,0.0,0.0,0.0,0.0,0.0,0.0,0.0,-0.735,-0.7283,-0.7464,-0.6892,-0.6238,-0.5615,-0.5109,-0.4479,-0.3705,-0.3182,-0.2686,-0.2064,-0.1605,-0.1336,-0.1297,-0.1258,-0.1453,-0.208,-0.2666,-0.3368,-0.4231,-0.489,-0.5362,-0.5559,-0.5476,-0.5282,-0.4971,-0.5165,-0.5359,-0.5395,-0.5556,-0.5595,-0.5398,-0.4854,-0.4265,-0.3526,-0.2901,-0.2393,-0.2004,-0.1926,-0.1926,-0.1926,-0.1887,-0.1887,-0.1926,-0.2081,-0.2431,-0.2785,-0.3359,-0.3995,-0.4793,-0.5215,-0.5441,0.0657,-0.0202,-0.0202,-0.0353,0.0,-0.0758,-0.1143,-0.1787,-0.2723,-0.3434,-0.397,-0.4244,-0.4245,-0.404,-0.3755,-0.3527,-0.3273,-0.2701,-0.2189,-0.171,-0.083,0.0497,0.2188,0.3837,0.5612,0.743,0.8321,0.8584,0.8317,0.7258,0.5653,0.352,0.1292,-0.1201,-0.4082,-0.8088,-0.9949,-0.9685,-1.0269,-1.0389,-1.0003,-0.9622,-0.9074,-0.8309,-0.7707,0.0,0.0,0.0,0.0,0.0,0.0,0.0,0.0,-0.9159,-0.9381,-0.923,-0.903,-0.8825,-0.8451,-0.7909,-0.7513,-0.7304,-0.6976,-0.6821,-0.6994,-0.6317,-0.5759,-0.5378,-0.4784,-0.4114,-0.3329,-0.2901,-0.2393,-0.1845,-0.1649,-0.1608,-0.161,-0.1823,-0.2193,-0.2715,-0.346,-0.4156,-0.4706,-0.5334,-0.5662,-0.561,-0.5401,-0.5087,-0.4545,-0.4584,-0.474,-0.4971,-0.5362,-0.5521,-0.5323,-0.4965,-0.4457,-0.3834,-0.321,-0.2744,-0.2396,-0.2278,-0.2199,-0.2199,-0.2199,-0.2199,-0.2237,-0.2431,-0.2743,-0.3054,-0.3569,-0.4159,-0.4728,-0.4976,-0.517,0.0713,0.0,0.0,0.0,0.0,-0.0252,-0.035,-0.0444,-0.1419,0.0,0.0,-0.319,-0.3175,-0.279,-0.2693,-0.2377,-0.1863,-0.1774,-0.1306,-0.0572,0.014,0.1366,0.2996,0.4554,0.6021,0.7478,0.8046,0.8089,0.7599,0.6354,0.4528,0.2222,-0.0133,-0.3151,-0.6781,-1.1647,-1.3985,-1.3655,-1.3829,-1.3765,-1.3492,-1.2828,-1.1932,-1.0839,-0.981,-0.8902,-0.8078,-0.7519,-0.7246,-0.7292,-0.7377,-0.7607,-0.8015,-0.8264,-0.8351,-0.8377,-0.8245,-0.808,-0.7936,-0.7565,-0.7253,-0.7065,-0.6718,-0.6563,-0.6525,-0.6022,-0.5556,-0.5318,-0.4623,-0.3958,-0.329,-0.2901,-0.247,-0.1924,-0.204,-0.2119,-0.2209,-0.2644,-0.3083,-0.3553,-0.4348,-0.5028,-0.5278,-0.5827,-0.6026,-0.5671,-0.5443,-0.5012,-0.4311,-0.4118,-0.4235,-0.4545,-0.5051,-0.5443,-0.5323,-0.5165,-0.4846,-0.4343,-0.3795,-0.3329,-0.3098,-0.2901,-0.2784,-0.286,-0.2784,-0.2746,-0.2746,-0.3056,-0.3327,-0.3524,-0.407,-0.459,-0.4798,-0.4837,-0.49,0.0577,0.0,0.0,0.0,0.0,-0.005,-0.0202,-0.0452,-0.1214,-0.1721,-0.1955,-0.2003,-0.2072,-0.2013,-0.157,-0.1339,-0.126,-0.0827,-0.0335,0.019,0.0917,0.1932,0.3181,0.4249,0.527,0.6287,0.6231,0.5916,0.5294,0.3822,0.2044,-0.0044,-0.2529,-0.6577,-1.1854,-1.4949,-1.7155,-1.865,-1.7686,-1.709,-1.6959,-1.5998,-1.4981,-1.3958,-1.2375,-1.0978,-0.9885,-0.8941,-0.822,-0.7748,-0.753,-0.7447,-0.7513,-0.7694,-0.7731,-0.7586,-0.7622,-0.7536,-0.7338,-0.6949,-0.6641,-0.6454,-0.6377,-0.6335,-0.6335,-0.6018,-0.5705,-0.5359,-0.4893,-0.4348,-0.3763,-0.3448,-0.3175,-0.294,-0.2938,-0.304,-0.3303,-0.3647,-0.4012,-0.4502,-0.5066,-0.5496,-0.5751,-0.6046,-0.6078,-0.5674,-0.544,-0.501,-0.435,-0.396,-0.396,-0.4194,-0.4696,-0.5085,-0.5359,-0.5279,-0.5201,-0.4927,-0.4657,-0.4421,-0.419,-0.3992,-0.3876,-0.3873,-0.372,-0.3643,-0.3606,-0.38,-0.4029,-0.4226,-0.4616,-0.4993,-0.5162,-0.5084,-0.4961,0.0372,0.0,0.0,0.0,0.0,-0.0152,-0.0353,-0.0656,-0.1289,-0.1526,-0.1477,-0.1477,-0.1385,-0.1296,-0.0897,-0.0651,-0.0555,-0.0294,0.0,0.0386,0.079,0.1505,0.2456,0.315,0.3798,0.433,0.3964,0.3382,0.2582,0.0979,-0.0755,-0.267,-0.5997,-0.986,-1.3806,-1.5949,-1.7862,-1.9679,-1.9559,-1.9478,-1.9442,-1.8527,-1.7349,-1.5956,-1.428,-1.2643,-1.1048,-0.9781,-0.8709,-0.7837,-0.7474,-0.7212,-0.6993,-0.7145,-0.7247,-0.7227,-0.7157,-0.7123,-0.7089,-0.6734,-0.6456,-0.6306,-0.63,-0.63,-0.63,-0.606,-0.5825,-0.5628,-0.5243,-0.489,-0.4501,-0.4229,-0.4053,-0.3949,-0.3989,-0.419,-0.4406,-0.4804,-0.5105,-0.5376,-0.5866,-0.6175,-0.6135,-0.6314,-0.626,-0.5839,-0.5434,-0.4929,-0.4506,-0.4465,-0.4462,-0.4618,-0.5085,-0.5589,-0.5941,-0.6096,-0.6093,-0.5896,-0.5667,-0.547,-0.5237,-0.5043,-0.4885,-0.4771,-0.4657,-0.4579,-0.4499,-0.4616,-0.4771,-0.4851,-0.5126,-0.5323,-0.5312,-0.4922,-0.449,0.0215,0.0,-0.0053,-0.0104,-0.0206,-0.0559,-0.0808,-0.1111,-0.1666,-0.1768,-0.1566,-0.1364,-0.1162,-0.0859,-0.0556,-0.0252,0.0,0.0,0.0147,0.0391,0.0568,0.0931,0.144,0.1783,0.1946,0.1981,0.1392,0.0671,-0.0312,-0.1923,-0.3816,-0.5911,-0.9341,-1.2361,-1.4778,-1.6285,-1.7902,-1.9551,-2.0318,-2.0813,-2.1046,-2.0337,-1.9125,-1.7569,-1.5772,-1.4019,-1.2218,-1.0587,-0.9214,-0.8123,-0.7504,-0.7023,-0.6727,-0.6754,-0.6859,-0.694,-0.6834,-0.682,-0.6881,-0.6712,-0.6518,-0.6409,-0.6399,-0.6399,-0.6359,-0.6195,-0.6006,-0.5915,-0.5592,-0.5368,-0.5202,-0.505,-0.4938,-0.4968,-0.5065,-0.5191,-0.5393,-0.5786,-0.6076,-0.6149,-0.6546,-0.6733,-0.6531,-0.6597,-0.6451,-0.5966,-0.5434,-0.5124,-0.501,-0.5162,-0.5392,-0.5625,-0.5896,-0.6286,-0.6718,-0.7022,-0.7053,-0.6942,-0.6745,-0.6553,-0.636,-0.6167,-0.5935,-0.5783,-0.5628,-0.555,-0.5395,-0.5473,-0.555,-0.5592,-0.5712,-0.5712,-0.5359,-0.4693,-0.4022,0.0219,0.0,-0.0266,-0.0522,-0.0761,-0.1264,-0.1615,-0.1917,-0.2472,-0.2675,-0.2574,-0.1919,-0.1415,-0.1111,-0.0606,-0.0252,0.0,0.0,0.0147,0.0343,0.0336,0.038,0.038,0.0189,-0.0141,-0.0507,-0.1378,-0.2138,-0.2913,-0.4768,-0.7191,-0.9933,-1.1626,-1.3275,-1.5192,-1.6359,-1.7711,-1.9297,-1.978,-2.0556,-2.1611,-2.0958,-2.0098,-1.9193,-1.6896,-1.4996,-1.347,-1.1521,-0.9937,-0.8902,-0.7791,-0.7119,-0.6861,-0.6641,-0.6541,-0.6565,-0.6648,-0.673,-0.6743,-0.6688,-0.6671,-0.6661,-0.6644,-0.6644,-0.6644,-0.6651,-0.6414,-0.6022,-0.587,-0.5858,-0.5793,-0.5771,-0.5788,-0.5874,-0.5933,-0.6071,-0.6151,-0.6398,-0.6581,-0.6719,-0.6908,-0.7034,-0.683,-0.6728,-0.6491,-0.6019,-0.575,-0.5592,-0.5709,-0.6057,-0.6518,-0.6942,-0.7057,-0.7019,-0.7407,-0.7744,-0.7936,-0.7931,-0.7817,-0.7625,-0.751,-0.7288,-0.7026,-0.6903,-0.6696,-0.6458,-0.6426,-0.6444,-0.6384,-0.6155,-0.6168,-0.6205,-0.5473,-0.4654,-0.3943,-0.0329,-0.0756,-0.0847,-0.1035,-0.1314,-0.1867,-0.2221,-0.2522,-0.3026,-0.3278,-0.318,-0.2575,-0.1919,-0.1162,-0.0657,-0.0252,0.0,-0.015,-0.02,-0.01,-0.0587,-0.0824,-0.0871,-0.1483,-0.1988,-0.2536,-0.3469,-0.4477,-0.5693,-0.7707,-0.9826,-1.1615,-1.2532,-1.3538,-1.4735,-1.552,-1.6411,-1.7467,-1.8052,-1.8753,-1.9543,-2.0091,-1.9927,-1.8907,-1.7171,-1.5424,-1.3741,-1.191,-1.0297,-0.9029,-0.803,-0.726,-0.6794,-0.6658,-0.6651,-0.6739,-0.6836,-0.6922,-0.6798,-0.6834,-0.6797,-0.6709,-0.6702,-0.6702,-0.6702,-0.6702,-0.6603,-0.6424,-0.6351,-0.6384,-0.6355,-0.6361,-0.642,-0.6548,-0.6583,-0.6639,-0.6773,-0.683,-0.6906,-0.6959,-0.7051,-0.7041,-0.6889,-0.6715,-0.6451,-0.6181,-0.6025,-0.6025,-0.6138,-0.6486,-0.6945,-0.7407,-0.771,-0.8131,-0.8479,-0.8665,-0.8856,-0.8927,-0.8927,-0.8813,-0.8542,-0.8394,-0.8208,-0.7983,-0.7626,-0.7338,-0.7126,-0.696,-0.6832,-0.6607,-0.6235,-0.6043,-0.5477,-0.4686,-0.3883,-0.1029,-0.1449,-0.1618,-0.184,-0.2168,-0.2672,-0.3025,-0.3379,-0.378,-0.3831,-0.3685,-0.3128,-0.2322,-0.1313,-0.0758,-0.0353,-0.0151,-0.0404,-0.0556,-0.0706,-0.1492,-0.1976,-0.2119,-0.302,-0.3759,-0.4411,-0.5358,-0.6638,-0.8237,-0.9974,-1.1547,-1.2552,-1.2881,-1.3244,-1.3741,-1.4213,-1.4611,-1.514,-1.5836,-1.6419,-1.6968,-1.8017,-1.8549,-1.8309,-1.7013,-1.5466,-1.3838,-1.2072,-1.0471,-0.9082,-0.8182,-0.744,-0.6854,-0.6736,-0.6827,-0.693,-0.7038,-0.7051,-0.699,-0.6947,-0.6896,-0.6837,-0.682,-0.6824,-0.682,-0.6824,-0.682,-0.6778,-0.682,-0.681,-0.6766,-0.6763,-0.6827,-0.692,-0.6943,-0.6991,-0.7078,-0.7095,-0.7092,-0.7095,-0.7095,-0.7021,-0.6839,-0.6678,-0.6485,-0.6305,-0.6257,-0.6335,-0.6412,-0.6676,-0.7053,-0.7518,-0.8131,-0.8708,-0.9246,-0.9468,-0.962,-0.9733,-0.9771,-0.9576,-0.9382,-0.9306,-0.9231,-0.8874,-0.8542,-0.8291,-0.8079,-0.7784,-0.726,-0.6901,-0.6513,-0.6141,-0.5666,-0.4866,-0.4033,-0.169,-0.2024,-0.2495,-0.303,-0.3528,-0.3781,-0.4232,-0.4634,-0.4734,-0.4485,-0.3932,-0.3432,-0.2575,-0.1566,-0.101,-0.0657,-0.0455,-0.0707,-0.096,-0.1313,-0.2267,-0.2869,-0.3219,-0.4468,-0.5461,-0.6106,-0.7021,-0.8704,-1.0906,-1.148,-1.212,-1.2963,-1.2624,-1.2387,-1.2351,-1.2299,-1.2349,-1.2484,-1.3015,-1.3623,-1.4099,-1.4434,-1.5595,-1.7057,-1.6357,-1.505,-1.3864,-1.1992,-1.0393,-0.9308,-0.825,-0.748,-0.7047,-0.6925,-0.6937,-0.7061,-0.7088,-0.7095,-0.7082,-0.7075,-0.7065,-0.7065,-0.7041,-0.7065,-0.7034,-0.7034,-0.7034,-0.7065,-0.7038,-0.7041,-0.6896,-0.6915,-0.6927,-0.7048,-0.7078,-0.7085,-0.7092,-0.7095,-0.7095,-0.7095,-0.7095,-0.6994,-0.677,-0.6705,-0.6549,-0.6395,-0.6306,-0.6335,-0.6525,-0.6749,-0.7096,-0.7557,-0.7978,-0.8479,-0.9354,-0.9695,-1.0067,-1.0255,-1.018,-1.0175,-1.0105,-0.9992,-0.9879,-0.9755,-0.9427,-0.9197,-0.9046,-0.8636,-0.7995,-0.7509,-0.7118,-0.6664,-0.6103,-0.5259,-0.4429,-0.3001,-0.3559,-0.394,-0.4284,-0.4636,-0.4885,-0.5135,-0.5284,-0.5286,-0.4832,-0.4033,-0.3432,-0.2625,-0.1566,-0.1414,-0.1162,-0.096,-0.1363,-0.1817,-0.2322,-0.333,-0.4081,-0.4578,-0.5532,-0.6365,-0.7115,-0.7851,-0.9323,-1.1371,-1.1951,-1.2281,-1.2446,-1.1965,-1.1317,-1.0582,-1.0014,-0.9673,-0.9528,-0.9836,-1.0239,-1.0732,-1.1348,-1.2263,-1.3283,-1.4033,-1.3905,-1.2946,-1.1541,-1.0222,-0.9016,-0.8233,-0.7608,-0.7146,-0.7031,-0.7041,-0.7088,-0.7095,-0.7095,-0.7095,-0.7095,-0.7095,-0.7095,-0.7095,-0.7095,-0.7095,-0.7095,-0.7095,-0.7095,-0.7095,-0.7065,-0.7041,-0.7021,-0.7038,-0.7082,-0.7095,-0.7095,-0.7095,-0.7095,-0.7095,-0.7095,-0.7095,-0.7011,-0.6842,-0.6763,-0.662,-0.6434,-0.6358,-0.6349,-0.6412,-0.6563,-0.6868,-0.7169,-0.7518,-0.7983,-0.8665,-0.9387,-0.9916,-1.0331,-1.0519,-1.0625,-1.0625,-1.0625,-1.0513,-1.0484,-1.0265,-0.9912,-0.971,-0.901,-0.8429,-0.7977,-0.7585,-0.7279,-0.6632,-0.5905,-0.5047,-0.4378,-0.5035,-0.5233,-0.5489,-0.5741,-0.5889,-0.5987,-0.5989,-0.5787,-0.5135,-0.4131,-0.3481,-0.2676,-0.1869,-0.1818,-0.1918,-0.1867,-0.2218,-0.2722,-0.3377,-0.4435,-0.5138,-0.5682,-0.6384,-0.7135,-0.7779,-0.8577,-0.9867,-1.1292,-1.1834,-1.1927,-1.1727,-1.0877,-0.9784,-0.8625,-0.7593,-0.6888,-0.6472,-0.6461,-0.6719,-0.7297,-0.8153,-0.8959,-0.9742,-1.1047,-1.1858,-1.183,-1.0831,-0.9776,-0.879,-0.8115,-0.7567,-0.7173,-0.7095,-0.7095,-0.7095,-0.7095,-0.7095,-0.7095,-0.7095,-0.7095,-0.7095,-0.7095,-0.7095,-0.7095,-0.7095,-0.7095,-0.7095,-0.7095,-0.7095,-0.7095,-0.7095,-0.7095,-0.7095,-0.7095,-0.7095,-0.7095,-0.7095,-0.7095,-0.7095,-0.7095,-0.7031,-0.691,-0.6841,-0.6692,-0.6505,-0.6422,-0.6364,-0.631,-0.6412,-0.6563,-0.6749,-0.7019,-0.7446,-0.7978,-0.8585,-0.9349,-0.9803,-1.0255,-1.055,-1.0887,-1.0962,-1.1099,-1.1137,-1.0961,-1.0628,-1.0105,-0.9435,-0.8914,-0.8467,-0.823,-0.7987,-0.7315,-0.6593,-0.585,-0.5889,-0.6337,-0.6387,-0.6487,-0.6742,-0.6742,-0.6795,-0.6642,-0.6242,-0.5386,-0.4331,-0.353,-0.2727,-0.2171,-0.2221,-0.2622,-0.2973,-0.3123,-0.3627,-0.4431,-0.5436,-0.6089,-0.6434,-0.7092,-0.7643,-0.8038,-0.9278,-1.0314,-1.1047,-1.1091,-1.089,-1.0293,-0.9296,-0.8007,-0.6423,-0.5148,-0.397,-0.3283,-0.3058,-0.3264,-0.3819,-0.4844,-0.5924,-0.6995,-0.7694,-0.89,-1.0702,-0.9783,-0.8996,-0.8484,-0.7881,-0.7408,-0.7139,-0.7095,-0.7095,-0.7095,-0.7095,-0.7095,-0.7095,-0.7095,-0.7095,-0.7095,-0.7095,-0.7095,-0.7095,-0.7095,-0.7095,-0.7095,-0.7095,-0.7095,-0.7095,-0.7095,-0.7095,-0.7095,-0.7095,-0.7095,-0.7095,-0.7095,-0.7095,-0.7095,-0.7095,-0.7038,-0.6937,-0.6869,-0.6797,-0.66,-0.6535,-0.648,-0.6395,-0.6417,-0.6443,-0.6595,-0.6808,-0.7091,-0.7401,-0.7748,-0.8513,-0.9241,-0.9652,-1.003,-1.0475,-1.07,-1.1111,-1.1218,-1.1332,-1.1037,-1.0735,-1.0114,-0.9727,-0.9328,-0.9063,-0.8755,-0.8196,-0.7532,-0.6787,-0.6639,-0.6936,-0.6936,-0.7092,-0.7344,-0.7347,-0.7241,-0.7042,-0.6489,-0.5584,-0.4429,-0.3581,-0.2727,-0.2223,-0.2271,-0.2674,-0.3228,-0.3781,-0.4433,-0.5233,-0.5937,-0.6537,-0.6939,-0.7394,-0.7839,-0.8336,-0.9034,-0.9669,-1.0006,-0.9908,-0.9612,-0.9114,-0.7865,-0.6365,-0.4766,-0.3061,-0.1702,-0.0748,-0.0197,-0.029,-0.0948,-0.1997,-0.3149,-0.4361,-0.5356,-0.6539,-0.7742,-0.8233,-0.8328,-0.8025,-0.768,-0.737,-0.7143,-0.7095,-0.7095,-0.7095,-0.7095,-0.7095,-0.7095,-0.7095,-0.7095,-0.7095,-0.7095,-0.7095,-0.7095,-0.7095,-0.7095,-0.7095,-0.7095,-0.7095,-0.7095,-0.7095,-0.7095,-0.7095,-0.7095,-0.7095,-0.7095,-0.7095,-0.7095,-0.7095,-0.7095,-0.7071,-0.7024,-0.6964,-0.6852,-0.6787,-0.6688,-0.6641,-0.6607,-0.6613,-0.6684,-0.6884,-0.69,-0.7,-0.7501,-0.7813,-0.8228,-0.8765,-0.9156,-0.9544,-0.9986,-1.0475,-1.0925,-1.1378,-1.1482,-1.142,-1.1146,-1.0825,-1.0413,-1.0227,-0.9997,-0.9613,-0.915,-0.8521,-0.7811,-0.7341,-0.7487,-0.7487,-0.759,-0.7746,-0.7746,-0.7593,-0.7291,-0.6686,-0.5784,-0.4682,-0.363,-0.2828,-0.2323,-0.2321,-0.2674,-0.3278,-0.3934,-0.4638,-0.5336,-0.6087,-0.6686,-0.7135,-0.7388,-0.759,-0.7935,-0.8283,-0.8528,-0.8669,-0.8524,-0.8223,-0.7574,-0.6473,-0.497,-0.3267,-0.1509,-0.005,0.1057,0.1694,0.1767,0.1154,0.0236,-0.1015,-0.2354,-0.3497,-0.4645,-0.5808,-0.6782,-0.736,-0.7496,-0.7415,-0.7279,-0.7095,-0.7095,-0.7095,-0.7095,-0.7095,-0.7095,-0.7095,-0.7095,-0.7095,-0.7095,-0.7095,-0.7095,-0.7095,-0.7095,-0.7095,-0.7095,-0.7095,-0.7095,-0.7095,-0.7095,-0.7095,-0.7095,-0.7095,-0.7095,-0.7095,-0.7095,-0.7095,-0.7095,-0.7095,-0.7095,-0.7071,-0.7034,-0.6937,-0.6932,-0.6929,-0.6909,-0.6892,-0.694,-0.712,-0.7315,-0.7397,-0.7615,-0.7877,-0.8007,-0.8073,-0.8346,-0.8659,-0.9037,-0.9501,-1.003,-1.0519,-1.1335,-1.1659,-1.1732,-1.1502,-1.1289,-1.0983,-1.0931,-1.0793,-1.0378,-0.9902,-0.9532,-0.8916,-0.7988,-0.7988,-0.7988,-0.7992,-0.7992,-0.7988,-0.7842,-0.7543,-0.6789,-0.5937,-0.5037,-0.3783,-0.2927,-0.2472,-0.227,-0.2521,-0.3124,-0.358,-0.4133,-0.4885,-0.5684,-0.6437,-0.6989,-0.7039,-0.7089,-0.7138,-0.7138,-0.7135,-0.7232,-0.7083,-0.6684,-0.5979,-0.5077,-0.3772,-0.2065,-0.0353,0.1008,0.2067,0.2822,0.2943,0.2596,0.1781,0.0566,-0.0971,-0.2043,-0.3281,-0.4764,-0.5704,-0.6361,-0.6966,-0.7143,-0.7139,-0.7095,-0.7095,-0.7095,-0.7095,-0.7095,-0.7095,-0.7095,-0.7095,-0.7095,-0.7095,-0.7095,-0.7095,-0.7095,-0.7095,-0.7095,-0.7095,-0.7095,-0.7095,-0.7095,-0.7122,-0.7129,-0.7129,-0.7125,-0.7102,-0.7095,-0.7095,-0.7095,-0.7095,-0.7095,-0.7095,-0.7139,-0.7126,-0.7068,-0.7083,-0.7204,-0.731,-0.7326,-0.7472,-0.7628,-0.7866,-0.8172,-0.8489,-0.8837,-0.8886,-0.891,-0.8911,-0.8989,-0.9019,-0.9365,-0.9879,-1.0519,-1.1298,-1.1853,-1.1912,-1.1877,-1.1702,-1.1545,-1.1449,-1.1255,-1.1006,-1.0688,-1.0315,-0.9954,-0.8283,-0.8283,-0.8088,-0.8088,-0.8233,-0.8088,-0.7988,-0.7789,-0.7042,-0.6192,-0.514,-0.3981,-0.3025,-0.2118,-0.1918,-0.2019,-0.237,-0.2723,-0.3379,-0.4183,-0.4686,-0.5589,-0.6387,-0.6389,-0.6289,-0.6239,-0.6087,-0.6034,-0.5987,-0.5634,-0.5231,-0.478,-0.3674,-0.2569,-0.1311,0.0151,0.1412,0.237,0.3126,0.3399,0.3147,0.2488,0.1542,0.033,-0.1019,-0.2431,-0.3983,-0.558,-0.6619,-0.7058,-0.7095,-0.7095,-0.7105,-0.7105,-0.7105,-0.7095,-0.7095,-0.7095,-0.7095,-0.7095,-0.7095,-0.7095,-0.7095,-0.7095,-0.7095,-0.7095,-0.7095,-0.7095,-0.7095,-0.7098,-0.7115,-0.7244,-0.7343,-0.7428,-0.725,-0.7119,-0.7105,-0.7095,-0.7095,-0.7095,-0.7095,-0.7139,-0.7187,-0.7316,-0.7394,-0.7442,-0.7683,-0.8016,-0.8057,-0.8298,-0.8615,-0.8973,-0.9309,-0.9559,-0.9798,-0.9799,-0.9781,-0.9712,-0.9592,-0.9334,-0.9698,-1.0099,-1.0812,-1.157,-1.1987,-1.2124,-1.2158,-1.2088,-1.1998,-1.1837,-1.1748,-1.1571,-1.1396,-1.1086,-1.0851,-0.868,-0.8581,-0.8535,-0.8584,-0.8733,-0.8684,-0.8634,-0.8336,-0.7637,-0.6689,-0.5639,-0.4431,-0.3324,-0.2321,-0.1969,-0.1869,-0.2019,-0.227,-0.2875,-0.3632,-0.4237,-0.4989,-0.5689,-0.5741,-0.5491,-0.5138,-0.5037,-0.4784,-0.4533,-0.4133,-0.383,-0.3426,-0.2571,-0.1664,-0.0858,0.0252,0.1312,0.2169,0.2821,0.3099,0.3095,0.2549,0.1698,0.062,-0.0706,-0.2153,-0.4202,-0.5882,-0.689,-0.7153,-0.7247,-0.7305,-0.7241,-0.7238,-0.7166,-0.7109,-0.7095,-0.7095,-0.7095,-0.7095,-0.7095,-0.7095,-0.7095,-0.7095,-0.7095,-0.7095,-0.7095,-0.7095,-0.7095,-0.7129,-0.7251,-0.7377,-0.7495,-0.7546,-0.7438,-0.7305,-0.7248,-0.718,-0.7102,-0.7139,-0.7187,-0.7279,-0.7279,-0.7588,-0.7808,-0.7977,-0.8404,-0.8663,-0.8913,-0.9283,-0.9666,-1.0101,-1.0469,-1.0757,-1.1043,-1.1149,-1.0985,-1.0863,-1.0549,-1.0188,-1.0127,-1.0489,-1.0993,-1.1632,-1.2009,-1.2268,-1.2268,-1.2268,-1.2215,-1.2125,-1.215,-1.2105,-1.1927,-1.179,-1.1562,-0.913,-0.8977,-0.9183,-0.9331,-0.943,-0.9575,-0.9525,-0.9179,-0.8474,-0.7478,-0.6384,-0.5081,-0.3929,-0.2826,-0.2272,-0.2022,-0.2021,-0.227,-0.2825,-0.3531,-0.4187,-0.4889,-0.5188,-0.5087,-0.4686,-0.4183,-0.3932,-0.358,-0.3228,-0.2825,-0.2573,-0.2269,-0.1765,-0.116,-0.0505,0.0151,0.0909,0.1665,0.2069,0.2355,0.2425,0.2022,0.1323,0.0339,-0.115,-0.2903,-0.4843,-0.6269,-0.7042,-0.7428,-0.7539,-0.7492,-0.7433,-0.7366,-0.7288,-0.7129,-0.7095,-0.7095,-0.7095,-0.7095,-0.7095,-0.7095,-0.7095,-0.7095,-0.7095,-0.7095,-0.7095,-0.7095,-0.7109,-0.722,-0.7421,-0.7553,-0.7634,-0.7672,-0.7645,-0.755,-0.7428,-0.7268,-0.716,-0.7143,-0.737,-0.7507,-0.768,-0.7984,-0.8372,-0.8767,-0.9161,-0.9593,-0.9937,-1.0328,-1.0799,-1.1262,-1.1649,-1.1966,-1.2242,-1.2523,-1.2296,-1.2082,-1.1699,-1.1343,-1.0865,-1.1021,-1.1272,-1.1626,-1.1892,-1.2083,-1.2114,-1.2157,-1.2194,-1.2231,-1.212,-1.2291,-1.2411,-1.2322,-1.2177,-0.9916,-1.0064,-0.9871,-1.0068,-1.0413,-1.031,-1.0216,-1.0064,-0.9316,-0.8269,-0.6974,-0.5832,-0.4529,-0.3126,-0.2623,-0.222,-0.217,-0.2471,-0.2976,-0.4135,-0.474,-0.4937,-0.4887,-0.4585,-0.4083,-0.3629,-0.3025,-0.2622,-0.2269,-0.1867,-0.1515,-0.1414,-0.1009,-0.0606,-0.0353,0.0101,0.0606,0.106,0.1313,0.1562,0.1655,0.1252,0.0649,-0.0198,-0.2157,-0.3957,-0.5403,-0.6505,-0.7215,-0.7563,-0.7645,-0.757,-0.7441,-0.739,-0.7312,-0.7152,-0.7098,-0.7095,-0.7095,-0.7095,-0.7095,-0.7095,-0.7095,-0.7095,-0.7095,-0.7105,-0.7105,-0.7122,-0.7251,-0.7424,-0.7645,-0.7733,-0.7807,-0.781,-0.7773,-0.7746,-0.7678,-0.7475,-0.7372,-0.7412,-0.751,-0.768,-0.8201,-0.8556,-0.899,-0.9506,-1.0024,-1.0501,-1.0933,-1.1365,-1.1752,-1.2229,-1.2491,-1.2753,-1.2966,-1.316,-1.3023,-1.2825,-1.255,-1.2175,-1.1721,-1.1334,-1.1455,-1.1596,-1.1706,-1.1837,-1.1908,-1.1818,-1.1824,-1.1935,-1.2079,-1.2288,-1.2452,-1.2561,-1.2785,-1.0703,-1.0949,-1.1096,-1.1296,-1.1536,-1.1536,-1.1389,-1.1047,-1.0453,-0.9312,-0.7922,-0.6828,-0.5527,-0.4126,-0.3478,-0.3077,-0.3126,-0.3525,-0.413,-0.4985,-0.5489,-0.5589,-0.5288,-0.4736,-0.4183,-0.3327,-0.2572,-0.2018,-0.1564,-0.1161,-0.0859,-0.0808,-0.0404,-0.0252,-0.0202,0.005,0.0303,0.0556,0.0606,0.0707,0.0757,0.0202,-0.0756,-0.1762,-0.3589,-0.5125,-0.6025,-0.6896,-0.7472,-0.7752,-0.7841,-0.7736,-0.759,-0.7512,-0.74,-0.7275,-0.7122,-0.7102,-0.7095,-0.7095,-0.7095,-0.7098,-0.7098,-0.7187,-0.7224,-0.7251,-0.7292,-0.735,-0.7444,-0.7573,-0.7784,-0.7843,-0.7911,-0.7944,-0.7917,-0.7843,-0.7787,-0.76,-0.744,-0.7568,-0.7731,-0.8172,-0.8636,-0.9209,-0.9946,-1.0593,-1.0977,-1.1413,-1.1972,-1.2406,-1.2662,-1.3003,-1.3222,-1.344,-1.3616,-1.3649,-1.3552,-1.3361,-1.3097,-1.2711,-1.2245,-1.1841,-1.1534,-1.1565,-1.1568,-1.1626,-1.1657,-1.1546,-1.1465,-1.1639,-1.184,-1.219,-1.2486,-1.266,-1.2938,-1.1585,-1.1922,-1.2414,-1.2657,-1.271,-1.2905,-1.271,-1.217,-1.1634,-1.0449,-0.9019,-0.7872,-0.6625,-0.5479,-0.4634,-0.4334,-0.4483,-0.4933,-0.5484,-0.5787,-0.6237,-0.6239,-0.5939,-0.5338,-0.4485,-0.3077,-0.237,-0.1766,-0.1161,-0.0657,-0.0404,-0.0303,-0.0151,0.0,0.0,-0.005,0.0,0.0101,-0.0151,-0.0353,-0.0505,-0.116,-0.2217,-0.3624,-0.4874,-0.5864,-0.6548,-0.717,-0.7686,-0.7988,-0.7988,-0.7917,-0.7803,-0.7709,-0.7563,-0.7414,-0.7275,-0.7207,-0.7204,-0.7193,-0.7193,-0.7132,-0.7173,-0.7275,-0.7377,-0.7411,-0.7455,-0.7536,-0.7614,-0.7692,-0.7834,-0.7894,-0.7965,-0.7985,-0.7988,-0.7928,-0.7834,-0.7634,-0.7615,-0.7748,-0.8031,-0.8468,-0.9283,-0.9985,-1.0852,-1.1634,-1.1935,-1.232,-1.2881,-1.3222,-1.3349,-1.3525,-1.3652,-1.3695,-1.387,-1.3913,-1.3842,-1.3728,-1.3487,-1.3069,-1.2619,-1.2101,-1.1624,-1.1442,-1.1439,-1.1284,-1.113,-1.0962,-1.0991,-1.1254,-1.1516,-1.1823,-1.2234,-1.2691,-1.293,-1.2748,-1.3227,-1.3516,-1.3763,-1.3962,-1.401,-1.3709,-1.3173,-1.2462,-1.1429,-1.0047,-0.8772,-0.7577,-0.6631,-0.5937,-0.5691,-0.5787,-0.6137,-0.6387,-0.6639,-0.6889,-0.6836,-0.6289,-0.5787,-0.4887,-0.3781,-0.2723,-0.1766,-0.101,-0.0353,-0.0202,-0.0101,-0.0101,0.0,0.0,-0.0202,-0.0505,-0.0656,-0.111,-0.1513,-0.2067,-0.277,-0.3623,-0.4981,-0.5932,-0.6534,-0.6986,-0.7391,-0.7746,-0.7992,-0.7988,-0.7971,-0.7917,-0.7851,-0.7716,-0.7567,-0.7417,-0.7333,-0.7333,-0.7336,-0.7381,-0.736,-0.7424,-0.7502,-0.755,-0.7563,-0.7597,-0.7641,-0.7733,-0.7838,-0.7934,-0.7971,-0.7982,-0.7988,-0.7985,-0.7975,-0.7943,-0.789,-0.7894,-0.8088,-0.8413,-0.8894,-0.9806,-1.0674,-1.1456,-1.2149,-1.2577,-1.2924,-1.3392,-1.361,-1.3695,-1.3828,-1.3997,-1.4039,-1.4088,-1.4046,-1.4006,-1.3909,-1.3697,-1.3313,-1.2799,-1.2149,-1.1719,-1.1205,-1.0738,-1.0393,-1.0295,-1.0248,-1.0399,-1.0515,-1.0971,-1.1416,-1.1747,-1.204,-1.2385,-1.3624,-1.4148,-1.44,-1.4592,-1.4688,-1.4736,-1.4394,-1.3859,-1.3227,-1.2257,-1.0984,-0.9756,-0.8718,-0.7875,-0.7282,-0.7033,-0.7132,-0.7484,-0.7534,-0.754,-0.754,-0.7238,-0.6639,-0.6087,-0.5087,-0.4083,-0.3025,-0.2118,-0.1263,-0.0707,-0.0454,-0.0404,-0.0404,-0.0404,-0.0455,-0.0707,-0.106,-0.1463,-0.2117,-0.2871,-0.3725,-0.4626,-0.5729,-0.6329,-0.6883,-0.7335,-0.754,-0.769,-0.7839,-0.7988,-0.7988,-0.7988,-0.7968,-0.7917,-0.7862,-0.7716,-0.7573,-0.7489,-0.7489,-0.7489,-0.7535,-0.7495,-0.757,-0.7634,-0.7685,-0.7712,-0.774,-0.7818,-0.7862,-0.7907,-0.7978,-0.7988,-0.7988,-0.7988,-0.7988,-0.7988,-0.7991,-0.8021,-0.8219,-0.8482,-0.8878,-0.9504,-1.0463,-1.1284,-1.2057,-1.2662,-1.3179,-1.3525,-1.3864,-1.3913,-1.3913,-1.3997,-1.4088,-1.4088,-1.4088,-1.4088,-1.4088,-1.4039,-1.3779,-1.3398,-1.279,-1.2046,-1.1219,-1.0524,-1.0092,-0.9663,-0.9472,-0.9461,-0.9652,-0.9851,-1.0223,-1.0647,-1.1075,-1.1405,-1.1697,-1.4309,-1.4797,-1.5041,-1.5136,-1.5197,-1.5201,-1.4927,-1.4442,-1.3902,-1.2985,-1.178,-1.0792,-0.9908,-0.9217,-0.8768,-0.8517,-0.852,-0.8924,-0.873,-0.8382,-0.8184,-0.7736,-0.6989,-0.6339,-0.5589,-0.4736,-0.3977,-0.2923,-0.1767,-0.1212,-0.1009,-0.0959,-0.0959,-0.101,-0.1111,-0.1414,-0.1817,-0.2571,-0.3373,-0.4325,-0.5672,-0.6974,-0.7829,-0.7978,-0.8233,-0.8333,-0.829,-0.8137,-0.8088,-0.8088,-0.8038,-0.7988,-0.7988,-0.7988,-0.7931,-0.7862,-0.7723,-0.7658,-0.7641,-0.7641,-0.7638,-0.7641,-0.7675,-0.7753,-0.7814,-0.7868,-0.7902,-0.7961,-0.7982,-0.7975,-0.7988,-0.7988,-0.7988,-0.7988,-0.7988,-0.8031,-0.8047,-0.8199,-0.8586,-0.8953,-0.936,-1.011,-1.1061,-1.1843,-1.2619,-1.3045,-1.3568,-1.3695,-1.3997,-1.3997,-1.4039,-1.4046,-1.4088,-1.4088,-1.4088,-1.4088,-1.4088,-1.4088,-1.3737,-1.3307,-1.2577,-1.1843,-1.1016,-1.0201,-0.9504,-0.9092,-0.8903,-0.8746,-0.8928,-0.9156,-0.9484,-0.9781,-1.0103,-1.0452,-1.0747,-1.4689,-1.502,-1.5266,-1.5358,-1.5398,-1.557,-1.5452,-1.4933,-1.4442,-1.3624,-1.2608,-1.178,-1.1096,-1.0551,-1.0256,-1.0109,-1.0064,-0.9965,-0.9813,-0.9414,-0.897,-0.8375,-0.7584,-0.6939,-0.6487,-0.5784,-0.5279,-0.3775,-0.282,-0.2167,-0.1664,-0.1764,-0.1865,-0.1714,-0.2218,-0.2722,-0.3126,-0.4126,-0.5177,-0.657,-0.8107,-0.9156,-0.9456,-0.946,-0.9365,-0.932,-0.908,-0.8733,-0.8428,-0.8336,-0.8137,-0.7988,-0.7988,-0.7988,-0.7985,-0.7924,-0.7885,-0.7787,-0.779,-0.779,-0.7787,-0.7811,-0.7882,-0.7928,-0.7934,-0.7938,-0.7951,-0.7975,-0.7988,-0.7988,-0.7988,-0.7988,-0.7988,-0.7988,-0.7988,-0.7988,-0.8018,-0.8364,-0.8758,-0.9531,-1.0027,-1.0768,-1.1641,-1.2426,-1.313,-1.3519,-1.3877,-1.4037,-1.4142,-1.4188,-1.4175,-1.4195,-1.4102,-1.4088,-1.4088,-1.4088,-1.4088,-1.4088,-1.3737,-1.3264,-1.2662,-1.1929,-1.0852,-1.0082,-0.9308,-0.8692,-0.8517,-0.8422,-0.8328,-0.8455,-0.878,-0.894,-0.9035,-0.9375,-0.9772,-1.4963,-1.5239,-1.5178,-1.5251,-1.5404,-1.5531,-1.5497,-1.5289,-1.4933,-1.425,-1.3431,-1.2743,-1.216,-1.1731,-1.1541,-1.1536,-1.1536,-1.1389,-1.1047,-1.0498,-0.9957,-0.9312,-0.857,-0.7975,-0.7478,-0.7319,-0.7068,-0.6857,-0.5409,-0.4368,-0.3623,-0.3671,-0.3772,-0.3971,-0.4121,-0.4574,-0.5325,-0.6418,-0.7806,-0.9243,-1.0186,-1.0837,-1.1086,-1.0939,-1.0694,-1.0404,-1.0015,-0.9418,-0.892,-0.8676,-0.8382,-0.8137,-0.8038,-0.7988,-0.7988,-0.7985,-0.7934,-0.7894,-0.794,-0.7891,-0.7933,-0.7943,-0.7951,-0.7975,-0.7988,-0.7988,-0.7988,-0.7988,-0.7988,-0.7988,-0.7988,-0.7988,-0.7988,-0.7988,-0.7988,-0.8038,-0.8131,-0.8541,-0.9018,-0.986,-1.0734,-1.1548,-1.2307,-1.3064,-1.373,-1.406,-1.4348,-1.4519,-1.4522,-1.4469,-1.4429,-1.4362,-1.4229,-1.4088,-1.4088,-1.4088,-1.4088,-1.4046,-1.3864,-1.3392,-1.2881,-1.2106,-1.1154,-1.0207,-0.9488,-0.8925,-0.8376,-0.8101,-0.8034,-0.8049,-0.8113,-0.8241,-0.8412,-0.8544,-0.8899,-1.5135,-1.5257,-1.5022,-1.5023,-1.5291,-1.5357,-1.5425,-1.5486,-1.5267,-1.4783,-1.4148,-1.3607,-1.3178,-1.2948,-1.2899,-1.2845,-1.2856,-1.2802,-1.236,-1.177,-1.1228,-1.0578,-1.0034,-0.9493,-0.9288,-0.8985,-0.9469,-0.9502,-0.92,-0.8364,-0.7381,-0.6216,-0.6357,-0.6506,-0.6708,-0.7152,-0.7845,-0.8981,-1.0467,-1.1556,-1.2101,-1.2398,-1.2506,-1.2311,-1.197,-1.1536,-1.1145,-1.0355,-0.9661,-0.9171,-0.868,-0.8386,-0.8187,-0.8038,-0.7988,-0.7988,-0.7968,-0.7968,-0.7968,-0.7968,-0.7988,-0.7988,-0.7988,-0.7988,-0.7988,-0.7988,-0.7988,-0.7988,-0.7988,-0.7988,-0.7988,-0.7988,-0.7988,-0.7988,-0.7988,-0.8038,-0.8134,-0.8555,-0.928,-1.0219,-1.1173,-1.2289,-1.3093,-1.3791,-1.4305,-1.4611,-1.4822,-1.4983,-1.4941,-1.477,-1.4636,-1.4499,-1.4346,-1.4202,-1.4102,-1.4095,-1.4095,-1.3997,-1.3822,-1.3561,-1.3094,-1.2491,-1.1671,-1.0727,-0.982,-0.9078,-0.8548,-0.8113,-0.7724,-0.7676,-0.7628,-0.776,-0.7848,-0.7981,-0.8113,-1.5022,-1.5015,-1.4676,-1.4743,-1.5068,-1.5284,-1.5425,-1.5534,-1.5493,-1.5159,-1.464,-1.4346,-1.4148,-1.4106,-1.4064,-1.4058,-1.41,-1.3908,-1.3565,-1.3221,-1.278,-1.228,-1.1881,-1.1726,-1.1721,-1.1764,-1.2142,-1.2609,-1.2988,-1.2971,-1.1133,-0.9105,-0.9392,-0.9298,-0.9494,-1.0032,-1.0728,-1.1672,-1.2764,-1.3312,-1.3607,-1.3859,-1.3908,-1.3667,-1.3227,-1.2743,-1.2273,-1.1336,-1.0507,-0.9965,-0.9274,-0.873,-0.8485,-0.8233,-0.8137,-0.8134,-0.8088,-0.8088,-0.8088,-0.8038,-0.7988,-0.7988,-0.7988,-0.7988,-0.7988,-0.7988,-0.7988,-0.7988,-0.7988,-0.7988,-0.7988,-0.7988,-0.7988,-0.7988,-0.8038,-0.8137,-0.8287,-0.863,-0.941,-1.0502,-1.1546,-1.2555,-1.3456,-1.4092,-1.4689,-1.5002,-1.508,-1.5237,-1.5144,-1.4972,-1.4785,-1.4601,-1.4469,-1.4283,-1.4106,-1.4024,-1.3919,-1.387,-1.3779,-1.361,-1.3349,-1.2705,-1.2106,-1.1327,-1.0419,-0.9545,-0.8719,-0.8245,-0.7808,-0.7363,-0.7228,-0.7408,-0.7452,-0.754,-0.772,-1.5015,-1.4981,-1.4643,-1.4696,-1.5035,-1.5316,-1.5511,-1.5656,-1.5689,-1.554,-1.5166,-1.4927,-1.4783,-1.4783,-1.479,-1.479,-1.479,-1.4688,-1.458,-1.4472,-1.4172,-1.407,-1.3998,-1.413,-1.4267,-1.4642,-1.5117,-1.5496,-1.596,-1.6336,-1.6007,-1.4551,-1.3301,-1.2886,-1.3041,-1.3084,-1.3634,-1.3998,-1.4453,-1.4758,-1.4765,-1.4783,-1.4742,-1.464,-1.4346,-1.3811,-1.3281,-1.2462,-1.1585,-1.0801,-1.0015,-0.9422,-0.8981,-0.868,-0.8531,-0.8432,-0.8386,-0.8287,-0.8187,-0.8088,-0.7988,-0.7988,-0.7988,-0.7988,-0.7988,-0.7988,-0.7988,-0.7988,-0.7988,-0.7988,-0.7988,-0.7988,-0.7988,-0.7988,-0.8038,-0.8184,-0.8482,-0.8829,-0.962,-1.0752,-1.1629,-1.2479,-1.3403,-1.4268,-1.4877,-1.5384,-1.5431,-1.5425,-1.5292,-1.5107,-1.4845,-1.4488,-1.4294,-1.4062,-1.3849,-1.3733,-1.3665,-1.3652,-1.3652,-1.3519,-1.3349,-1.3179,-1.2577,-1.18,-1.0933,-0.998,-0.9113,-0.842,-0.7852,-0.7363,-0.7143,-0.7139,-0.7187,-0.7231,-0.7363,-1.4955,-1.4823,-1.4703,-1.477,-1.5035,-1.5271,-1.5565,-1.5798,-1.5778,-1.573,-1.5594,-1.5458,-1.5417,-1.5417,-1.556,-1.5553,-1.5601,-1.5553,-1.5635,-1.5629,-1.571,-1.5886,-1.6156,-1.6472,-1.6786,-1.7407,-1.7871,-1.8241,-1.8556,-1.8856,-1.8794,-1.841,-1.7763,-1.6897,-1.5974,-1.6176,-1.6284,-1.6203,-1.6035,-1.5859,-1.5771,-1.5547,-1.5363,-1.5267,-1.5022,-1.4682,-1.4154,-1.3431,-1.2608,-1.1731,-1.0949,-1.0216,-0.9723,-0.9327,-0.9076,-0.8928,-0.8783,-0.863,-0.8382,-0.8187,-0.7988,-0.7988,-0.7988,-0.7988,-0.7988,-0.7988,-0.7988,-0.7988,-0.7988,-0.7988,-0.7988,-0.7988,-0.7988,-0.7988,-0.8137,-0.8333,-0.8733,-0.913,-1.0015,-1.0998,-1.1727,-1.2462,-1.3335,-1.4208,-1.4787,-1.528,-1.5456,-1.5477,-1.5417,-1.5137,-1.4801,-1.442,-1.4038,-1.3748,-1.3461,-1.3157,-1.2887,-1.3094,-1.3137,-1.3307,-1.3179,-1.3094,-1.2881,-1.2149,-1.1284,-1.0332,-0.9419,-0.8508,-0.7893,-0.7367,-0.7231,-0.7095,-0.7139,-0.7143,-0.7143,-1.4803,-1.4576,-1.4836,-1.4995,-1.5068,-1.5277,-1.5558,-1.5765,-1.5792,-1.5812,-1.5825,-1.6028,-1.6177,-1.6224,-1.6353,-1.644,-1.6534,-1.6541,-1.6636,-1.6824,-1.7084,-1.7498,-1.8041,-1.8495,-1.8902,-1.9521,-1.9886,-2.0294,-2.0754,-2.0799,-2.1078,-2.1212,-2.0557,-1.9852,-1.8434,-1.8319,-1.8234,-1.8002,-1.7498,-1.7037,-1.6581,-1.6258,-1.5981,-1.5743,-1.5499,-1.5213,-1.4831,-1.425,-1.348,-1.2657,-1.1927,-1.1243,-1.0605,-1.0212,-0.9867,-0.9476,-0.9282,-0.8935,-0.8435,-0.8187,-0.8038,-0.7988,-0.7988,-0.7988,-0.7988,-0.7988,-0.7988,-0.7988,-0.7988,-0.7988,-0.7988,-0.7988,-0.7988,-0.8038,-0.8187,-0.8485,-0.8931,-0.9377,-1.0212,-1.0998,-1.1634,-1.2365,-1.3244,-1.4064,-1.4634,-1.5092,-1.5391,-1.5445,-1.5296,-1.4905,-1.4413,-1.3889,-1.3441,-1.3023,-1.2616,-1.2273,-1.2112,-1.2369,-1.2534,-1.2662,-1.2839,-1.2796,-1.2583,-1.2277,-1.1456,-1.0332,-0.9419,-0.8504,-0.7893,-0.7323,-0.7187,-0.7095,-0.7095,-0.7095,-0.7095,-1.4903,-1.4823,-1.4968,-1.5122,-1.5251,-1.5351,-1.5458,-1.5578,-1.5751,-1.5892,-1.6143,-1.6508,-1.6831,-1.6918,-1.7099,-1.7232,-1.7365,-1.7365,-1.7466,-1.7807,-1.8265,-1.8812,-1.9355,-1.994,-2.0529,-2.0997,-2.1454,-2.1678,-2.1847,-2.2033,-2.2078,-2.2167,-2.2078,-2.1526,-2.061,-2.0212,-1.9894,-1.9293,-1.865,-1.801,-1.7365,-1.6817,-1.6359,-1.6076,-1.5838,-1.5594,-1.5363,-1.4825,-1.425,-1.357,-1.2888,-1.2306,-1.1727,-1.134,-1.0949,-1.056,-1.0265,-0.9278,-0.868,-0.8287,-0.8187,-0.8088,-0.7988,-0.7988,-0.7988,-0.7988,-0.7988,-0.7988,-0.7988,-0.7988,-0.7988,-0.7988,-0.7988,-0.8038,-0.8237,-0.8634,-0.9084,-0.9575,-1.0216,-1.0949,-1.1585,-1.198,-1.271,-1.319,-1.3763,-1.41,-1.434,-1.458,-1.4573,-1.4142,-1.3693,-1.3104,-1.2615,-1.22,-1.1775,-1.1282,-1.1029,-1.1149,-1.1494,-1.1843,-1.202,-1.2235,-1.2149,-1.1757,-1.1068,-1.0332,-0.9248,-0.8332,-0.7716,-0.7279,-0.7187,-0.7139,-0.7095,-0.7095,-0.7095,-1.4948,-1.4823,-1.4968,-1.5228,-1.5516,-1.549,-1.5536,-1.5674,-1.5872,-1.6123,-1.664,-1.716,-1.7613,-1.7878,-1.8156,-1.8334,-1.8557,-1.8511,-1.8619,-1.8912,-1.9325,-1.9783,-2.032,-2.0862,-2.132,-2.182,-2.2132,-2.2397,-2.2476,-2.2608,-2.2652,-2.2652,-2.2608,-2.2378,-2.1891,-2.1526,-2.1042,-2.0348,-1.9712,-1.8934,-1.8156,-1.7419,-1.6817,-1.64,-1.6076,-1.5832,-1.5594,-1.5309,-1.4981,-1.434,-1.3854,-1.342,-1.2942,-1.2554,-1.2122,-1.1683,-1.0659,-0.9673,-0.908,-0.8581,-0.8482,-0.8333,-0.8137,-0.7988,-0.7988,-0.7988,-0.7988,-0.7988,-0.7988,-0.7988,-0.7988,-0.7988,-0.8038,-0.8038,-0.8382,-0.8783,-0.9278,-0.9772,-1.0314,-1.0998,-1.1292,-1.1688,-1.1932,-1.2268,-1.2694,-1.2937,-1.3232,-1.342,-1.3661,-1.3275,-1.278,-1.2181,-1.1635,-1.1138,-1.0683,-1.0227,-1.0053,-0.9999,-1.0386,-1.084,-1.1068,-1.1198,-1.1241,-1.1241,-1.0506,-0.9772,-0.8903,-0.8116,-0.7544,-0.7323,-0.7279,-0.7187,-0.7139,-0.7139,-0.7187,-1.4854,-1.4596,-1.4856,-1.5345,-1.5766,-1.5787,-1.5897,-1.6081,-1.6113,-1.6565,-1.7326,-1.7893,-1.8573,-1.9247,-1.9749,-2.0059,-2.0232,-2.0104,-2.0121,-2.0192,-2.0337,-2.0654,-2.0871,-2.1275,-2.1499,-2.2008,-2.2318,-2.2432,-2.275,-2.2872,-2.3013,-2.3013,-2.2925,-2.2784,-2.2564,-2.2211,-2.1722,-2.1221,-2.0637,-1.9812,-1.8988,-1.8149,-1.7412,-1.6911,-1.64,-1.6116,-1.5879,-1.5588,-1.5356,-1.5022,-1.4783,-1.4394,-1.4004,-1.3661,-1.3087,-1.2219,-1.09,-1.0265,-0.9575,-0.9175,-0.8878,-0.873,-0.8382,-0.8137,-0.8038,-0.8038,-0.7988,-0.7988,-0.7988,-0.7988,-0.7988,-0.7988,-0.7988,-0.8233,-0.8478,-0.8977,-0.9525,-1.0019,-1.0511,-1.0904,-1.0949,-1.1194,-1.1198,-1.1438,-1.1526,-1.158,-1.1727,-1.1819,-1.2014,-1.216,-1.1663,-1.1102,-1.0557,-1.0044,-0.9622,-0.9363,-0.9201,-0.9207,-0.9416,-0.9763,-0.9989,-1.0255,-1.0376,-1.0289,-0.9903,-0.9205,-0.8468,-0.7896,-0.7452,-0.7319,-0.7499,-0.7367,-0.7323,-0.7319,-0.7319,-1.5285,-1.487,-1.5157,-1.559,-1.6087,-1.6232,-1.6232,-1.6218,-1.6493,-1.7026,-1.7645,-1.8842,-1.9704,-2.0512,-2.1293,-2.1702,-2.1845,-2.1756,-2.1507,-2.1347,-2.1096,-2.097,-2.097,-2.1042,-2.1221,-2.1445,-2.1758,-2.2157,-2.252,-2.2828,-2.2969,-2.2882,-2.2847,-2.275,-2.2574,-2.2397,-2.2167,-2.19,-2.132,-2.0637,-1.9812,-1.898,-1.8156,-1.7458,-1.677,-1.644,-1.6069,-1.5825,-1.5594,-1.5397,-1.5309,-1.507,-1.4783,-1.4442,-1.3913,-1.2705,-1.178,-1.11,-1.031,-0.9867,-0.9521,-0.9229,-0.8935,-0.8634,-0.8386,-0.8137,-0.8038,-0.7988,-0.7988,-0.7988,-0.7988,-0.7988,-0.8008,-0.8225,-0.8521,-0.9023,-0.9573,-1.0069,-1.0511,-1.0511,-1.0605,-1.0306,-1.0408,-1.031,-1.0355,-1.031,-1.0314,-1.0359,-1.0502,-1.0748,-1.0645,-1.0087,-0.9763,-0.9312,-0.8977,-0.8699,-0.8536,-0.8401,-0.8673,-0.8881,-0.9084,-0.931,-0.9533,-0.9467,-0.9248,-0.8771,-0.812,-0.7735,-0.7679,-0.786,-0.7988,-0.7768,-0.7591,-0.7683,-0.7676,-1.5576,-1.5197,-1.5421,-1.5851,-1.6344,-1.6586,-1.6593,-1.6579,-1.6779,-1.7308,-1.8234,-1.9347,-2.0512,-2.1578,-2.2454,-2.312,-2.3531,-2.3183,-2.2833,-2.2227,-2.1668,-2.1096,-2.0826,-2.0546,-2.0538,-2.0718,-2.1033,-2.149,-2.2024,-2.252,-2.275,-2.2662,-2.2583,-2.2353,-2.2167,-2.2078,-2.2078,-2.1989,-2.1713,-2.1221,-2.0546,-1.9774,-1.8942,-1.801,-1.7271,-1.6723,-1.6218,-1.5974,-1.573,-1.5635,-1.5635,-1.5547,-1.5315,-1.5022,-1.44,-1.3286,-1.2559,-1.1878,-1.1145,-1.056,-1.0167,-0.9826,-0.9529,-0.9133,-0.8783,-0.8432,-0.8237,-0.8041,-0.8038,-0.7988,-0.7988,-0.7995,-0.8039,-0.8126,-0.8578,-0.9083,-0.9534,-1.0037,-1.0145,-1.0184,-0.9916,-0.9571,-0.9373,-0.9324,-0.9274,-0.9422,-0.9422,-0.9373,-0.9521,-0.9768,-0.962,-0.9167,-0.8958,-0.8668,-0.8445,-0.8273,-0.8142,-0.8073,-0.8164,-0.8326,-0.8354,-0.8601,-0.8985,-0.8926,-0.8727,-0.84,-0.8307,-0.8217,-0.8199,-0.8435,-0.8738,-0.8759,-0.8561,-0.832,-0.8268,-1.5812,-1.5401,-1.573,-1.609,-1.6532,-1.6753,-1.6825,-1.6879,-1.6815,-1.7545,-1.8634,-1.9583,-2.0836,-2.2076,-2.3183,-2.4006,-2.4284,-2.4155,-2.3497,-2.2965,-2.1872,-2.1033,-2.0184,-1.9911,-1.9675,-1.9857,-2.0257,-2.0718,-2.1401,-2.1945,-2.2309,-2.2299,-2.2043,-2.1722,-2.1436,-2.1401,-2.1401,-2.1445,-2.1633,-2.1544,-2.1051,-2.0464,-1.9783,-1.8619,-1.7785,-1.7099,-1.6454,-1.6028,-1.5825,-1.5825,-1.5778,-1.5778,-1.5594,-1.5356,-1.4682,-1.401,-1.3281,-1.2608,-1.1975,-1.1394,-1.0998,-1.056,-1.0171,-0.9579,-0.913,-0.8581,-0.8287,-0.8038,-0.7988,-0.7988,-0.7988,-0.8002,-0.8032,-0.8258,-0.8606,-0.9008,-0.9458,-0.9778,-0.9842,-0.9743,-0.9324,-0.8977,-0.8779,-0.873,-0.873,-0.873,-0.873,-0.863,-0.8684,-0.8931,-0.8783,-0.8485,-0.8446,-0.8347,-0.8154,-0.7983,-0.7859,-0.7828,-0.7867,-0.798,-0.8118,-0.8318,-0.8521,-0.8771,-0.902,-0.8909,-0.8783,-0.8865,-0.9116,-0.9429,-0.9691,-0.9818,-0.9625,-0.9318,-0.905,-1.6382,-1.5906,-1.6253,-1.6267,-1.6021,-1.6239,-1.6197,-1.6052,-1.6267,-1.7125,-1.8349,-1.9613,-2.0836,-2.2031,-2.3304,-2.4178,-2.4594,-2.4337,-2.3757,-2.2702,-2.1641,-2.0385,-1.9301,-1.8812,-1.8635,-1.8673,-1.9126,-1.994,-2.0808,-2.141,-2.1633,-2.1356,-2.1087,-2.0754,-2.0385,-2.0348,-2.0447,-2.0637,-2.1141,-2.1454,-2.132,-2.0835,-2.0147,-1.9225,-1.8442,-1.7527,-1.6878,-1.6319,-1.6021,-1.5832,-1.5825,-1.5825,-1.5778,-1.5547,-1.5118,-1.4538,-1.3956,-1.3335,-1.2754,-1.2175,-1.1731,-1.1194,-1.0659,-1.0023,-0.9381,-0.8783,-0.8333,-0.8137,-0.7988,-0.7988,-0.7992,-0.8008,-0.8092,-0.8336,-0.8623,-0.8973,-0.9321,-0.9435,-0.949,-0.9157,-0.8733,-0.8482,-0.8333,-0.8237,-0.8187,-0.8187,-0.8187,-0.8187,-0.8187,-0.8336,-0.8386,-0.8187,-0.8137,-0.805,-0.7921,-0.7891,-0.7872,-0.7824,-0.787,-0.7889,-0.8001,-0.8497,-0.8995,-0.9326,-0.9535,-0.9576,-0.9732,-1.0031,-1.0269,-1.0499,-1.0581,-1.0704,-1.0737,-1.0469,-1.0173,-1.6692,-1.6104,-1.6025,-1.5863,-1.5627,-1.5833,-1.5819,-1.5793,-1.6266,-1.6907,-1.7689,-1.8899,-2.015,-2.14,-2.2761,-2.3641,-2.4102,-2.4059,-2.3207,-2.2145,-2.1006,-1.965,-1.8657,-1.7893,-1.7714,-1.7761,-1.8388,-1.9247,-2.0175,-2.0447,-2.0492,-2.0311,-1.9985,-1.9621,-1.9255,-1.9255,-1.9392,-1.9637,-2.0365,-2.0871,-2.123,-2.097,-2.0518,-1.9729,-1.8804,-1.7893,-1.7113,-1.6508,-1.6123,-1.5879,-1.5825,-1.5825,-1.5778,-1.5689,-1.5452,-1.507,-1.4538,-1.4016,-1.3485,-1.2905,-1.237,-1.1785,-1.0998,-1.0314,-0.9525,-0.8928,-0.8382,-0.8184,-0.8038,-0.7988,-0.7988,-0.7998,-0.8126,-0.8319,-0.8561,-0.8874,-0.8979,-0.8998,-0.8984,-0.8744,-0.8432,-0.8237,-0.8137,-0.8088,-0.8088,-0.8088,-0.8038,-0.8038,-0.7988,-0.7988,-0.7988,-0.7988,-0.7988,-0.7988,-0.7965,-0.7955,-0.7934,-0.7894,-0.7847,-0.817,-0.8475,-0.9001,-0.9485,-1.0006,-1.0422,-1.0588,-1.0786,-1.1125,-1.1315,-1.1501,-1.1584,-1.1574,-1.1544,-1.1421,-1.1015,-1.68,-1.61,-1.5597,-1.5294,-1.5284,-1.5513,-1.5611,-1.5727,-1.6443,-1.6822,-1.7039,-1.7903,-1.9077,-2.0359,-2.1462,-2.2312,-2.2804,-2.2814,-2.2224,-2.1337,-2.0286,-1.9026,-1.8025,-1.7246,-1.7113,-1.7293,-1.7839,-1.8396,-1.9042,-1.9271,-1.9401,-1.9209,-1.8888,-1.8473,-1.8295,-1.8249,-1.8388,-1.8796,-1.9401,-2.0011,-2.0518,-2.1032,-2.0609,-1.9857,-1.898,-1.8025,-1.7207,-1.6602,-1.617,-1.5927,-1.5825,-1.5825,-1.5825,-1.5778,-1.5642,-1.5309,-1.507,-1.4586,-1.4106,-1.3437,-1.2856,-1.2224,-1.1345,-1.0507,-0.9768,-0.9126,-0.8581,-0.8233,-0.8088,-0.7988,-0.7988,-0.8005,-0.814,-0.8272,-0.8551,-0.8718,-0.87,-0.8675,-0.8525,-0.8382,-0.8237,-0.8038,-0.7988,-0.7988,-0.7988,-0.7988,-0.7988,-0.7988,-0.7988,-0.7988,-0.7988,-0.7988,-0.7988,-0.7988,-0.7988,-0.7985,-0.7978,-0.7968,-0.8016,-0.8468,-0.8968,-0.965,-1.0305,-1.0961,-1.1283,-1.1672,-1.1942,-1.2272,-1.2445,-1.2509,-1.2341,-1.2225,-1.1942,-1.1771,-1.1528,-1.6601,-1.5856,-1.5671,-1.5355,-1.5067,-1.5207,-1.524,-1.539,-1.6184,-1.6595,-1.6967,-1.73,-1.8149,-1.9193,-1.9724,-2.0486,-2.1248,-2.1436,-2.0998,-2.0158,-1.9621,-1.8442,-1.7481,-1.6925,-1.673,-1.6911,-1.7286,-1.7652,-1.7978,-1.821,-1.8257,-1.8056,-1.7785,-1.752,-1.7347,-1.734,-1.752,-1.7971,-1.8427,-1.908,-1.9783,-2.0201,-2.0382,-1.9828,-1.9142,-1.8218,-1.7434,-1.6777,-1.6298,-1.5967,-1.5825,-1.5825,-1.5825,-1.5778,-1.5689,-1.5594,-1.5309,-1.4968,-1.4442,-1.3913,-1.3383,-1.2565,-1.1634,-1.0752,-0.9965,-0.9175,-0.868,-0.8187,-0.8041,-0.8038,-0.8038,-0.7988,-0.8099,-0.8238,-0.8493,-0.8442,-0.8411,-0.8421,-0.8347,-0.8237,-0.8088,-0.7988,-0.7988,-0.7988,-0.7988,-0.7988,-0.7988,-0.7988,-0.7988,-0.7988,-0.7988,-0.7988,-0.7988,-0.7988,-0.7988,-0.7988,-0.7985,-0.7988,-0.818,-0.8682,-0.9404,-1.0462,-1.1119,-1.1813,-1.2511,-1.3048,-1.3278,-1.3358,-1.3357,-1.3379,-1.3101,-1.2849,-1.2496,-1.2083,-1.1794]},{"header":{"parameterUnit":"m.s-1","parameterCategory":1,"la1":31.0,"la2":29.5877,"lo1":-88.7671,"lo2":-86.6584,"dy":0.0162,"dx":0.0185,"nx":115,"ny":88,"refTime":"2023-06-05T06:00:00:Z","depth":0,"parameterNumber":3,"parameterNumberName":"V-component_of_WINDS"},"data":[0.0,0.0,0.0,0.0,0.0,0.0,0.0,0.0,0.0,0.0,0.0,0.0,0.0,0.0,0.0,0.0,0.0,0.0,0.0,0.0,0.0,0.0,0.0,0.0,0.0,0.0,0.0,0.0,0.0,0.0,0.0,0.0,0.0,0.0,0.0,0.0,0.0,0.0,0.0,0.0,0.0,0.0,0.0,0.0,0.0,0.0,0.0,0.0,0.0,0.0,0.0,0.0,0.0,0.0,0.0,0.0,0.0,0.0,0.0,0.0,0.0,0.0,0.0,0.0,0.0,0.0,0.0,0.0,0.0,0.0,0.0,0.0,0.0,0.0,0.0,0.0,0.0,0.0,0.0,0.0,0.0,0.0,0.0,0.0,0.0,0.0,0.0,0.0,0.0,0.0,0.0,0.0,0.0,0.0,0.0,0.0,0.0,0.0,0.0,0.0,0.0,0.0,0.0,0.0,0.0,0.0,0.0,0.0,0.0,0.0,0.0,0.0,0.0,0.0,0.0,0.0,0.0,0.0,0.0,0.0,0.0,0.0,0.0,0.0,0.0,0.0,0.0,0.0,0.0,0.0,0.0,0.0,0.0,0.0,0.0,0.0,0.0,0.0,0.0,0.0,0.0,0.0,0.0,0.0,0.0,0.0,0.0,0.0,0.0,0.0,0.0,0.0,0.0,0.0,0.0,0.0,0.0,0.0,0.0,0.0,0.0,0.0,0.0,0.0,0.0,0.0,0.0,0.0,0.0,0.0,0.0,0.0,0.0,0.0,0.0,0.0,0.0,0.0,0.0,0.0,0.0,0.0,0.0,0.0,0.0,0.0,0.0,0.0,0.0,0.0,0.0,0.0,0.0,0.0,0.0,0.0,0.0,0.0,0.0,0.0,0.0,0.0,0.0,0.0,0.0,0.0,0.0,0.0,0.0,0.0,0.0,0.0,0.0,0.0,0.0,0.0,0.0,0.0,0.0,0.0,0.0,0.0,0.0,0.0,0.0,0.0,0.0,0.0,0.0,0.0,0.0,0.0,0.0,0.0,0.0,0.0,0.0,0.0,0.0,0.0,0.0,0.0,0.0,0.0,0.0,0.0,0.0,0.0,0.0,0.0,0.0,0.0,0.0,0.0,0.0,0.0,0.0,0.0,0.0,0.0,0.0,0.0,0.0,0.0,0.0,0.0,0.0,0.0,0.0,0.0,0.0,0.0,0.0,0.0,0.0,0.0,0.0,0.0,0.0,0.0,0.0,0.0,0.0,0.0,0.0,0.0,0.0,0.0,0.0,0.0,0.0,0.0,0.0,0.0,0.0,0.0,0.0,0.0,0.0,0.0,0.0,0.0,0.0,0.0,0.0,0.0,0.0,0.0,0.0,0.0,0.0,0.0,0.0,0.0,0.0,0.0,0.0,0.0,0.0,0.0,0.0,0.0,0.0,0.0,0.0,0.0,0.0,0.0,0.0,0.0,0.0,0.0,0.0,0.0,0.0,0.0,0.0,0.0,0.0,0.0,0.0,0.0,0.0,0.0,0.0,0.0,0.0,0.0,0.0,0.0,0.0,0.0,0.0,0.0,0.0,0.0,0.0,0.0,0.0,0.0,0.0,0.0,0.0,0.0,0.0,0.0,0.0,0.0,0.0,0.0,0.0,0.0,0.0,0.0,0.0,0.0,0.0,0.0,0.0,0.0,0.0,0.0,0.0,0.0,0.0,0.0,0.0,0.0,0.0,0.0,0.0,0.0,0.0,0.0,0.0,0.0,0.0,0.0,0.0,0.0,0.0,0.0,0.0,0.0,0.0,0.0,0.0,0.0,0.0,0.0,0.0,0.0,0.0,0.0,0.0,0.0,0.0,0.0,0.0,0.0,0.0,0.0,0.0,0.0,0.0,0.0,0.0,0.0,0.0,0.0,0.0,0.0,0.0,0.0,0.0,0.0,0.0,0.0,0.0,0.0,0.0,0.0,0.0,0.0,0.0,0.0,0.0,0.0,0.0,0.0,0.0,0.0,0.0,0.0,0.0,0.0,0.0,0.0,0.0,0.0,0.0,0.0,0.0,0.0,0.0,0.0,0.0,0.0,0.0,0.0,0.0,0.0,0.0,0.0,0.0,0.0,0.0,0.0,0.0,0.0,0.0,0.0,0.0,0.0,0.0,0.0,0.0,0.0,0.0,0.0,0.0,0.0,0.0,0.0,0.0,0.0,0.0,0.0,0.0,0.0,0.0,0.0,0.0,0.0,0.0,0.0,0.0,0.0,0.0,0.0,0.0,0.0,0.0,0.0,0.0,0.0,0.0,0.0,0.0,0.0,0.0,0.0,0.0,0.0,0.0,0.0,0.0,0.0,0.0,0.0,0.0,0.0,0.0,0.0,0.0,0.0,0.0,0.0,0.0,0.0,0.0,0.0,0.0,0.0,0.0,0.0,0.0,0.0,0.0,0.0,0.0,0.0,0.0,0.0,0.0,0.0,0.0,0.0,0.0,0.0,0.0,0.0,0.0,0.0,0.0,0.0,0.0,0.0,0.0,0.0,0.0,0.0,0.0,0.0,0.0,0.0,0.0,0.0,0.0,0.0,0.0,0.0,0.0,0.0,0.0,0.0,0.0,0.0,0.0,0.0,0.0,0.0,0.0,0.0,0.0,0.0,0.0,0.0,0.0,0.0,0.0,0.0,0.0,0.0,0.0,0.0,0.0,0.0,0.0,0.0,0.0,0.0,0.0,0.0,0.0,0.0,0.0,0.0,0.0,0.0,0.0,0.0,0.0,0.0,0.0,0.0,0.0,0.0,0.0,0.0,0.0,0.0,0.0,0.0,0.0,0.0,0.0,0.0,0.0,0.0,0.0,0.0,0.0,0.0,0.0,0.0,0.0,0.0,0.0,0.0,0.0,0.0,0.0,0.0,0.0,0.0,0.0,0.0,0.0,0.0,0.0,0.0,0.0,0.0,0.0,0.0,0.0,0.0,0.0,0.0,0.0,0.0,0.0,0.0,0.0,0.0,0.0,0.0,0.0,0.0,0.0,0.0,0.0,0.0,0.0,0.0,0.0,0.0,0.0,0.0,0.0,0.0,0.0,0.0,0.0,0.0,0.0,0.0,0.0,0.0,0.0,0.0,0.0,0.0,0.0,0.0,0.0,0.0,0.0,0.0,0.0,0.0,0.0,0.0,0.0,0.0,0.0,0.0,0.0,0.0,0.0,0.0,0.0,0.0,0.0,0.0,0.0,0.0,0.0,0.0,0.0,0.0,0.0,0.0,0.0,0.0,0.0,0.0,0.0,0.0,0.0,0.0,0.0,0.0,0.0,0.0,0.0,0.0,0.0,0.0,0.0,0.0,0.0,0.0,0.0,0.0,0.0,0.0,0.0,0.0,0.0,0.0,0.0,0.0,0.0,0.0,0.0,0.0,0.0,0.0,0.0,0.0,0.0,0.0,0.0,0.0,0.0,0.0,0.0,0.0,0.0,0.0,0.0,0.0,0.0,0.0,0.0,0.0,0.0,0.0,0.0,0.0,0.0,0.0,0.0,0.0,0.0,0.0,0.0,0.0,0.0,0.0,0.0,0.0,0.0,0.0,0.0,0.0,0.0,0.0,0.0,0.0,0.0,0.0,0.0,0.0,0.0,0.0,0.0,0.0,0.0,0.0,0.0,0.0,0.0,0.0,0.0,0.0,0.0,0.0,0.0,0.0,0.0,0.0,0.0,0.0,0.0,0.0,0.0,0.0,0.0,0.0,0.0,0.0,0.0,0.0,0.0,0.0,0.0,0.0,0.0,0.0,0.0,0.0,0.0,0.0,0.0,0.0,0.0,0.0,0.0,0.0,0.0,0.0,0.0,0.0,0.0,0.0,0.0,0.0,0.0,0.0,0.0,0.0,0.0,0.0,0.0,0.0,0.0,0.0,0.0,0.0,0.0,0.0,0.0,0.0,0.0,0.0,0.0,0.0,0.0,0.0,0.0,0.0,0.0,0.0,0.0,0.0,0.0,0.0,0.0,0.0,0.0,0.0,0.0,0.0,0.0,0.0,0.0,0.0,0.0,0.0,0.0,0.0,0.0,0.0,0.0,0.0,0.0,0.0,0.0,0.0,0.0,0.0,0.0,0.0,0.0,0.0,0.0,0.0,0.0,0.0,0.0,0.0,0.0,0.0,0.0,0.0,0.0,0.0,0.0,0.0,0.0,0.0,0.0,0.0,0.0,0.0,0.0,0.0,0.0,0.0,0.0,0.0,0.0,0.0,0.0,0.0,0.0,0.0,0.0,0.0,0.0,0.0,0.0,0.0,1.8853,0.0,0.0,0.0,0.0,0.0,0.0,0.0,0.0,0.0,0.0,0.0,0.0,0.0,0.0,0.0,0.0,0.0,0.0,0.0,0.0,0.0,0.0,0.0,0.0,0.0,0.0,0.0,0.0,0.0,0.0,0.0,0.0,0.0,0.0,0.0,0.0,0.0,0.0,0.0,0.0,0.0,0.0,0.0,0.0,0.0,0.0,0.0,0.0,0.0,0.0,0.0,0.0,0.0,0.0,0.0,0.0,0.0,0.0,0.0,0.0,0.0,0.0,0.0,0.0,0.0,0.0,0.0,0.0,0.0,0.0,0.0,0.0,0.0,0.0,0.0,0.0,0.0,0.0,0.0,0.0,0.0,0.0,0.0,0.0,0.0,0.0,0.0,0.0,0.0,0.0,0.0,0.0,0.0,0.0,0.0,0.0,0.0,0.0,0.0,0.0,0.0,0.0,0.0,0.0,0.0,0.0,0.0,0.0,0.0,0.0,2.0537,2.0542,2.0134,1.9683,1.9206,0.0,0.0,0.0,0.0,0.0,0.0,0.0,0.0,0.0,0.0,0.0,0.0,0.0,0.0,0.0,0.0,0.0,0.0,0.0,0.0,0.0,0.0,0.0,0.0,0.0,0.0,0.0,0.0,0.0,0.0,0.0,0.0,0.0,0.0,0.0,0.0,0.0,0.0,0.0,0.0,0.0,0.0,0.0,0.0,0.0,0.0,0.0,0.0,0.0,0.0,0.0,0.0,0.0,0.0,0.0,0.0,0.0,0.0,0.0,0.0,0.0,0.0,0.0,0.0,0.0,0.0,0.0,0.0,0.0,0.0,0.0,0.0,0.0,0.0,0.0,0.0,0.0,0.0,0.0,0.0,0.0,0.0,0.0,0.0,0.0,0.0,0.0,0.0,0.0,0.0,0.0,0.0,0.0,0.0,0.0,0.0,0.0,0.0,0.0,0.0,0.0,0.0,0.0,0.0,0.0,0.0,0.0,0.0,0.0,0.0,0.0,0.0,2.0472,2.0162,1.9497,0.0,0.0,0.0,0.0,0.0,0.0,0.0,0.0,0.0,0.0,0.0,0.0,0.0,0.0,0.0,0.0,0.0,0.0,0.0,0.0,0.0,0.0,0.0,0.0,0.0,0.0,0.0,0.0,0.0,0.0,0.0,0.0,0.0,0.0,0.0,0.0,0.0,0.0,0.0,0.0,0.0,0.0,0.0,0.0,0.0,0.0,0.0,0.0,0.0,0.0,0.0,0.0,0.0,0.0,0.0,0.0,0.0,0.0,0.0,0.0,0.0,0.0,0.0,0.0,0.0,0.0,0.0,0.0,0.0,0.0,0.0,0.0,0.0,0.0,0.0,0.0,0.0,0.0,0.0,0.0,0.0,0.0,0.0,0.0,0.0,0.0,0.0,0.0,0.0,0.0,0.0,0.0,0.0,0.0,0.0,0.0,0.0,0.0,0.0,0.0,0.0,0.0,0.0,0.0,0.0,0.0,0.0,0.0,0.0,0.0,2.0501,2.0506,2.0437,0.0,2.0195,0.0,0.0,0.0,0.0,0.0,0.0,0.0,0.0,0.0,0.0,0.0,0.0,0.0,0.0,0.0,0.0,0.0,0.0,0.0,0.0,0.0,0.0,0.0,0.0,0.0,0.0,0.0,0.0,0.0,0.0,0.0,0.0,0.0,0.0,0.0,0.0,0.0,0.0,0.0,0.0,0.0,0.0,0.0,0.0,0.0,0.0,0.0,0.0,0.0,0.0,0.0,0.0,0.0,0.0,0.0,0.0,0.0,0.0,0.0,0.0,0.0,0.0,0.0,0.0,0.0,0.0,0.0,0.0,0.0,0.0,0.0,0.0,0.0,0.0,0.0,0.0,0.0,0.0,0.0,0.0,0.0,0.0,0.0,0.0,0.0,0.0,0.0,0.0,0.0,0.0,0.0,0.0,0.0,0.0,0.0,0.0,0.0,0.0,0.0,0.0,0.0,0.0,0.0,0.0,0.0,0.0,0.0,0.0,0.0,0.0,2.0472,2.0448,2.0374,2.0313,0.0,0.0,0.0,0.0,0.0,0.0,0.0,0.0,0.0,0.0,0.0,0.0,0.0,0.0,0.0,0.0,0.0,0.0,0.0,0.0,0.0,0.0,0.0,0.0,0.0,0.0,0.0,0.0,0.0,0.0,0.0,0.0,0.0,0.0,0.0,0.0,0.0,0.0,0.0,0.0,0.0,0.0,0.0,0.0,0.0,0.0,0.0,0.0,0.0,0.0,0.0,0.0,0.0,0.0,0.0,0.0,0.0,0.0,0.0,0.0,0.0,0.0,0.0,0.0,0.0,0.0,0.0,0.0,0.0,0.0,0.0,0.0,0.0,0.0,0.0,0.0,0.0,0.0,0.0,0.0,0.0,0.0,0.0,0.0,0.0,0.0,0.0,0.0,0.0,0.0,0.0,0.0,0.0,0.0,0.0,0.0,0.0,0.0,0.0,0.0,0.0,0.0,0.0,0.0,0.0,0.0,0.0,0.0,0.0,0.0,2.0482,2.0456,2.0377,2.0313,2.023,2.0182,0.0,0.0,0.0,0.0,0.0,0.0,0.0,0.0,0.0,0.0,0.0,0.0,0.0,0.0,0.0,0.0,0.0,0.0,0.0,0.0,0.0,0.0,0.0,0.0,0.0,0.0,0.0,0.0,0.0,0.0,0.0,0.0,0.0,0.0,0.0,0.0,0.0,0.0,0.0,0.0,0.0,0.0,0.0,0.0,0.0,0.0,0.0,0.0,0.0,0.0,0.0,0.0,0.0,0.0,0.0,0.0,0.0,0.0,0.0,0.0,0.0,0.0,0.0,0.0,0.0,0.0,0.0,0.0,0.0,0.0,0.0,0.0,0.0,0.0,0.0,0.0,0.0,0.0,0.0,0.0,0.0,0.0,0.0,0.0,0.0,0.0,0.0,0.0,0.0,0.0,0.0,0.0,0.0,0.0,0.0,0.0,0.0,0.0,0.0,0.0,0.0,0.0,0.0,0.0,0.0,0.0,0.0,0.0,2.0506,2.0447,2.0369,2.0289,2.0241,2.0182,0.0,0.0,0.0,0.0,0.0,0.0,0.0,0.0,0.0,0.0,0.0,0.0,0.0,0.0,0.0,0.0,0.0,0.0,0.0,0.0,0.0,0.0,0.0,0.0,0.0,0.0,0.0,0.0,0.0,0.0,0.0,0.0,0.0,0.0,0.0,0.0,0.0,0.0,0.0,0.0,0.0,0.0,0.0,0.0,0.0,0.0,0.0,0.0,0.0,0.0,0.0,0.0,0.0,0.0,0.0,0.0,0.0,0.0,0.0,0.0,0.0,0.0,0.0,0.0,0.0,0.0,0.0,0.0,0.0,0.0,0.0,0.0,0.0,0.0,0.0,0.0,0.0,0.0,0.0,0.0,0.0,0.0,0.0,0.0,0.0,0.0,0.0,0.0,0.0,0.0,0.0,0.0,0.0,0.0,0.0,0.0,0.0,0.0,0.0,0.0,0.0,0.0,0.0,0.0,0.0,0.0,0.0,0.0,0.0,2.0501,2.0378,2.0312,2.0242,2.0205,2.0153,0.0,0.0,0.0,0.0,0.0,0.0,0.0,0.0,0.0,0.0,0.0,0.0,0.0,0.0,0.0,0.0,0.0,0.0,0.0,0.0,0.0,0.0,0.0,0.0,0.0,0.0,0.0,0.0,0.0,0.0,0.0,0.0,0.0,0.0,0.0,0.0,0.0,0.0,0.0,0.0,0.0,0.0,0.0,0.0,0.0,0.0,0.0,0.0,0.0,0.0,0.0,0.0,0.0,0.0,0.0,0.0,0.0,0.0,0.0,0.0,0.0,0.0,0.0,0.0,0.0,0.0,0.0,0.0,0.0,0.0,0.0,0.0,0.0,0.0,0.0,0.0,0.0,0.0,0.0,0.0,0.0,0.0,0.0,0.0,0.0,0.0,0.0,0.0,0.0,0.0,0.0,0.0,0.0,0.0,0.0,0.0,0.0,0.0,0.0,0.0,0.0,0.0,0.0,0.0,0.0,0.0,0.0,0.0,0.0,2.0473,0.0,2.0257,2.0203,2.0197,2.014,0.0,0.0,0.0,0.0,0.0,0.0,0.0,0.0,0.0,0.0,0.0,0.0,0.0,0.0,0.0,0.0,0.0,0.0,0.0,0.0,0.0,0.0,0.0,0.0,0.0,0.0,0.0,0.0,0.0,0.0,0.0,0.0,0.0,0.0,0.0,0.0,0.0,0.0,0.0,0.0,0.0,0.0,0.0,0.0,0.0,0.0,0.0,0.0,0.0,0.0,0.0,0.0,0.0,0.0,0.0,0.0,0.0,0.0,0.0,0.0,0.0,0.0,0.0,0.0,0.0,0.0,0.0,0.0,0.0,0.0,0.0,0.0,0.0,0.0,0.0,0.0,0.0,0.0,0.0,0.0,0.0,0.0,0.0,0.0,0.0,0.0,0.0,0.0,0.0,0.0,0.0,0.0,0.0,0.0,0.0,0.0,0.0,0.0,0.0,0.0,0.0,0.0,0.0,0.0,0.0,0.0,0.0,0.0,2.0471,2.0405,2.0332,2.0262,2.0197,2.0209,2.0126,0.0,0.0,0.0,0.0,0.0,0.0,0.0,0.0,0.0,0.0,0.0,0.0,0.0,0.0,0.0,0.0,0.0,0.0,0.0,0.0,0.0,0.0,0.0,0.0,0.0,0.0,0.0,0.0,0.0,0.0,0.0,0.0,0.0,0.0,0.0,0.0,0.0,0.0,0.0,0.0,0.0,0.0,0.0,0.0,0.0,0.0,0.0,0.0,0.0,0.0,0.0,0.0,0.0,0.0,0.0,0.0,0.0,0.0,0.0,0.0,0.0,0.0,0.0,0.0,0.0,0.0,0.0,0.0,0.0,0.0,0.0,0.0,0.0,0.0,0.0,0.0,0.0,0.0,0.0,0.0,0.0,0.0,0.0,0.0,0.0,0.0,0.0,0.0,0.0,0.0,0.0,0.0,0.0,0.0,0.0,0.0,0.0,0.0,0.0,0.0,0.0,0.0,0.0,0.0,0.0,0.0,0.0,0.0,0.0,2.0402,2.0327,2.0304,2.0277,2.0237,2.0152,0.0,0.0,0.0,0.0,0.0,0.0,0.0,0.0,0.0,0.0,0.0,0.0,0.0,0.0,0.0,0.0,0.0,0.0,0.0,0.0,0.0,0.0,0.0,0.0,0.0,0.0,0.0,0.0,0.0,0.0,0.0,0.0,0.0,0.0,0.0,0.0,0.0,0.0,0.0,0.0,0.0,0.0,0.0,0.0,0.0,0.0,0.0,0.0,0.0,0.0,0.0,0.0,0.0,0.0,0.0,0.0,0.0,0.0,0.0,0.0,0.0,0.0,0.0,0.0,0.0,0.0,0.0,0.0,0.0,0.0,0.0,0.0,0.0,0.0,0.0,0.0,0.0,0.0,0.0,0.0,0.0,0.0,0.0,0.0,0.0,0.0,0.0,0.0,0.0,0.0,0.0,0.0,0.0,0.0,0.0,0.0,0.0,0.0,0.0,0.0,0.0,0.0,0.0,0.0,0.0,0.0,0.0,0.0,0.0,2.0444,2.036,2.0317,2.0296,2.0258,2.0199,2.0144,0.0,0.0,0.0,0.0,0.0,0.0,0.0,0.0,0.0,0.0,0.0,0.0,0.0,0.0,0.0,0.0,0.0,0.0,0.0,0.0,0.0,0.0,0.0,0.0,0.0,0.0,0.0,0.0,0.0,0.0,0.0,0.0,0.0,0.0,0.0,0.0,0.0,0.0,0.0,0.0,0.0,0.0,0.0,0.0,0.0,0.0,0.0,0.0,0.0,0.0,0.0,0.0,0.0,0.0,0.0,0.0,0.0,0.0,0.0,0.0,0.0,0.0,0.0,0.0,0.0,0.0,0.0,0.0,0.0,0.0,0.0,0.0,0.0,0.0,0.0,0.0,0.0,0.0,0.0,0.0,0.0,0.0,0.0,0.0,0.0,0.0,0.0,0.0,0.0,0.0,0.0,0.0,0.0,0.0,0.0,0.0,0.0,0.0,0.0,0.0,0.0,0.0,0.0,0.0,0.0,0.0,0.0,0.0,2.0668,2.0549,2.0437,2.0304,2.0299,2.0262,0.0,0.0,0.0,0.0,0.0,0.0,0.0,0.0,0.0,0.0,0.0,0.0,0.0,0.0,0.0,0.0,0.0,0.0,0.0,0.0,0.0,0.0,0.0,0.0,0.0,0.0,0.0,0.0,0.0,0.0,0.0,0.0,0.0,0.0,0.0,0.0,0.0,0.0,0.0,0.0,0.0,0.0,0.0,0.0,0.0,0.0,0.0,0.0,0.0,0.0,0.0,0.0,0.0,0.0,0.0,0.0,0.0,0.0,0.0,0.0,0.0,0.0,0.0,0.0,0.0,0.0,0.0,0.0,0.0,0.0,0.0,0.0,0.0,0.0,0.0,0.0,0.0,0.0,0.0,0.0,0.0,0.0,0.0,0.0,0.0,0.0,0.0,0.0,0.0,0.0,0.0,0.0,0.0,0.0,0.0,0.0,0.0,0.0,0.0,0.0,0.0,0.0,0.0,0.0,0.0,0.0,0.0,0.0,0.0,2.2399,2.1778,2.1094,2.0413,2.0331,2.0303,0.0,0.0,0.0,0.0,0.0,0.0,0.0,0.0,0.0,0.0,0.0,0.0,0.0,0.0,0.0,0.0,0.0,0.0,0.0,0.0,0.0,0.0,0.0,0.0,0.0,0.0,0.0,0.0,0.0,0.0,0.0,0.0,0.0,0.0,0.0,0.0,0.0,0.0,0.0,0.0,0.0,0.0,0.0,0.0,0.0,0.0,0.0,0.0,0.0,0.0,0.0,0.0,0.0,0.0,0.0,0.0,0.0,0.0,0.0,0.0,0.0,0.0,0.0,0.0,0.0,0.0,0.0,0.0,0.0,0.0,0.0,0.0,0.0,0.0,0.0,0.0,0.0,0.0,0.0,0.0,0.0,0.0,0.0,0.0,0.0,0.0,0.0,0.0,0.0,0.0,0.0,0.0,0.0,0.0,0.0,0.0,0.0,0.0,0.0,0.0,0.0,0.0,0.0,0.0,0.0,0.0,0.0,0.0,2.3464,2.3109,2.2614,2.1909,2.102,2.0557,2.0318,0.0,0.0,0.0,0.0,0.0,0.0,0.0,0.0,0.0,0.0,0.0,0.0,0.0,0.0,0.0,0.0,0.0,0.0,0.0,0.0,0.0,0.0,0.0,0.0,0.0,0.0,0.0,0.0,0.0,0.0,0.0,0.0,0.0,0.0,0.0,0.0,0.0,0.0,0.0,0.0,0.0,0.0,0.0,0.0,0.0,0.0,0.0,0.0,0.0,0.0,0.0,0.0,0.0,0.0,0.0,0.0,0.0,0.0,0.0,0.0,0.0,0.0,0.0,0.0,0.0,0.0,0.0,0.0,0.0,0.0,0.0,0.0,0.0,0.0,0.0,0.0,0.0,0.0,0.0,0.0,0.0,0.0,0.0,0.0,0.0,0.0,0.0,0.0,0.0,0.0,0.0,0.0,0.0,0.0,0.0,0.0,0.0,0.0,0.0,0.0,0.0,0.0,0.0,0.0,0.0,0.0,0.0,0.0,2.4146,2.3394,2.3174,2.2716,2.1955,2.0947,2.0369,0.0,0.0,0.0,0.0,0.0,0.0,0.0,0.0,0.0,0.0,0.0,0.0,0.0,0.0,0.0,0.0,0.0,0.0,0.0,0.0,0.0,0.0,0.0,0.0,0.0,0.0,0.0,0.0,0.0,0.0,0.0,0.0,0.0,0.0,0.0,0.0,0.0,0.0,0.0,0.0,0.0,0.0,0.0,0.0,0.0,0.0,0.0,0.0,0.0,0.0,0.0,0.0,0.0,0.0,0.0,0.0,0.0,0.0,0.0,0.0,0.0,0.0,0.0,0.0,0.0,0.0,0.0,0.0,0.0,0.0,0.0,0.0,0.0,0.0,0.0,0.0,0.0,0.0,0.0,0.0,0.0,0.0,0.0,0.0,0.0,0.0,0.0,0.0,0.0,0.0,0.0,0.0,0.0,0.0,0.0,0.0,0.0,0.0,0.0,0.0,0.0,0.0,0.0,0.0,0.0,0.0,0.0,0.0,2.5344,2.5135,2.3805,2.3018,2.2831,2.1257,2.0385,0.0,0.0,0.0,0.0,0.0,0.0,0.0,0.0,0.0,0.0,0.0,0.0,0.0,0.0,0.0,0.0,0.0,0.0,0.0,0.0,0.0,0.0,0.0,0.0,0.0,0.0,0.0,0.0,0.0,0.0,0.0,0.0,0.0,0.0,0.0,0.0,0.0,0.0,0.0,0.0,0.0,0.0,0.0,0.0,0.0,0.0,0.0,0.0,1.9897,0.0,0.0,0.0,0.0,0.0,0.0,0.0,0.0,0.0,0.0,0.0,0.0,0.0,0.0,0.0,0.0,0.0,0.0,0.0,0.0,0.0,0.0,0.0,0.0,0.0,0.0,0.0,0.0,0.0,0.0,0.0,0.0,0.0,0.0,0.0,0.0,0.0,0.0,0.0,0.0,0.0,0.0,0.0,0.0,0.0,0.0,0.0,0.0,0.0,0.0,0.0,0.0,0.0,0.0,0.0,0.0,0.0,0.0,0.0,2.5698,2.5644,2.4002,2.3099,2.3029,2.1342,2.0381,0.0,0.0,0.0,0.0,0.0,0.0,0.0,0.0,0.0,0.0,0.0,0.0,0.0,0.0,0.0,0.0,0.0,0.0,0.0,0.0,0.0,0.0,0.0,0.0,0.0,0.0,0.0,0.0,0.0,0.0,0.0,0.0,0.0,0.0,0.0,0.0,0.0,0.0,0.0,0.0,0.0,0.0,0.0,0.0,0.0,0.0,0.0,0.0,0.0,0.0,0.0,0.0,0.0,0.0,0.0,0.0,0.0,0.0,0.0,0.0,0.0,0.0,0.0,0.0,0.0,0.0,0.0,0.0,0.0,0.0,0.0,0.0,0.0,0.0,0.0,0.0,0.0,0.0,0.0,0.0,0.0,0.0,0.0,0.0,0.0,0.0,0.0,0.0,0.0,0.0,0.0,0.0,0.0,0.0,0.0,0.0,0.0,0.0,0.0,0.0,0.0,0.0,0.0,0.0,0.0,0.0,0.0,2.5706,2.5698,2.5644,2.4002,2.3097,2.3066,2.134,2.0456,2.0572,0.0,0.0,0.0,0.0,0.0,0.0,0.0,0.0,0.0,0.0,0.0,0.0,0.0,0.0,0.0,0.0,0.0,0.0,0.0,0.0,0.0,0.0,0.0,0.0,0.0,0.0,0.0,0.0,0.0,0.0,0.0,0.0,0.0,0.0,0.0,0.0,0.0,0.0,2.091,1.9984,0.0,0.0,0.0,0.0,0.0,0.0,0.0,0.0,1.7874,0.0,0.0,0.0,0.0,0.0,0.0,0.0,0.0,0.0,0.0,0.0,0.0,0.0,0.0,0.0,0.0,0.0,0.0,0.0,0.0,0.0,0.0,0.0,0.0,0.0,0.0,0.0,0.0,0.0,0.0,0.0,0.0,0.0,0.0,0.0,0.0,0.0,0.0,0.0,0.0,0.0,0.0,0.0,0.0,0.0,0.0,0.0,0.0,0.0,0.0,0.0,0.0,0.0,0.0,0.0,0.0,2.5689,2.5703,2.5695,2.5663,2.3996,2.3105,2.3053,2.1351,2.0681,2.1285,0.0,0.0,0.0,0.0,0.0,0.0,0.0,0.0,0.0,0.0,0.0,0.0,0.0,0.0,0.0,0.0,0.0,0.0,0.0,0.0,0.0,0.0,0.0,0.0,0.0,0.0,0.0,0.0,0.0,0.0,0.0,0.0,0.0,0.0,0.0,0.0,0.0,0.0,0.0,1.9555,1.8988,0.0,0.0,0.0,0.0,0.0,0.0,0.0,0.0,1.7079,0.0,0.0,0.0,0.0,0.0,0.0,0.0,0.0,0.0,0.0,0.0,0.0,0.0,0.0,0.0,0.0,0.0,0.0,0.0,0.0,0.0,0.0,0.0,0.0,0.0,0.0,0.0,0.0,0.0,0.0,0.0,0.0,0.0,0.0,0.0,0.0,0.0,0.0,0.0,0.0,0.0,0.0,0.0,0.0,0.0,0.0,0.0,0.0,0.0,0.0,0.0,0.0,0.0,0.0,0.0,2.5653,2.5675,2.569,2.564,2.399,2.3092,2.3003,2.1291,2.0701,0.0,0.0,0.0,0.0,0.0,0.0,0.0,0.0,0.0,0.0,0.0,0.0,0.0,0.0,0.0,0.0,0.0,0.0,0.0,0.0,0.0,0.0,0.0,0.0,0.0,0.0,0.0,0.0,0.0,0.0,0.0,0.0,0.0,0.0,0.0,0.0,0.0,0.0,0.0,0.0,1.9398,1.8769,1.8161,0.0,0.0,0.0,0.0,0.0,0.0,1.6139,1.6278,0.0,0.0,0.0,0.0,0.0,0.0,0.0,0.0,0.0,0.0,0.0,0.0,0.0,0.0,0.0,0.0,0.0,0.0,0.0,0.0,0.0,0.0,0.0,0.0,0.0,0.0,0.0,0.0,0.0,0.0,0.0,0.0,0.0,0.0,0.0,0.0,0.0,0.0,0.0,0.0,0.0,0.0,0.0,0.0,0.0,0.0,0.0,0.0,0.0,0.0,0.0,0.0,0.0,0.0,0.0,2.5598,2.5642,2.5697,2.5608,2.3974,2.3044,2.2953,2.1204,2.0669,0.0,0.0,0.0,0.0,0.0,0.0,0.0,0.0,0.0,0.0,0.0,0.0,0.0,0.0,0.0,0.0,0.0,0.0,0.0,0.0,0.0,0.0,0.0,0.0,0.0,0.0,0.0,0.0,0.0,0.0,0.0,0.0,0.0,0.0,0.0,0.0,0.0,0.0,0.0,0.0,0.0,1.8798,1.8115,1.7781,0.0,0.0,0.0,0.0,1.5836,1.5669,0.0,0.0,0.0,0.0,0.0,0.0,0.0,0.0,0.0,0.0,0.0,0.0,0.0,0.0,0.0,0.0,0.0,0.0,0.0,0.0,0.0,0.0,0.0,0.0,0.0,0.0,0.0,0.0,0.0,0.0,0.0,0.0,0.0,0.0,0.0,0.0,0.0,0.0,0.0,0.0,0.0,0.0,0.0,0.0,0.0,0.0,0.0,0.0,0.0,0.0,0.0,0.0,0.0,0.0,0.0,0.0,2.5604,2.5613,2.5601,2.5538,2.3917,2.2985,2.2895,2.1096,2.0799,0.0,0.0,0.0,0.0,0.0,0.0,0.0,0.0,0.0,0.0,0.0,0.0,0.0,0.0,0.0,0.0,0.0,0.0,0.0,0.0,0.0,0.0,0.0,0.0,0.0,0.0,0.0,0.0,0.0,0.0,0.0,0.0,0.0,0.0,0.0,0.0,0.0,0.0,0.0,0.0,0.0,1.9255,1.8519,1.8147,1.776,0.0,0.0,1.6256,1.5724,1.5546,0.0,0.0,0.0,0.0,0.0,0.0,0.0,0.0,0.0,0.0,0.0,0.0,0.0,0.0,0.0,0.0,0.0,0.0,0.0,0.0,0.0,0.0,0.0,0.0,0.0,0.0,0.0,0.0,0.0,0.0,0.0,0.0,0.0,0.0,0.0,0.0,0.0,0.0,0.0,0.0,0.0,0.0,0.0,0.0,0.0,0.0,0.0,0.0,0.0,0.0,0.0,0.0,0.0,0.0,0.0,2.5482,2.5546,2.5571,2.5583,2.5489,2.3839,2.2894,2.2786,2.0929,2.0659,0.0,0.0,0.0,0.0,0.0,0.0,0.0,0.0,0.0,0.0,0.0,0.0,0.0,0.0,0.0,0.0,0.0,0.0,0.0,0.0,0.0,0.0,0.0,0.0,0.0,0.0,0.0,0.0,0.0,0.0,0.0,0.0,0.0,0.0,0.0,0.0,0.0,0.0,0.0,0.0,0.0,0.0,1.9066,1.8727,0.0,0.0,0.0,1.6849,1.6352,0.0,0.0,0.0,0.0,0.0,0.0,0.0,0.0,0.0,0.0,0.0,0.0,0.0,0.0,0.0,0.0,0.0,0.0,0.0,0.0,0.0,0.0,0.0,0.0,0.0,0.0,0.0,0.0,0.0,0.0,0.0,0.0,0.0,0.0,0.0,0.0,0.0,0.0,0.0,0.0,0.0,0.0,0.0,0.0,0.0,0.0,0.0,0.0,0.0,0.0,0.0,0.0,0.0,0.0,0.0,0.0,0.0,2.5478,2.5538,2.5547,2.5431,2.3952,2.299,2.2633,2.1159,0.0,0.0,0.0,0.0,0.0,0.0,0.0,0.0,0.0,0.0,0.0,0.0,0.0,0.0,0.0,0.0,0.0,0.0,0.0,0.0,0.0,0.0,0.0,0.0,0.0,0.0,0.0,2.3771,0.0,0.0,0.0,0.0,0.0,0.0,0.0,0.0,0.0,0.0,0.0,0.0,0.0,0.0,2.0521,1.9801,1.9495,1.9148,0.0,0.0,1.7632,1.719,1.687,1.6748,0.0,0.0,0.0,0.0,0.0,0.0,0.0,0.0,0.0,0.0,0.0,0.0,0.0,0.0,0.0,0.0,0.0,0.0,0.0,0.0,0.0,0.0,0.0,0.0,0.0,0.0,0.0,0.0,0.0,0.0,0.0,0.0,0.0,0.0,0.0,0.0,0.0,0.0,0.0,0.0,0.0,0.0,0.0,0.0,0.0,0.0,0.0,0.0,0.0,0.0,0.0,0.0,0.0,0.0,2.5395,2.541,2.5476,2.5472,2.5371,2.4379,2.3417,2.253,2.2133,2.1932,0.0,0.0,0.0,0.0,0.0,0.0,0.0,0.0,0.0,0.0,0.0,0.0,0.0,0.0,0.0,0.0,0.0,0.0,0.0,0.0,0.0,0.0,0.0,0.0,0.0,0.0,0.0,0.0,0.0,0.0,0.0,0.0,0.0,0.0,0.0,0.0,0.0,0.0,0.0,0.0,0.0,2.1425,2.0863,2.0452,2.0058,0.0,1.9152,1.8698,1.8112,1.7834,1.7706,1.7727,0.0,0.0,0.0,0.0,0.0,0.0,0.0,0.0,0.0,0.0,0.0,0.0,0.0,0.0,0.0,0.0,0.0,0.0,0.0,0.0,0.0,0.0,0.0,0.0,0.0,0.0,0.0,0.0,0.0,0.0,0.0,0.0,0.0,0.0,0.0,0.0,0.0,0.0,0.0,0.0,0.0,0.0,0.0,0.0,0.0,0.0,0.0,0.0,0.0,0.0,0.0,0.0,0.0,2.5356,2.5395,2.5423,2.5415,2.5312,2.4408,2.3662,2.319,2.2383,2.2154,0.0,0.0,0.0,0.0,0.0,0.0,0.0,0.0,0.0,0.0,0.0,0.0,0.0,0.0,0.0,0.0,0.0,0.0,0.0,0.0,0.0,0.0,0.0,0.0,0.0,0.0,0.0,0.0,2.3827,2.3707,2.3473,0.0,0.0,0.0,0.0,0.0,0.0,0.0,0.0,0.0,0.0,2.2221,2.1763,2.1441,0.0,0.0,2.027,1.9873,1.9339,1.9008,1.8764,1.8736,1.8864,0.0,0.0,0.0,0.0,0.0,0.0,0.0,0.0,0.0,0.0,0.0,0.0,0.0,0.0,0.0,0.0,0.0,0.0,0.0,0.0,0.0,0.0,0.0,0.0,0.0,0.0,2.5203,2.5212,0.0,0.0,0.0,0.0,0.0,0.0,0.0,0.0,0.0,0.0,0.0,0.0,0.0,0.0,0.0,0.0,0.0,0.0,0.0,0.0,0.0,0.0,0.0,0.0,2.5793,2.6135,2.5893,2.5783,2.5702,2.48,2.4089,2.3631,2.3015,2.2759,0.0,0.0,0.0,0.0,0.0,0.0,0.0,0.0,0.0,0.0,0.0,0.0,0.0,0.0,0.0,0.0,0.0,0.0,0.0,0.0,0.0,0.0,0.0,0.0,0.0,0.0,0.0,0.0,2.4049,2.3949,2.3798,0.0,0.0,0.0,0.0,0.0,0.0,0.0,0.0,0.0,0.0,2.3646,2.3275,2.2982,2.2658,2.2282,2.1922,2.1567,2.1184,2.0806,2.0541,2.0502,0.0,0.0,0.0,0.0,0.0,0.0,0.0,0.0,0.0,0.0,0.0,0.0,0.0,0.0,0.0,0.0,0.0,0.0,0.0,0.0,0.0,0.0,0.0,0.0,0.0,0.0,0.0,2.5212,0.0,0.0,2.5201,0.0,0.0,0.0,0.0,0.0,0.0,0.0,0.0,0.0,0.0,0.0,0.0,0.0,0.0,0.0,0.0,0.0,0.0,0.0,0.0,0.0,0.0,2.6847,2.7798,2.7049,2.6663,2.6621,2.5696,2.4713,2.379,2.4189,2.3996,2.305,0.0,0.0,0.0,0.0,0.0,0.0,0.0,0.0,0.0,0.0,0.0,0.0,0.0,0.0,0.0,0.0,0.0,0.0,0.0,0.0,0.0,0.0,0.0,0.0,0.0,0.0,2.4367,2.4339,2.4266,0.0,0.0,0.0,0.0,0.0,0.0,0.0,0.0,0.0,2.5256,2.5714,2.5913,2.564,2.527,2.4846,2.4545,2.4214,2.3931,2.3621,2.3356,2.3235,0.0,0.0,0.0,0.0,0.0,0.0,0.0,0.0,0.0,0.0,0.0,0.0,0.0,0.0,0.0,0.0,0.0,0.0,0.0,0.0,0.0,0.0,0.0,0.0,0.0,0.0,0.0,2.5181,2.5201,0.0,0.0,0.0,0.0,0.0,0.0,0.0,0.0,0.0,0.0,0.0,2.5968,2.4941,0.0,0.0,0.0,0.0,0.0,0.0,0.0,0.0,0.0,0.0,0.0,0.0,2.7403,2.7923,2.7696,2.7268,2.6699,2.6303,2.5646,2.4598,2.4657,2.4441,2.3951,0.0,0.0,0.0,0.0,0.0,0.0,0.0,0.0,0.0,0.0,0.0,0.0,0.0,0.0,0.0,0.0,0.0,0.0,0.0,0.0,0.0,0.0,0.0,0.0,0.0,2.494,0.0,0.0,0.0,0.0,0.0,0.0,0.0,0.0,0.0,0.0,2.5938,2.6496,2.6506,2.6541,2.6484,2.6263,2.5967,2.5684,0.0,0.0,0.0,0.0,0.0,0.0,0.0,0.0,0.0,0.0,0.0,0.0,0.0,0.0,2.7125,2.4457,2.4074,2.4185,2.4214,0.0,0.0,0.0,0.0,0.0,0.0,0.0,0.0,0.0,0.0,0.0,0.0,0.0,0.0,2.6102,2.6115,2.617,0.0,0.0,0.0,0.0,0.0,0.0,0.0,0.0,2.9179,2.8974,2.8453,2.7357,2.6273,2.5248,2.4186,2.3319,0.0,0.0,0.0,0.0,0.0,0.0,0.0,0.0,2.827,2.8874,2.8644,2.8094,2.7249,2.6854,2.618,2.5191,2.493,2.4723,2.4515,2.4347,2.4257,0.0,0.0,0.0,0.0,0.0,0.0,0.0,0.0,0.0,0.0,0.0,0.0,0.0,0.0,0.0,0.0,0.0,0.0,0.0,0.0,0.0,0.0,0.0,2.5912,0.0,0.0,0.0,0.0,0.0,0.0,0.0,0.0,0.0,2.6567,2.7179,2.7692,2.7662,2.7752,2.7744,2.7532,0.0,0.0,0.0,0.0,0.0,0.0,0.0,2.6911,2.6584,2.6541,2.6782,2.7464,2.8856,2.9913,3.0015,0.0,0.0,2.6743,2.624,2.6211,2.5966,2.6072,2.6254,2.6384,2.6287,2.6097,0.0,0.0,0.0,0.0,2.8036,0.0,0.0,0.0,2.7863,2.7804,0.0,2.7819,0.0,0.0,0.0,0.0,2.9334,2.909,0.0,0.0,3.0992,3.0866,3.1111,3.0215,2.9095,2.7759,2.6238,2.4998,2.4082,2.2871,2.2257,0.0,0.0,0.0,0.0,0.0,2.9454,3.0556,2.9897,2.9121,2.8256,2.7328,2.6391,2.543,2.5077,2.4847,2.4704,2.4518,2.4355,2.4201,2.4237,0.0,0.0,0.0,0.0,0.0,0.0,0.0,0.0,0.0,0.0,0.0,0.0,0.0,0.0,0.0,0.0,0.0,0.0,0.0,0.0,2.6934,0.0,0.0,0.0,0.0,0.0,0.0,0.0,0.0,0.0,2.8854,2.7988,2.8458,2.8874,2.8844,0.0,0.0,0.0,0.0,3.0309,3.0136,3.0691,3.1065,3.1065,3.0906,3.0557,2.9939,0.0,0.0,3.0185,3.0972,3.16,3.1722,3.1808,3.1298,2.9737,2.9326,2.9084,2.8466,2.8365,2.8443,2.8498,2.8099,2.7712,3.2481,0.0,0.0,0.0,0.0,3.0833,3.0584,3.0501,2.9252,2.872,2.8712,2.8712,0.0,0.0,0.0,0.0,0.0,0.0,3.275,3.2987,3.3669,3.3794,3.3354,3.2461,3.1545,3.0592,2.9279,2.8273,2.7565,2.7267,2.6375,2.4967,0.0,0.0,0.0,0.0,3.0851,3.1448,3.0794,2.9994,2.9152,2.825,2.7023,2.5444,2.5226,2.5055,2.4915,2.4716,2.4539,2.4348,2.476,0.0,0.0,0.0,0.0,0.0,0.0,0.0,0.0,0.0,0.0,0.0,0.0,0.0,0.0,0.0,0.0,0.0,0.0,0.0,2.774,2.7951,2.7918,0.0,0.0,0.0,0.0,0.0,0.0,0.0,0.0,0.0,3.1486,3.1089,3.0981,0.0,0.0,3.1678,3.1421,3.1549,3.158,3.1413,3.1578,0.0,3.1675,3.1615,3.1533,3.1395,3.1426,3.1522,3.1741,3.243,3.3034,3.3118,3.3629,3.3715,3.2653,3.1693,3.1036,3.0768,3.0778,3.0668,3.0205,2.9914,2.9483,3.6977,3.5333,3.394,3.3619,3.3972,3.3429,3.3006,3.2622,3.1583,3.0935,3.0608,3.0608,3.0609,3.0662,3.1907,0.0,0.0,0.0,3.4971,3.5257,3.5945,3.6152,3.5906,3.5261,3.442,3.3404,3.239,3.147,3.0672,3.0742,3.0319,2.9419,0.0,3.0582,3.1826,3.2175,3.2215,3.1954,3.1537,3.0745,2.9562,2.8353,2.7162,2.6045,2.5518,2.5216,2.5086,2.4881,2.4657,2.4384,2.4963,2.5202,0.0,0.0,0.0,0.0,0.0,0.0,0.0,0.0,0.0,0.0,0.0,2.6677,2.668,0.0,0.0,0.0,2.8074,2.8657,2.8811,2.9291,0.0,0.0,0.0,0.0,0.0,0.0,0.0,3.2343,3.2457,3.2742,3.3504,3.3059,3.2686,3.2716,3.2676,3.2564,3.2377,0.0,3.2788,3.2666,3.2958,3.3176,3.3137,3.3147,3.3082,3.2831,3.2912,3.3016,3.3159,3.381,3.4354,3.4491,3.4882,3.5066,3.4556,3.3794,3.2938,3.2193,3.2059,3.1816,3.1073,3.0913,3.0536,4.1265,4.0925,3.7687,3.6225,3.6014,3.5868,3.5348,3.4623,3.4462,3.3975,3.3224,3.3199,3.3237,3.332,3.3937,0.0,3.6247,3.6107,3.6772,3.8065,3.7888,3.8061,3.8493,3.8182,3.7399,3.6154,3.544,3.4609,3.3674,3.3644,3.4058,3.4845,3.3564,3.3035,3.3375,3.3935,3.3598,3.2337,3.217,3.1266,2.9608,2.8034,2.715,2.6996,2.6039,2.5464,2.5304,2.5063,2.4723,2.4345,2.5002,2.5265,2.5046,0.0,0.0,0.0,0.0,0.0,0.0,0.0,0.0,0.0,0.0,0.0,0.0,0.0,0.0,2.8343,2.9214,0.0,3.0012,3.082,0.0,0.0,0.0,3.3164,3.3278,3.3295,3.3348,3.3401,0.0,0.0,3.4419,3.4443,3.4079,3.3231,3.299,3.2893,3.2825,3.3476,3.3936,3.39,3.4509,3.4996,3.4835,3.4925,3.4756,3.4203,3.425,3.433,3.4406,3.4958,3.5486,3.554,3.5609,3.5604,3.5609,3.543,3.4943,3.3146,3.2762,3.2435,3.1597,3.1369,3.111,4.3078,4.2978,4.2075,4.0878,3.9525,3.878,3.835,3.8067,3.6736,3.6054,3.5881,3.5828,3.6147,3.6733,3.6869,3.7461,3.8363,3.8285,3.8708,3.9546,3.9575,3.9585,3.9614,3.9431,3.9078,3.8565,3.803,3.7641,3.7389,3.7343,3.7625,3.8212,3.8177,3.7559,3.637,3.5621,3.5169,3.4991,3.3077,3.1273,2.9591,2.9113,2.8587,2.7907,2.697,2.6405,2.6261,2.5428,2.4809,2.451,2.5565,2.6107,2.5909,2.7212,0.0,0.0,0.0,0.0,0.0,0.0,0.0,0.0,0.0,2.8726,2.8776,0.0,2.9326,0.0,3.118,3.1868,3.1992,3.2313,0.0,0.0,3.3033,3.3267,3.3305,3.3353,3.3615,3.43,3.4333,3.4598,3.5363,3.5369,3.5206,3.4981,3.4839,3.4728,3.4691,3.4806,3.494,3.4955,3.5085,3.5227,3.5243,3.5328,3.5355,3.5251,3.533,3.543,3.5442,3.5582,3.5733,3.5741,3.5741,3.5741,3.5741,3.5747,3.5582,3.5051,3.4822,3.4198,3.2766,3.2354,3.19,4.4863,4.486,4.4781,4.4156,4.3109,4.1766,4.0748,3.9952,3.8987,3.8144,3.7411,3.7346,3.7973,3.9083,3.9102,3.9734,4.0846,4.0843,4.087,4.09,4.0942,4.0732,4.0314,4.0217,4.0042,3.9843,3.9545,3.9415,3.9418,3.9403,3.9601,3.9975,4.0259,3.9912,3.8957,3.7909,3.6878,3.585,3.37,3.1928,3.057,3.0175,2.9574,2.8729,2.7799,2.709,2.6574,2.5972,2.5446,2.5126,2.6079,2.6704,2.6879,2.8003,2.8889,0.0,0.0,0.0,0.0,0.0,0.0,0.0,0.0,0.0,0.0,0.0,3.1132,3.1703,3.2325,3.2716,3.2826,3.3293,3.3644,3.3751,3.4197,3.4493,3.4491,3.4527,3.4744,3.5229,3.5217,3.5324,3.5713,3.5679,3.5612,3.5604,3.5509,3.5429,3.5412,3.5415,3.5422,3.5386,3.54,3.5402,3.5435,3.5527,3.5612,3.5684,3.5772,3.5846,3.5878,3.5886,3.5903,3.5886,3.5886,3.5886,3.5883,3.5859,3.5826,3.5741,3.5625,3.4885,3.3263,3.2545,3.1828,4.6288,4.6301,4.6233,4.6202,4.6089,4.446,4.2767,4.1153,4.1039,4.0064,3.8529,3.8479,3.9316,4.0771,4.0797,4.1718,4.3271,4.3091,4.2686,4.2121,4.1872,4.14,4.0734,4.0641,4.0549,4.0409,4.0323,4.0277,4.0282,4.0371,4.0529,4.0703,4.0834,4.0894,4.084,4.0071,3.837,3.5714,3.4163,3.2912,3.1867,3.1173,3.0393,2.9571,2.87,2.7812,2.6855,2.6628,2.6367,2.6062,2.6628,2.7224,2.7732,2.8585,2.948,0.0,3.0505,0.0,0.0,0.0,0.0,0.0,0.0,0.0,0.0,3.2594,3.2791,3.2986,3.3159,3.3291,3.336,3.4167,3.4685,3.4783,3.5498,3.6004,3.601,3.6019,3.5996,3.5988,3.5931,3.5836,3.5711,3.5634,3.5614,3.5604,3.556,3.5509,3.5534,3.5547,3.5566,3.5502,3.5502,3.5515,3.5572,3.5654,3.5704,3.578,3.5833,3.5919,3.5979,3.6003,3.6003,3.6003,3.6001,3.6003,3.6005,3.5946,3.5883,3.5811,3.5639,3.4943,3.3426,3.2496,3.158,4.6306,4.6306,4.6285,4.628,4.6249,4.5906,4.4738,4.3023,4.2256,4.1315,4.0319,4.0294,4.0856,4.1798,4.1867,4.28,4.43,4.3056,4.2731,4.3139,4.1793,4.1062,4.0853,4.0735,4.0586,4.0403,4.0281,4.0219,4.0227,4.0414,4.0589,4.0766,4.0857,4.0839,4.0733,0.0,0.0,0.0,3.4634,3.3674,3.2201,3.2039,3.1633,3.0855,3.01,0.0,2.8459,2.7688,2.7215,2.7111,2.7631,0.0,0.0,0.0,0.0,0.0,0.0,0.0,0.0,0.0,0.0,0.0,3.35,3.3195,3.2654,3.3318,3.3864,3.4012,3.4704,3.5204,3.5255,3.5482,3.5621,3.5663,3.5862,3.601,3.6012,3.6013,3.5986,3.5936,3.5878,3.5799,3.5747,3.5643,3.5614,3.5604,3.5577,3.5606,3.5651,3.5623,3.5595,3.557,3.5584,3.5578,3.5589,3.5667,3.5703,3.5803,3.5859,3.5916,3.5979,3.6003,3.6003,3.6003,3.6005,3.6005,3.6003,3.5955,3.5894,3.5888,3.529,3.4398,3.3309,3.2929,3.2299,4.6304,4.6289,4.6289,4.6288,0.0,4.6302,4.5552,4.4261,4.3743,4.3027,4.2196,4.215,4.2621,4.3445,4.3471,4.4195,4.539,4.4156,4.3597,4.3521,4.2277,4.1403,4.0898,4.0777,4.0571,4.0337,4.0223,4.0167,4.0203,4.0388,4.0545,4.0747,4.0819,4.0763,4.0537,3.9752,3.8299,3.6147,3.5518,3.4383,3.2846,3.2879,3.2446,3.142,3.0768,0.0,0.0,0.0,0.0,0.0,0.0,0.0,0.0,3.0673,3.1545,3.2057,3.256,3.3081,3.3582,3.3754,3.4064,3.4549,3.4676,3.4488,3.3995,3.4505,3.4879,3.494,3.544,3.576,3.5802,3.5859,3.5916,3.5949,3.5958,3.5941,3.598,3.6302,3.6516,3.654,3.6771,3.6836,3.6357,3.623,3.6003,3.5675,3.5608,3.5635,3.5728,3.5723,3.5702,3.5651,3.5614,3.561,3.562,3.5612,3.566,3.5732,3.5794,3.5872,3.5955,3.5963,3.5948,3.5948,3.5948,3.5948,3.5926,3.5894,3.5852,3.5807,3.5446,3.4811,3.391,3.3045,3.2185,4.6674,4.6523,4.6543,4.6445,4.6289,4.6288,4.5897,4.5193,4.4841,0.0,0.0,4.3575,4.4026,4.4815,4.4841,4.5348,4.6134,4.516,4.4336,4.3668,4.2636,4.1735,4.0926,4.0762,4.0591,4.0348,4.0219,4.021,4.0266,4.0402,4.0529,4.0701,4.0742,4.06,4.0253,3.9164,3.8163,3.7389,3.6261,3.4945,3.3498,3.3528,3.3007,3.1818,3.1352,3.079,3.0147,2.9607,2.9333,2.9382,3.0005,3.0652,3.1274,3.2098,3.2882,3.36,3.3854,3.4315,3.507,3.5212,3.5258,3.5316,3.5383,3.5412,3.542,3.5509,3.5584,3.5581,3.5718,3.5778,3.5806,3.5859,3.5892,3.5964,3.5919,3.5934,3.6124,3.6663,3.7099,3.7331,3.7797,3.7871,3.6969,3.6787,3.6498,3.5804,3.5622,3.5665,3.5757,3.5799,3.5785,3.5728,3.566,3.5622,3.562,3.5623,3.5609,3.5694,3.5736,3.5802,3.5862,3.5859,3.5869,3.5843,3.5869,3.5891,3.5891,3.5827,3.5783,3.5784,3.5726,3.5466,3.4689,3.3362,3.2306,4.8102,4.7422,4.7422,4.6992,4.6289,4.6289,4.6249,4.5994,4.4515,4.3794,4.3687,4.3684,4.4151,4.4974,4.4972,4.5449,4.6174,4.4602,4.3807,4.3613,4.2021,4.1166,4.099,4.0854,4.0715,4.0551,4.048,4.0488,4.0554,4.0621,4.071,4.0762,4.0624,4.0386,4.0019,3.9199,3.8307,3.7405,3.6161,3.5039,3.4014,3.3635,3.316,3.2586,3.2342,3.1997,3.1472,3.1571,3.1786,3.1965,3.2137,3.2257,3.2382,3.3162,3.3655,3.3868,3.456,3.5078,3.528,3.5339,3.5398,3.5472,3.5486,3.5474,3.5474,3.5489,3.5521,3.5595,3.5662,3.5732,3.5799,3.5811,3.5836,3.5856,3.5837,3.6103,3.6825,3.7028,3.7383,3.8035,3.8161,3.7904,3.7096,3.6871,3.6568,3.5823,3.5602,3.5646,3.5752,3.5797,3.5797,3.577,3.5669,3.5615,3.5595,3.5587,3.5599,3.5618,3.5674,3.5684,3.5732,3.5735,3.5747,3.5728,3.5764,3.5792,3.5815,3.5775,3.5711,3.5708,3.5659,3.553,3.5328,3.453,3.3699,4.867,4.8242,4.7793,4.7363,4.6973,4.6504,4.6288,4.6245,4.545,4.5111,4.5132,4.5112,4.533,4.5685,4.5694,4.5913,4.6227,4.4979,4.4414,4.4276,4.259,4.1789,4.1646,4.1169,4.0839,4.0767,4.0706,4.0699,4.0758,4.0769,4.0735,4.0733,4.0733,4.0677,4.0525,3.9352,3.8306,3.7404,3.6118,3.4959,3.4016,3.4034,3.3685,3.2897,3.2744,3.2511,3.22,3.2118,3.2223,3.2486,3.3032,3.339,3.3437,3.4163,3.484,3.5323,3.5775,3.622,3.6684,3.6334,3.5928,3.5538,3.55,3.55,3.55,3.5502,3.5522,3.5534,3.5612,3.5643,3.5694,3.5727,3.5924,3.6427,3.6423,3.6774,3.7575,3.8097,3.8452,3.8868,3.9251,3.8987,3.7668,3.748,3.6914,3.5856,3.5564,3.5637,3.5733,3.5718,3.5699,3.5679,3.5615,3.554,3.5502,3.5476,3.5457,3.547,3.5527,3.5538,3.5574,3.5602,3.5604,3.5639,3.5674,3.5684,3.5674,3.5659,3.5639,3.5648,3.5629,3.562,3.5543,3.5303,3.4691,4.9238,4.8808,4.8183,4.7676,4.7265,4.6598,4.6301,4.6276,4.6259,4.6275,4.6282,4.6288,4.6294,4.6301,4.6305,4.6288,4.6191,4.5391,4.5019,4.4842,4.3414,4.2666,4.2554,4.1876,4.1458,4.1241,4.1148,4.103,4.0897,4.097,4.1034,4.1081,4.1281,4.1397,4.1303,3.9805,3.861,3.7758,3.628,3.507,3.4176,3.4353,3.415,3.3483,3.3159,3.3027,3.3007,3.2704,3.2671,3.3039,3.3846,3.4328,3.4407,3.5158,3.5913,3.6554,3.6872,3.7252,3.7816,3.7351,3.6731,3.6115,3.6058,3.6058,3.6065,3.6054,3.5888,3.5586,3.5559,3.5653,3.5875,3.5936,3.6287,3.711,3.7215,3.7533,3.8373,3.9007,3.9476,3.9663,4.0193,3.9964,3.877,3.8145,3.7298,3.5894,3.5564,3.561,3.5646,3.5604,3.555,3.5514,3.547,3.5423,3.5383,3.5304,3.5258,3.53,3.5319,3.5355,3.539,3.5424,3.5464,3.5509,3.5534,3.5546,3.557,3.5558,3.5546,3.5559,3.556,3.556,3.5595,3.5649,3.5299,5.0253,4.9004,4.8769,4.7849,4.6478,4.633,4.6261,4.623,4.6203,4.6212,4.6217,4.6269,4.6306,4.6295,4.6305,4.6288,4.623,4.5391,4.5039,4.494,4.4022,4.3572,4.3553,4.3378,4.2949,4.2243,4.2087,4.1664,4.101,4.1445,4.1848,4.2186,4.2643,4.2588,4.2026,4.0745,3.9663,3.8916,3.6909,3.5515,3.4837,3.4368,3.429,3.4626,3.398,3.388,3.4306,3.4185,3.4231,3.4576,3.4963,3.5185,3.5296,3.6053,3.6628,3.6762,3.7462,3.7923,3.8,3.793,3.7834,3.7777,3.768,3.768,3.768,3.7719,3.7086,3.5984,3.5554,3.5971,3.6575,3.6697,3.707,3.7887,3.7997,3.8331,3.9109,3.9287,3.9593,4.0422,4.0469,4.015,3.9234,3.8399,3.7291,3.5727,3.5554,3.5559,3.554,3.5483,3.5381,3.53,3.5278,3.5285,3.5226,3.5113,3.507,3.5051,3.5077,3.5119,3.5144,3.5231,3.5324,3.5308,3.5268,3.5273,3.5318,3.5415,3.5306,3.5129,3.5206,3.5417,3.5558,3.5654,3.5288,5.0272,4.9525,4.8547,4.741,4.6329,4.6232,4.6236,4.6201,4.617,4.6153,4.6199,4.6237,4.6269,4.6294,4.6304,4.6288,4.6269,4.5937,4.5781,4.5703,4.484,4.4406,4.4366,4.3842,4.3372,4.3011,4.2887,4.2597,4.2176,4.2093,4.2351,4.2787,4.2996,4.31,4.3098,4.151,4.0366,3.9814,3.7741,3.6411,3.5994,3.5421,3.5043,3.5005,3.5108,3.4951,3.4661,3.4837,3.5184,3.5551,3.585,3.6293,3.6879,3.7281,3.7719,3.8219,3.9015,3.9258,3.8803,3.8757,3.8546,3.8046,3.8007,3.8007,3.8007,3.8007,3.7688,3.7144,3.6958,3.7151,3.7473,3.7511,3.7858,3.8609,3.8821,3.9148,3.9937,4.0007,4.0192,4.05,4.0504,4.0189,3.9323,3.8084,3.6822,3.5739,3.5528,3.5528,3.5489,3.5427,3.532,3.5226,3.5141,3.5046,3.4983,3.4917,3.487,3.4831,3.4831,3.486,3.4908,3.4963,3.5028,3.51,3.4759,3.4522,3.4446,3.4022,3.3769,3.3993,3.448,3.4712,3.4826,3.5296,3.5452,4.9638,4.9178,4.7824,4.6819,4.618,4.6173,4.6151,4.6146,4.6095,4.6111,4.6181,4.6183,4.6231,4.629,4.6302,4.6288,4.6289,4.6287,4.6305,4.6225,4.5561,4.525,4.5146,4.4585,4.4078,4.3802,4.3637,4.3441,4.3127,4.2778,4.2907,4.3417,4.3484,4.366,4.3916,4.2326,4.1259,4.063,3.8828,3.765,3.7234,3.6738,3.6209,3.574,3.6072,3.5998,3.5357,3.5689,3.6069,3.6424,3.6717,3.7193,3.7901,3.82,3.8719,3.9554,4.0169,4.0246,3.9642,3.965,3.9361,3.8777,3.8681,3.87,3.8681,3.87,3.8681,3.8688,3.8681,3.8623,3.8373,3.8354,3.8719,3.9496,3.9631,3.99,4.04,4.0496,4.0477,4.0496,4.0496,4.0073,3.9034,3.7873,3.6776,3.5757,3.5488,3.5474,3.546,3.5372,3.5258,3.5182,3.5046,3.4927,3.4809,3.4728,3.4687,3.4655,3.4645,3.4678,3.4711,3.4732,3.4752,3.4784,3.4103,3.3722,3.3814,3.3221,3.258,3.2817,3.3314,3.3961,3.432,3.4897,3.5396,4.8388,4.7554,4.6632,4.6229,4.6115,4.6115,4.6056,4.6017,4.6007,4.6052,4.6102,4.6181,4.6237,4.6302,4.6297,4.6304,4.6306,4.6303,4.6299,4.629,4.6155,4.6083,4.604,4.5877,4.5297,4.4505,4.433,4.4011,4.3538,4.341,4.3702,4.4294,4.4392,4.4479,4.4347,4.3429,4.2541,4.1645,4.0355,3.9287,3.8475,3.8225,3.7766,3.7107,3.6738,3.6787,3.6958,3.6909,3.7006,3.7334,3.7602,3.7822,3.8024,3.8781,3.9592,4.0304,4.0458,4.0496,4.0419,4.0381,4.0323,4.0323,4.0189,4.0323,4.015,4.015,4.015,4.0323,4.0169,3.9931,3.9361,3.9219,3.9534,4.0227,4.04,4.0439,4.0477,4.0496,4.0496,4.0496,4.0496,3.9919,3.8392,3.8027,3.7142,3.6038,3.5538,3.5474,3.542,3.5338,3.527,3.5174,3.5081,3.4983,3.4759,3.4666,3.4539,3.4484,3.4506,3.4487,3.4528,3.4561,3.4594,3.4446,3.3848,3.3446,3.3325,3.2949,3.2367,3.2363,3.2611,3.3125,3.3749,3.4168,3.4817,4.7366,4.6524,4.6199,4.6071,4.6037,4.5991,4.5964,4.5927,4.5947,4.5977,4.6093,4.6181,4.6234,4.6302,4.6287,4.6294,4.6299,4.6249,4.6234,4.6231,4.6169,4.6069,4.5964,4.5879,4.5652,4.5245,4.5103,4.4822,4.4367,4.4214,4.4285,4.4503,4.4655,4.4763,4.4722,4.4032,4.3408,4.298,4.1567,4.0503,4.0052,3.9414,3.8894,3.8578,3.8166,3.7818,3.7599,3.7748,3.7984,3.8289,3.8525,3.8912,3.9515,3.9873,4.0189,4.0458,4.0496,4.0496,4.0496,4.0496,4.0496,4.0496,4.0496,4.0496,4.0496,4.0496,4.0496,4.0496,4.0496,4.0323,4.0189,4.0073,4.0169,4.0419,4.0496,4.0496,4.0496,4.0496,4.0496,4.0496,4.0496,4.0015,3.9053,3.8354,3.7546,3.6488,3.5827,3.5551,3.546,3.5412,3.5335,3.5235,3.5182,3.51,3.4917,3.473,3.4583,3.4461,3.4404,3.4351,3.4351,3.4351,3.4386,3.4292,3.3706,3.2935,3.2649,3.1551,3.1186,3.1123,3.1442,3.2496,3.3152,3.3923,3.4812,4.6533,4.5975,4.5933,4.5943,4.5932,4.5893,4.5861,4.588,4.5886,4.5964,4.6065,4.6158,4.6231,4.629,4.6273,4.6249,4.6232,4.6177,4.615,4.6126,4.6056,4.5983,4.586,4.5787,4.5696,4.5571,4.5448,4.5205,4.487,4.4751,4.4706,4.4739,4.4872,4.5063,4.516,4.4771,4.443,4.396,4.2915,4.2124,4.1651,4.0755,4.0205,4.0003,3.95,3.8937,3.8394,3.8729,3.9029,3.9242,3.9447,3.9854,4.0423,4.0496,4.0496,4.0496,4.0496,4.0496,4.0496,4.0496,4.0496,4.0496,4.0496,4.0496,4.0496,4.0496,4.0496,4.0496,4.0496,4.0496,4.0496,4.0496,4.0496,4.0496,4.0496,4.0496,4.0496,4.0496,4.0496,4.0496,4.0496,4.0131,3.9438,3.8796,3.795,3.6892,3.6192,3.5865,3.5558,3.546,3.5412,3.5338,3.5285,3.5218,3.5081,3.4917,3.474,3.4615,3.4484,3.4374,3.4269,3.4245,3.416,3.4024,3.3486,3.2588,3.1567,3.0385,2.9972,2.9898,3.0713,3.1886,3.2828,3.3916,3.4725,4.5893,4.5814,4.5807,4.5793,4.5795,4.5795,4.5807,4.581,4.5866,4.5935,4.6027,4.6135,4.6248,4.6258,4.6236,4.6176,4.6135,4.6105,4.6088,4.6018,4.5929,4.5867,4.578,4.5743,4.5673,4.5586,4.535,4.5125,4.4931,4.49,4.4929,4.503,4.5186,4.5413,4.5703,4.5628,4.5373,4.4841,4.4426,4.3922,4.3112,4.2105,4.1493,4.1247,4.0526,3.9938,3.9595,3.9792,3.9957,4.0129,4.0311,4.046,4.0489,4.0496,4.0496,4.0496,4.0496,4.0496,4.0496,4.0496,4.0496,4.0496,4.0496,4.0496,4.0496,4.0496,4.0496,4.0496,4.0496,4.0496,4.0496,4.0496,4.0496,4.0496,4.0496,4.0496,4.0496,4.0496,4.0496,4.0496,4.0496,4.0169,3.9592,3.9207,3.8546,3.743,3.6827,3.6519,3.6038,3.5935,3.5633,3.5585,3.5645,3.5649,3.5387,3.5132,3.4955,3.479,3.4658,3.455,3.4397,3.4328,3.4197,3.4018,3.3383,3.2514,3.1853,3.0783,3.0273,3.0275,3.0967,3.1704,3.272,3.38,3.4515,4.5791,4.5727,4.5727,4.5743,4.5722,4.5742,4.5719,4.575,4.5812,4.5892,4.5998,4.615,4.6248,4.6275,4.6233,4.6192,4.6157,4.6115,4.6037,4.5933,4.5867,4.5786,4.5746,4.5714,4.562,4.5532,4.5419,4.5248,4.5135,4.5156,4.522,4.5303,4.5477,4.5652,4.5827,4.5933,4.5867,4.5697,4.5117,4.4354,4.3447,4.2551,4.1756,4.1058,4.0684,4.0432,4.0298,4.0241,4.0261,4.0342,4.0449,4.0507,4.0508,4.0496,4.0496,4.0496,4.0496,4.0496,4.0496,4.0496,4.0496,4.0496,4.0496,4.0496,4.0496,4.0496,4.0496,4.0496,4.0496,4.0496,4.0496,4.0496,4.0496,4.0496,4.0496,4.0496,4.0496,4.0496,4.0496,4.0496,4.0496,4.0362,4.0092,3.9746,3.9111,3.8488,3.793,3.7423,3.7231,3.7031,3.7197,3.7141,3.678,3.6224,3.6064,3.5798,3.5464,3.5154,3.4933,3.4708,3.4542,3.4397,3.4257,3.3883,3.3228,3.2588,3.1918,3.1327,3.0787,3.1014,3.1826,3.2454,3.2993,3.3705,3.4518,4.5703,4.566,4.566,4.5662,4.5676,4.5676,4.5682,4.5711,4.5764,4.5867,4.5993,4.6127,4.6242,4.625,4.6211,4.6192,4.6153,4.6122,4.6056,4.5941,4.5848,4.5764,4.5696,4.5676,4.5662,4.5584,4.5522,4.5457,4.539,4.5438,4.5473,4.5566,4.5696,4.5845,4.5997,4.6088,4.6152,4.6121,4.5652,4.4965,4.4086,4.3183,4.2292,4.1457,4.1003,4.0771,4.0681,4.053,4.0449,4.0444,4.0499,4.0503,4.0496,4.0496,4.0496,4.0496,4.0496,4.0496,4.0496,4.0496,4.0496,4.0496,4.0496,4.0496,4.0496,4.0496,4.0496,4.0496,4.0496,4.0496,4.0496,4.0496,4.0496,4.0496,4.0496,4.0496,4.0496,4.0496,4.0496,4.0496,4.0496,4.0496,4.0362,4.015,3.9592,3.9315,3.88,3.8208,3.8112,3.7905,3.7951,3.7854,3.74,3.7018,3.6863,3.6495,3.6041,3.5617,3.5221,3.4944,3.4699,3.455,3.4404,3.3877,3.327,3.2788,3.2145,3.1661,3.1231,3.1972,3.2493,3.2791,3.3163,3.3941,3.4632,4.5594,4.5594,4.5594,4.5614,4.5614,4.5594,4.564,4.569,4.5769,4.5867,4.5994,4.6134,4.6196,4.6203,4.6214,4.6181,4.6125,4.6131,4.6084,4.5991,4.588,4.58,4.5739,4.5731,4.5723,4.5715,4.5715,4.5696,4.5661,4.5685,4.5745,4.5803,4.5892,4.5998,4.6145,4.6209,4.62,4.6184,4.6144,4.5667,4.4847,4.4105,4.3258,4.2372,4.159,4.1119,4.1013,4.0913,4.0737,4.0539,4.0508,4.0489,4.0496,4.0496,4.0496,4.0496,4.0496,4.0496,4.0496,4.0496,4.0496,4.0496,4.0496,4.0496,4.0496,4.0496,4.0496,4.0496,4.0496,4.0496,4.0496,4.065,4.0689,4.0689,4.0669,4.0535,4.0496,4.0496,4.0496,4.0496,4.0496,4.0496,4.0489,4.0412,4.0085,3.9665,3.9346,3.8969,3.8588,3.8441,3.8131,3.8023,3.8038,3.7708,3.7528,3.7015,3.6587,3.6245,3.5722,3.5191,3.4797,3.4594,3.4404,3.3889,3.3471,3.2952,3.2632,3.226,3.2046,3.233,3.2687,3.2895,3.339,3.414,3.4714,4.5522,4.5522,4.5577,4.5577,4.5531,4.5577,4.5594,4.5629,4.575,4.5873,4.6003,4.6078,4.6151,4.6201,4.6249,4.6245,4.6189,4.617,4.6146,4.608,4.6032,4.5931,4.5807,4.5826,4.584,4.5847,4.5848,4.5835,4.5861,4.5886,4.5914,4.5963,4.6045,4.6139,4.6212,4.6211,4.6209,4.6189,4.6144,4.5733,4.5007,4.4677,4.4153,4.328,4.2449,4.2,4.1842,4.1679,4.121,4.0543,4.0496,4.0496,4.0554,4.0554,4.0554,4.0496,4.0496,4.0496,4.0496,4.0496,4.0496,4.0496,4.0496,4.0496,4.0496,4.0496,4.0496,4.0496,4.0496,4.0516,4.0612,4.1085,4.1643,4.2124,4.1381,4.0631,4.0554,4.0496,4.0496,4.0496,4.0496,4.0489,4.05,4.0457,4.0383,4.0156,3.9991,3.9846,3.938,3.925,3.9061,3.9061,3.8962,3.8519,3.8056,3.7551,3.7152,3.6887,3.6273,3.5452,3.4969,3.4509,3.4293,3.3962,3.3734,3.3311,3.3403,3.3324,3.3191,3.2855,3.3176,3.3487,3.3691,3.4246,3.4813,4.5448,4.5467,4.5495,4.5486,4.5458,4.5467,4.5477,4.5532,4.5635,4.5783,4.5925,4.6018,4.6091,4.6211,4.6267,4.6271,4.6245,4.6214,4.618,4.6146,4.6114,4.6019,4.5918,4.5932,4.5962,4.5983,4.5994,4.6002,4.6027,4.6084,4.6091,4.6103,4.6159,4.62,4.6242,4.6249,4.6231,4.6199,4.6125,4.5754,4.4972,4.4889,4.444,4.3745,4.3158,4.2876,4.2665,4.2525,4.2017,4.1359,4.1362,4.1431,4.1066,4.1046,4.09,4.0573,4.0496,4.0496,4.0496,4.0496,4.0496,4.0496,4.0496,4.0496,4.0496,4.0496,4.0496,4.0496,4.0496,4.0689,4.1123,4.1835,4.2508,4.2797,4.2181,4.1431,4.1104,4.0719,4.0535,4.0489,4.05,4.0503,4.0503,4.0447,4.0405,4.0332,4.0185,4.011,3.9995,4.0011,3.988,3.9591,3.9415,3.8952,3.8669,3.8252,3.7689,3.742,3.6637,3.5825,3.5173,3.4577,3.4215,3.4023,3.3913,3.382,3.382,3.382,3.3673,3.354,3.3842,3.4065,3.4273,3.4362,3.4933,4.538,4.539,4.5389,4.5359,4.5338,4.5288,4.5298,4.537,4.5447,4.5602,4.5787,4.5931,4.6063,4.6203,4.6253,4.6303,4.6284,4.6214,4.6183,4.6154,4.6119,4.603,4.5978,4.5989,4.6032,4.608,4.6102,4.6131,4.6157,4.6183,4.6198,4.6194,4.6216,4.6235,4.6267,4.6289,4.628,4.6239,4.6223,4.5897,4.5326,4.5189,4.4902,4.4374,4.393,4.3556,4.3343,4.3239,4.2942,4.2124,4.2758,4.2489,4.1885,4.1777,4.1335,4.0689,4.0496,4.0496,4.0496,4.0496,4.0496,4.0496,4.0496,4.0496,4.0496,4.0496,4.0496,4.0496,4.0573,4.1208,4.2085,4.2835,4.3297,4.3508,4.3355,4.2816,4.2124,4.1219,4.0604,4.0508,4.0507,4.0502,4.0449,4.037,4.0252,4.0168,4.008,3.9958,3.9854,3.9755,3.9609,3.9439,3.9327,3.9292,3.9125,3.8975,3.8412,3.7886,3.6962,3.6112,3.5401,3.4821,3.4309,3.4005,3.3934,3.3887,3.3855,3.386,3.3847,3.3834,3.3873,3.4352,3.4806,3.4797,3.5116,4.5194,4.5162,4.5224,4.5181,4.5103,4.5106,4.5148,4.5162,4.5282,4.5445,4.5642,4.5841,4.5988,4.6144,4.6195,4.6216,4.6219,4.6184,4.6174,4.6104,4.6065,4.6005,4.6011,4.6042,4.6089,4.6107,4.6151,4.6176,4.6194,4.6232,4.6264,4.6267,4.6258,4.6285,4.6288,4.6289,4.6305,4.6277,4.627,4.6165,4.5966,4.5881,4.5796,4.5468,4.4909,4.412,4.3612,4.3856,4.4002,4.3726,4.3355,4.2931,4.22,4.1912,4.147,4.0823,4.0516,4.0496,4.0496,4.0496,4.0496,4.0496,4.0496,4.0496,4.0496,4.0554,4.0554,4.065,4.1123,4.2104,4.3355,4.3855,4.4278,4.4575,4.4363,4.3932,4.3547,4.2393,4.128,4.0737,4.0521,4.0449,4.0307,4.0253,4.0138,3.9979,3.9832,3.9709,3.9592,3.9471,3.9357,3.9232,3.917,3.9106,3.9036,3.8909,3.8502,3.8053,3.7239,3.652,3.5806,3.5275,3.4866,3.4407,3.3998,3.4015,3.4218,3.3959,3.3978,3.3939,3.3992,3.4581,3.5041,3.5106,3.5731,4.5014,4.4955,4.4919,4.4889,4.4808,4.4808,4.4846,4.4931,4.5053,4.5263,4.5507,4.5684,4.584,4.6007,4.6119,4.6167,4.6144,4.6076,4.6046,4.598,4.5943,4.5931,4.5966,4.6026,4.608,4.613,4.6178,4.6225,4.6243,4.6274,4.6301,4.6301,4.6287,4.6288,4.6289,4.6289,4.6288,4.6305,4.6305,4.6284,4.6263,4.6249,4.6224,4.6119,4.5601,4.4982,4.4634,4.4804,4.495,4.4823,4.447,4.3874,4.3047,4.2604,4.197,4.1258,4.065,4.0535,4.0496,4.0496,4.0496,4.0516,4.0516,4.0758,4.0969,4.1123,4.1354,4.1681,4.222,4.2951,4.4143,4.4767,4.5152,4.5344,4.519,4.4767,4.4162,4.2827,4.1665,4.1086,4.0718,4.0392,4.0196,4.0089,3.9892,3.9705,3.958,3.9477,3.9311,3.9197,3.9115,3.9003,3.895,3.8896,3.8855,3.8678,3.8402,3.7993,3.7505,3.6916,3.6332,3.591,3.5497,3.52,3.4952,3.4747,3.484,3.4506,3.4266,3.4166,3.4386,3.4905,3.5505,3.6127,3.692,4.4796,4.4687,4.4573,4.4505,4.451,4.4454,4.451,4.464,4.4783,4.5034,4.5342,4.5516,4.5694,4.5865,4.6017,4.6066,4.6032,4.5966,4.5904,4.5886,4.5827,4.5847,4.5887,4.596,4.6052,4.6167,4.6189,4.6236,4.6274,4.6304,4.6287,4.6288,4.6289,4.6289,4.6289,4.6289,4.6289,4.6289,4.6289,4.6268,4.6267,4.6216,4.6158,4.6049,4.5894,4.5699,4.5508,4.5592,4.5627,4.5594,4.5594,4.519,4.4536,4.372,4.2893,4.2047,4.1258,4.0873,4.0854,4.0796,4.0796,4.0708,4.0939,4.1258,4.1835,4.2027,4.2277,4.2739,4.3181,4.3624,4.4432,4.5056,4.546,4.5575,4.5594,4.5248,4.4432,4.3019,4.211,4.1549,4.0839,4.0272,4.0011,3.9862,3.9635,3.9433,3.9343,3.9224,3.9064,3.895,3.8906,3.8866,3.8822,3.8807,3.8765,3.875,3.8422,3.8235,3.7824,3.7556,3.7174,3.7243,3.7006,3.6429,3.6143,3.5926,3.5708,3.5576,3.526,3.4767,3.5051,3.5855,3.6562,3.7253,3.7956,4.4458,4.4298,4.421,4.4155,4.4113,4.4097,4.4151,4.4294,4.456,4.4795,4.5085,4.5391,4.5585,4.5733,4.5867,4.5938,4.5886,4.5841,4.5807,4.5791,4.5754,4.5742,4.584,4.5886,4.6011,4.6115,4.617,4.6236,4.6278,4.6288,4.6289,4.6289,4.6289,4.6289,4.6289,4.6289,4.6306,4.6265,4.6237,4.6225,4.6184,4.6108,4.6029,4.5942,4.5829,4.5766,4.5719,4.5695,4.5676,4.5614,4.5594,4.5498,4.519,4.4528,4.3758,4.2912,4.2066,4.1585,4.1585,4.1604,4.1596,4.1739,4.2104,4.2547,4.2816,4.2893,4.3085,4.3335,4.3855,4.4451,4.5287,4.5498,4.5556,4.5594,4.5575,4.5518,4.5047,4.3906,4.2595,4.2101,4.1121,4.012,3.9886,3.9663,3.9464,3.9277,3.9142,3.905,3.8892,3.8837,3.8807,3.878,3.8719,3.8704,3.8707,3.8723,3.8612,3.8606,3.8412,3.8526,3.8391,3.8827,3.8633,3.7828,3.7293,3.7006,3.681,3.6641,3.6415,3.6077,3.6451,3.6907,3.7398,3.7899,3.826,4.4218,4.4033,4.3992,4.3929,4.3897,4.3881,4.3974,4.4124,4.4298,4.4576,4.4887,4.5169,4.5381,4.5535,4.5653,4.5692,4.5677,4.564,4.5632,4.5671,4.5671,4.57,4.5791,4.5848,4.5989,4.6089,4.6151,4.6201,4.6291,4.6303,4.6287,4.6307,4.6307,4.6307,4.6306,4.6303,4.6277,4.6246,4.6182,4.6122,4.6041,4.5939,4.5835,4.5756,4.5715,4.5665,4.5671,4.5646,4.562,4.5594,4.5594,4.5594,4.5479,4.519,4.4586,4.3758,4.2951,4.247,4.247,4.247,4.2462,4.2508,4.2931,4.3297,4.3585,4.3739,4.3893,4.4335,4.4586,4.5133,4.5537,4.5594,4.5594,4.5594,4.5594,4.5594,4.5316,4.4359,4.3548,4.2641,4.1323,4.0361,3.9739,3.9514,3.9285,3.9115,3.8964,3.8866,3.8747,3.875,3.875,3.8719,3.8707,3.8707,3.8707,3.8707,3.8707,3.8704,3.8777,3.891,3.9073,3.9248,3.9289,3.8935,3.8504,3.805,3.7816,3.7597,3.7488,3.7416,3.766,3.7908,3.8151,3.8503,3.8864,4.3714,4.3592,4.3529,4.3496,4.3517,4.3681,4.3816,4.3958,4.4091,4.4369,4.4745,4.4953,4.5156,4.5302,4.5371,4.5399,4.5419,4.5381,4.5438,4.5504,4.554,4.5618,4.5739,4.5833,4.5931,4.6026,4.6039,4.6138,4.6255,4.6273,4.6258,4.6259,4.6279,4.6278,4.6276,4.6267,4.6234,4.6159,4.6068,4.5969,4.5783,4.5642,4.5563,4.5537,4.5531,4.5513,4.556,4.5568,4.5577,4.5577,4.5586,4.5594,4.5594,4.5594,4.5267,4.4586,4.3797,4.3431,4.3335,4.3335,4.3316,4.3335,4.3528,4.397,4.4316,4.4624,4.4816,4.5441,4.5556,4.5518,4.5594,4.5594,4.5594,4.5594,4.5594,4.5547,4.5346,4.4783,4.4173,4.3043,4.1576,4.0737,4.0226,3.935,3.9129,3.8989,3.8851,3.8807,3.8719,3.8719,3.8704,3.8723,3.8707,3.8707,3.8707,3.8707,3.8707,3.8707,3.8792,3.8921,3.9142,3.935,3.9387,3.9444,3.9397,3.8993,3.8756,3.8652,3.867,3.8697,3.8759,3.8866,3.9066,3.9177,3.9421,4.2659,4.2564,4.2518,4.2485,4.2595,4.3218,4.3634,4.3835,4.3958,4.4218,4.4519,4.4745,4.4919,4.503,4.5098,4.5132,4.5162,4.5184,4.5197,4.5262,4.5352,4.5465,4.5624,4.5746,4.5793,4.5867,4.5889,4.6037,4.6105,4.616,4.62,4.6177,4.6173,4.6199,4.6177,4.615,4.6144,4.6007,4.5881,4.5662,4.5395,4.5255,4.5213,4.5232,4.5272,4.5301,4.539,4.5458,4.5475,4.5532,4.5568,4.5594,4.5594,4.5594,4.5575,4.5229,4.472,4.4162,4.4182,4.4182,4.4162,4.4297,4.4701,4.5248,4.5287,4.5306,4.5383,4.5518,4.5594,4.5594,4.5594,4.5594,4.5594,4.5594,4.5594,4.5594,4.547,4.513,4.4538,4.3899,4.2585,4.1638,4.0935,3.9866,3.896,3.8848,3.8783,3.883,3.8854,3.8982,3.8946,3.9001,3.8744,3.8707,3.8707,3.8707,3.8707,3.8707,3.8792,3.8935,3.9115,3.9324,3.9635,3.9697,3.9725,3.9824,3.9642,3.9623,3.9822,3.9775,3.9605,3.9709,3.9928,4.001,3.9935,4.1963,4.2299,4.1844,4.1901,4.2323,4.2671,4.3162,4.3629,4.3835,4.402,4.4277,4.4439,4.4602,4.4757,4.4827,4.4808,4.4808,4.4846,4.4931,4.5023,4.5145,4.5263,4.5409,4.5518,4.5602,4.5568,4.5588,4.5541,4.5697,4.5886,4.6029,4.6006,4.5998,4.5962,4.5948,4.5925,4.5844,4.5664,4.5428,4.5177,4.5014,4.4922,4.4881,4.4917,4.4976,4.5065,4.5173,4.5281,4.5362,4.5429,4.5504,4.5568,4.5586,4.5594,4.5594,4.5575,4.5287,4.5056,4.5028,4.5037,4.4989,4.5047,4.5383,4.5518,4.5594,4.5594,4.5594,4.5594,4.5594,4.5594,4.5594,4.5594,4.5594,4.5594,4.5594,4.5586,4.553,4.5256,4.4824,4.4247,4.3661,4.2725,4.1882,4.1119,4.0303,3.9982,3.9963,4.0026,3.99,3.9753,3.9643,3.946,3.9093,3.8707,3.8707,3.8707,3.8707,3.8723,3.8747,3.8892,3.9064,3.929,3.9551,3.9826,3.9903,4.0053,4.0271,4.0267,4.0161,4.0238,4.0325,4.0279,4.0223,4.0196,4.0139,4.1444,4.1919,4.1132,4.1277,4.2011,4.2194,4.2814,4.358,4.3719,4.3865,4.4033,4.4162,4.4312,4.4421,4.4435,4.443,4.4468,4.4463,4.4568,4.4707,4.4826,4.4924,4.5028,4.5145,4.5148,4.517,4.5031,4.4944,4.4967,4.513,4.5321,4.5673,4.5594,4.5573,4.5563,4.5476,4.5362,4.515,4.489,4.4682,4.4578,4.4517,4.4527,4.4581,4.4674,4.4808,4.4907,4.5076,4.521,4.5331,4.5448,4.5523,4.5559,4.5586,4.5594,4.5594,4.5479,4.5479,4.5479,4.5479,4.5594,4.5594,4.5594,4.5594,4.5594,4.5594,4.5594,4.5594,4.5594,4.5594,4.5594,4.5594,4.5594,4.5594,4.5594,4.5586,4.5549,4.5332,4.511,4.4706,4.4195,4.3756,4.2992,4.2445,4.1841,4.1259,4.1142,4.1167,4.0912,4.0579,4.0212,3.9971,3.9549,3.9019,3.8744,3.8726,3.8726,3.8719,3.8762,3.8833,3.8993,3.917,3.9401,3.9689,3.9943,4.0118,4.0215,4.0325,4.0441,4.043,4.0419,4.0394,4.0377,4.0351,4.0325,4.1132,4.1113,4.0322,4.0506,4.126,4.1992,4.2814,4.3563,4.3599,4.3716,4.3913,4.3989,4.4033,4.4067,4.4101,4.4082,4.4048,4.4109,4.4196,4.4279,4.4388,4.4468,4.4536,4.4537,4.4518,4.4486,4.4344,4.4153,4.4022,4.3966,4.4447,4.5006,4.4907,4.4947,4.4906,4.4789,4.4687,4.4531,4.4332,4.4231,4.4162,4.4124,4.4109,4.4185,4.4298,4.4439,4.4632,4.4839,4.5061,4.5184,4.533,4.5438,4.5505,4.5531,4.5568,4.5549,4.5577,4.5577,4.5577,4.5586,4.5594,4.5594,4.5594,4.5594,4.5594,4.5594,4.5594,4.5594,4.5594,4.5594,4.5594,4.5594,4.5594,4.5594,4.5586,4.5568,4.5541,4.5457,4.5243,4.5042,4.4644,4.4148,4.3841,4.3209,4.2659,4.2073,4.1858,4.1864,4.1607,4.1275,4.0761,4.0391,4.0024,3.9509,3.8888,3.8793,3.8768,3.8765,3.8777,3.8837,3.8906,3.9101,3.929,3.9502,3.9751,3.995,4.0158,4.0298,4.0405,4.0468,4.0473,4.046,4.0452,4.0436,4.0422,4.1113,4.1022,4.023,4.0377,4.1168,4.1939,4.2762,4.3457,4.3549,4.3582,4.3734,4.3816,4.3865,4.3865,4.3883,4.3883,4.3883,4.3897,4.3892,4.3886,4.3943,4.3955,4.3896,4.3813,4.3748,4.3603,4.3441,4.3307,4.3117,4.2976,4.31,4.3489,4.3847,4.4032,4.4027,4.3994,4.3908,4.3896,4.3831,4.3791,4.3809,4.3865,4.3899,4.3913,4.3989,4.414,4.4302,4.456,4.4796,4.4991,4.5173,4.53,4.5409,4.5448,4.5476,4.5495,4.5523,4.5541,4.5559,4.5577,4.5594,4.5594,4.5594,4.5594,4.5594,4.5594,4.5594,4.5594,4.5594,4.5594,4.5594,4.5594,4.5594,4.5594,4.5586,4.554,4.5485,4.5419,4.5258,4.5003,4.4764,4.4433,4.4184,4.3912,4.3359,4.2849,4.2687,4.2523,4.2301,4.2077,4.1632,4.1054,4.0646,4.0127,3.9519,3.9187,3.8859,3.8822,3.8822,3.8848,3.8906,3.8964,3.9142,3.9363,3.9592,3.9843,4.007,4.0262,4.0396,4.0468,4.0508,4.0489,4.05,4.0492,4.0468,4.0948,4.0726,4.0396,4.0579,4.1168,4.1956,4.2763,4.3406,4.3496,4.3513,4.3583,4.3652,4.3688,4.3688,4.3637,4.3618,4.3601,4.3618,4.3548,4.3529,4.3458,4.3353,4.3211,4.305,4.2887,4.2681,4.2488,4.2331,4.2172,4.2103,4.2088,4.2215,4.2491,4.2759,4.3154,4.312,4.3122,4.3194,4.3319,4.3425,4.3478,4.36,4.3686,4.3719,4.3783,4.3878,4.4051,4.4277,4.4519,4.4757,4.4955,4.5148,4.5256,4.5339,4.537,4.54,4.5448,4.5457,4.5504,4.5559,4.5594,4.5594,4.5594,4.5594,4.5594,4.5594,4.5594,4.5594,4.5594,4.5594,4.5594,4.5594,4.5594,4.5594,4.5568,4.5513,4.5458,4.538,4.5173,4.4943,4.4739,4.456,4.4306,4.4055,4.3719,4.3301,4.3197,4.3106,4.3087,4.2896,4.2682,4.2028,4.1354,4.0792,4.023,3.961,3.9082,3.8993,3.8979,3.8921,3.8964,3.8993,3.9064,3.9277,3.9514,3.9773,4.0,4.0243,4.0368,4.0487,4.0492,4.0496,4.0489,4.0508,4.0508,4.0671,4.0047,4.0763,4.1058,4.126,4.1974,4.2745,4.3314,4.3387,4.3442,4.3479,4.3446,4.3412,4.3394,4.3304,4.325,4.3214,4.3233,4.3196,4.3123,4.2958,4.277,4.2501,4.2284,4.2083,4.1864,4.1692,4.1494,4.1288,4.1265,4.1146,4.1076,4.1343,4.1621,4.2268,4.2382,4.244,4.2539,4.277,4.2976,4.3196,4.334,4.3464,4.355,4.3617,4.3718,4.3849,4.402,4.4262,4.4505,4.4706,4.4883,4.5038,4.5129,4.5205,4.5309,4.5369,4.5438,4.5514,4.5559,4.5586,4.5594,4.5594,4.5594,4.5594,4.5594,4.5594,4.5594,4.5594,4.5594,4.5594,4.5594,4.5594,4.5586,4.5559,4.5505,4.5419,4.5329,4.5129,4.4943,4.4783,4.4587,4.4354,4.4101,4.3894,4.3677,4.3614,4.3615,4.3647,4.3597,4.3391,4.2905,4.2147,4.146,4.0789,3.9832,3.9309,3.9229,3.9156,3.9115,3.9078,3.9092,3.9161,3.9237,3.9464,3.9773,4.0,4.0224,4.0368,4.0495,4.05,4.0496,4.0496,4.0496,4.0496,4.0946,4.0726,4.0985,4.1407,4.1901,4.2176,4.247,4.2655,4.2695,4.2934,4.332,4.3287,4.3142,4.3087,4.2994,4.292,4.2845,4.2845,4.2825,4.2727,4.2512,4.2251,4.1984,4.1687,4.1401,4.1209,4.0995,4.0877,4.0765,4.0686,4.0662,4.0614,4.0662,4.0913,4.1338,4.1556,4.1709,4.1969,4.2259,4.2557,4.2845,4.3105,4.3323,4.3429,4.3516,4.3583,4.3686,4.383,4.402,4.4214,4.4398,4.4562,4.4739,4.4858,4.4955,4.5068,4.5136,4.535,4.5448,4.5541,4.5559,4.5577,4.5594,4.5594,4.5594,4.5594,4.5594,4.5594,4.5594,4.5594,4.5594,4.5594,4.5594,4.5586,4.555,4.5477,4.5409,4.5288,4.5148,4.4955,4.4796,4.4712,4.451,4.435,4.4155,4.4048,4.3971,4.3892,4.3873,4.4014,4.3931,4.3539,4.2931,4.2198,4.1405,4.0509,3.9768,3.9532,3.9433,3.935,3.9317,3.9251,3.9277,3.9376,3.9575,3.9773,4.0059,4.028,4.0402,4.0503,4.05,4.0489,4.0496,4.0496,4.0496,4.093,4.0726,4.0985,4.1556,4.2199,4.2271,4.2254,4.2203,4.2171,4.2556,4.3069,4.3012,4.2786,4.2634,4.2516,4.2418,4.23,4.232,4.2315,4.2228,4.204,4.1827,4.1547,4.1277,4.1065,4.0823,4.0655,4.051,4.0444,4.037,4.0345,4.0345,4.037,4.0476,4.0741,4.0913,4.1186,4.149,4.1796,4.2154,4.2516,4.2844,4.3105,4.3286,4.3429,4.3497,4.3583,4.3684,4.3818,4.3971,4.4106,4.424,4.4402,4.4513,4.4653,4.477,4.5045,4.5267,4.539,4.5467,4.5485,4.5513,4.5568,4.5594,4.5594,4.5594,4.5594,4.5594,4.5594,4.5594,4.5594,4.5594,4.5586,4.5586,4.5504,4.5448,4.535,4.5246,4.5125,4.4943,4.487,4.4789,4.4725,4.4613,4.4453,4.4383,4.4317,4.424,4.4166,4.4283,4.4388,4.4111,4.3611,4.2874,4.2063,4.1211,4.0509,3.9919,3.98,3.976,3.9575,3.9539,3.9526,3.9526,3.9728,3.9935,4.0158,4.0344,4.0455,4.0495,4.0503,4.05,4.0489,4.0489,4.05,4.0673,4.0102,4.0818,4.1595,4.2168,4.2223,4.2098,4.2029,4.1975,4.2323,4.2882,4.267,4.2335,4.199,4.1756,4.1587,4.1481,4.1565,4.16,4.1631,4.1582,4.1426,4.1295,4.1088,4.0971,4.0745,4.0576,4.0468,4.0313,4.0221,4.0163,4.0163,4.0213,4.0271,4.0395,4.059,4.0853,4.1094,4.1391,4.177,4.2151,4.2498,4.2826,4.3068,4.3286,4.3393,4.348,4.3565,4.3667,4.3783,4.3865,4.3974,4.4079,4.4166,4.436,4.4627,4.4967,4.5136,4.5288,4.5351,4.541,4.5438,4.5504,4.5568,4.5586,4.5586,4.5594,4.5594,4.5594,4.5594,4.5594,4.5594,4.5594,4.5531,4.5466,4.539,4.5298,4.5192,4.508,4.4986,4.4955,4.4895,4.4914,4.4833,4.477,4.4777,4.4739,4.4694,4.4642,4.4602,4.4695,4.4737,4.4186,4.3504,4.2739,4.2016,4.1292,4.069,4.0382,4.0279,4.0063,3.9834,3.9762,3.9785,3.9903,4.007,4.0272,4.0388,4.0452,4.0476,4.0463,4.0487,4.0495,4.0476,4.0476,4.1431,4.0855,4.1644,4.24,4.2883,4.2285,4.2012,4.1976,4.1869,4.214,4.2731,4.2195,4.1778,4.1366,4.0903,4.0709,4.0655,4.0703,4.0879,4.1007,4.118,4.1267,4.1267,4.1186,4.1094,4.0977,4.0813,4.0597,4.0419,4.0246,4.0188,4.0238,4.028,4.0313,4.0412,4.051,4.0614,4.0758,4.1065,4.1391,4.177,4.2133,4.2516,4.2807,4.3123,4.325,4.341,4.3479,4.3583,4.3632,4.3684,4.3767,4.3865,4.3958,4.4128,4.4491,4.4745,4.4938,4.5106,4.5205,4.5279,4.536,4.5438,4.5477,4.5523,4.5568,4.5586,4.5594,4.5594,4.5594,4.5594,4.5594,4.571,4.5771,4.5697,4.562,4.5528,4.5421,4.53,4.508,4.5038,4.5087,4.5084,4.5106,4.5076,4.5106,4.5125,4.5095,4.5042,4.4984,4.4988,4.5036,4.4728,4.4046,4.3637,4.2996,4.2192,4.1522,4.1246,4.0902,4.0557,4.0326,4.0093,4.0008,4.0059,4.0187,4.0363,4.0498,4.0688,4.0435,4.0389,4.0432,4.0466,4.0468,4.043,4.1384,4.1192,4.1942,4.2679,4.314,4.265,4.2396,4.2359,4.1923,4.2045,4.244,4.1966,4.1366,4.0797,4.03,3.9944,3.9749,3.9952,4.0153,4.0514,4.086,4.118,4.1318,4.1436,4.1418,4.1328,4.1169,4.0954,4.0669,4.0419,4.0313,4.0362,4.0429,4.0534,4.0614,4.0662,4.0662,4.071,4.0836,4.1094,4.1436,4.1809,4.2172,4.2557,4.2883,4.3142,4.3376,4.3445,4.3513,4.3548,4.3548,4.36,4.3703,4.3783,4.3992,4.4321,4.4532,4.4719,4.4907,4.5068,4.5159,4.5254,4.5317,4.5399,4.5448,4.5495,4.555,4.5605,4.5586,4.5594,4.5594,4.5633,4.5883,4.6086,4.6004,4.5927,4.5835,4.5748,4.5524,4.5235,4.5194,4.5269,4.531,4.532,4.533,4.53,4.53,4.531,4.5279,4.5227,4.5258,4.5312,4.5036,4.4595,4.422,4.3835,4.3145,4.2522,4.2246,4.1856,4.1292,4.0902,4.074,4.0473,4.0196,4.0386,4.0604,4.0842,4.0985,4.0777,4.0673,4.0769,4.0711,4.0442,4.0413,4.0793,4.1054,4.1932,4.261,4.3069,4.2941,4.285,4.285,4.2014,4.1968,4.2223,4.1878,4.1225,4.0552,3.9952,3.9463,3.9339,3.9418,3.9791,4.0078,4.0707,4.1169,4.1613,4.1744,4.1835,4.1749,4.1534,4.1328,4.1001,4.0734,4.0558,4.0541,4.0704,4.0853,4.096,4.1001,4.1001,4.0977,4.0901,4.0948,4.1203,4.1498,4.1827,4.2315,4.2673,4.2994,4.3287,4.3446,4.3479,4.3479,4.3496,4.3496,4.3583,4.3667,4.3878,4.4097,4.4302,4.4519,4.4693,4.4865,4.4943,4.5068,4.5178,4.5307,4.538,4.5467,4.5541,4.5586,4.5594,4.5594,4.5594,4.5671,4.5845,4.6241,4.6436,4.634,4.623,4.6003,4.557,4.5352,4.532,4.539,4.5429,4.5438,4.5438,4.5438,4.5438,4.5457,4.5467,4.5419,4.5448,4.5505,4.5293,4.5034,4.4811,4.4425,4.4011,4.356,4.3235,4.2797,4.2255,4.1817,4.1418,4.1266,4.1112,4.0816,4.0883,4.1265,4.1551,4.1461,4.136,4.129,4.1075,4.0765,4.0405,4.0546,4.0903,4.2339,4.2794,4.2427,4.2303,4.1921,4.1412,4.1831,4.2121,4.2327,4.1821,4.1225,4.0577,3.9859,3.9358,3.9169,3.9329,3.9636,4.0228,4.0808,4.145,4.1987,4.2251,4.2351,4.2313,4.2089,4.1687,4.1283,4.1018,4.0901,4.1024,4.1163,4.1288,4.145,4.149,4.1463,4.1391,4.1157,4.0995,4.1065,4.1335,4.1653,4.2065,4.2414,4.2842,4.3123,4.3359,4.3428,4.3497,4.3479,4.3479,4.3496,4.36,4.3751,4.3926,4.4094,4.4306,4.4477,4.4659,4.4757,4.4895,4.5045,4.5211,4.5348,4.5448,4.5513,4.5568,4.5594,4.5594,4.5614,4.571,4.5893,4.6386,4.681,4.6704,4.6596,4.6115,4.5625,4.5514,4.5458,4.5485,4.5513,4.555,4.5559,4.5559,4.5559,4.5559,4.5559,4.5532,4.5523,4.5559,4.5568,4.5365,4.521,4.5037,4.4643,4.4374,4.4068,4.3628,4.3171,4.2718,4.2316,4.2284,4.2138,4.1688,4.1531,4.1982,4.2166,4.2109,4.2048,4.1957,4.1706,4.1412,4.0802,3.9806,4.0237,4.1611,4.2007,4.1657,4.1517,4.1209,4.1009,4.1559,4.1977,4.2183,4.1955,4.1543,4.0891,4.0127,3.9638,3.9428,3.9454,3.9893,4.047,4.1116,4.1782,4.2277,4.267,4.2765,4.2746,4.2416,4.199,4.1596,4.1463,4.144,4.1529,4.1666,4.1839,4.2008,4.2008,4.1945,4.1874,4.1525,4.1295,4.1111,4.1267,4.1493,4.1831,4.2234,4.267,4.303,4.3287,4.3411,4.348,4.3479,4.3479,4.3496,4.3549,4.3634,4.3767,4.3926,4.4116,4.4281,4.4454,4.4605,4.4764,4.4943,4.5125,4.5298,4.54,4.5504,4.554,4.5586,4.5594,4.5594,4.5652,4.6086,4.6587,4.6762,4.6743,4.6464,4.6023,4.5687,4.5515,4.5495,4.555,4.5568,4.5577,4.5577,4.5577,4.5586,4.5586,4.5594,4.5594,4.5594,4.5594,4.5594,4.5594,4.546,4.5402,4.5287,4.5056,4.4786,4.4351,4.3856,4.3512,4.3229,4.2911,4.2591,4.2268,4.2278,4.2635,4.2787,4.2737,4.2674,4.2637,4.2341,4.2071,4.1654,3.8868,3.9353,4.0499,4.0906,4.0743,4.0677,4.0535,4.0574,4.1216,4.1506,4.1649,4.2178,4.1982,4.1397,4.0792,4.0356,4.0102,4.0119,4.0404,4.088,4.1477,4.2113,4.2593,4.2956,4.303,4.2937,4.2671,4.2434,4.2148,4.2044,4.1963,4.2029,4.2175,4.2358,4.2456,4.2476,4.2416,4.2216,4.1963,4.1719,4.1493,4.1279,4.1448,4.1749,4.2133,4.2593,4.2993,4.3251,4.3394,4.3463,4.3479,4.3479,4.3479,4.3496,4.3566,4.3684,4.3767,4.391,4.4067,4.4296,4.4468,4.4646,4.4877,4.5061,4.5227,4.5361,4.5467,4.5531,4.5577,4.5594,4.5594,4.5691,4.6163,4.6615,4.6704,4.6753,4.6378,4.5966,4.5716,4.5504,4.555,4.5586,4.5594,4.5594,4.5594,4.5594,4.5594,4.5594,4.5594,4.5594,4.5594,4.5594,4.5594,4.5594,4.5594,4.5575,4.5537,4.5479,4.5173,4.4872,4.4576,4.4213,4.3764,4.3161,4.2856,4.2812,4.288,4.3152,4.3224,4.3267,4.3396,4.3348,4.3062,4.2806,4.2649,3.8295,3.9368,4.0428,4.0529,4.0032,3.9874,3.9443,3.907,4.0183,4.0691,4.1088,4.2155,4.2498,4.1994,4.1703,4.1313,4.0926,4.085,4.1099,4.1561,4.1839,4.2414,4.2861,4.3105,4.316,4.3068,4.2919,4.2749,4.2613,4.2514,4.2494,4.2537,4.2673,4.2824,4.2936,4.2918,4.2824,4.2595,4.2378,4.211,4.1827,4.1648,4.156,4.1805,4.2124,4.2532,4.288,4.3142,4.3304,4.3427,4.3479,4.3479,4.3479,4.3496,4.3549,4.3583,4.3684,4.3781,4.3958,4.4128,4.4292,4.4551,4.4783,4.5003,4.5184,4.5351,4.5448,4.5559,4.5605,4.5586,4.5586,4.5594,4.5932,4.6423,4.6675,4.6684,4.6511,4.5993,4.559,4.555,4.5577,4.5594,4.5594,4.5594,4.5594,4.5594,4.5594,4.5594,4.5594,4.5594,4.5594,4.5594,4.5594,4.5594,4.5594,4.5594,4.5575,4.5594,4.5521,4.5189,4.4965,4.4871,4.439,4.3705,4.3632,4.3699,4.3772,4.3523,4.3687,4.3762,4.405,4.4083,4.3758,4.357,4.3447]}]]